Time,TemperatureF,DewpointF,PressureIn,WindDirection,WindDirectionDegrees,WindSpeedMPH,WindSpeedGustMPH,Humidity,HourlyPrecipIn,Conditions,Clouds,dailyrainin,SoftwareType,DateUTC
2013-03-22 00:00:00,48.1,12.1,29.75,NNW,338,0.0,0.0,23,0.00,,---,0.00,VWS V14.01,2013-03-22 06:00:00,
2013-03-22 00:01:00,48.1,12.1,29.75,NNE,22,0.7,0.7,23,0.00,,---,0.00,VWS V14.01,2013-03-22 06:01:00,
2013-03-22 00:02:00,48.1,12.1,29.75,NNE,22,0.4,0.7,23,0.00,,---,0.00,VWS V14.01,2013-03-22 06:02:00,
2013-03-22 00:03:00,48.1,12.1,29.75,NNE,22,0.2,0.4,23,0.00,,---,0.00,VWS V14.01,2013-03-22 06:03:00,
2013-03-22 00:04:00,48.1,11.1,29.75,NNE,22,0.0,0.2,22,0.00,,---,0.00,VWS V14.01,2013-03-22 06:04:00,
2013-03-22 00:05:00,47.9,11.9,29.75,NNE,22,0.7,0.7,23,0.00,,---,0.00,VWS V14.01,2013-03-22 06:05:00,
2013-03-22 00:06:00,47.9,10.9,29.75,NNE,22,0.4,0.7,22,0.00,,---,0.00,VWS V14.01,2013-03-22 06:06:00,
2013-03-22 00:07:00,47.9,10.9,29.75,NNE,22,0.2,0.4,22,0.00,,---,0.00,VWS V14.01,2013-03-22 06:07:00,
2013-03-22 00:08:00,47.9,10.9,29.75,NNE,22,0.0,0.2,22,0.00,,---,0.00,VWS V14.01,2013-03-22 06:08:00,
2013-03-22 00:09:00,47.9,10.9,29.75,NNE,22,0.0,0.0,22,0.00,,---,0.00,VWS V14.01,2013-03-22 06:09:00,
2013-03-22 00:10:00,47.7,10.7,29.75,North,0,0.0,0.0,22,0.00,,---,0.00,VWS V14.01,2013-03-22 06:10:00,
2013-03-22 00:11:00,47.7,10.7,29.75,NNW,338,0.4,0.4,22,0.00,,---,0.00,VWS V14.01,2013-03-22 06:11:00,
2013-03-22 00:12:00,47.5,10.6,29.75,NNW,338,0.4,0.4,22,0.00,,---,0.00,VWS V14.01,2013-03-22 06:12:00,
2013-03-22 00:13:00,47.5,11.6,29.75,NNW,338,0.0,0.4,23,0.00,,---,0.00,VWS V14.01,2013-03-22 06:13:00,
2013-03-22 00:14:00,47.3,11.4,29.75,NNW,338,0.0,0.0,23,0.00,,---,0.00,VWS V14.01,2013-03-22 06:14:00,
2013-03-22 00:15:00,47.3,11.4,29.75,NNW,338,0.0,0.0,23,0.00,,---,0.00,VWS V14.01,2013-03-22 06:15:00,
2013-03-22 00:16:00,47.3,11.4,29.75,NNW,338,0.4,0.4,23,0.00,,---,0.00,VWS V14.01,2013-03-22 06:16:00,
2013-03-22 00:17:00,47.2,11.3,29.75,NNW,338,0.2,0.4,23,0.00,,---,0.00,VWS V14.01,2013-03-22 06:17:00,
2013-03-22 00:18:00,47.2,11.3,29.75,NNW,338,0.4,0.4,23,0.00,,---,0.00,VWS V14.01,2013-03-22 06:18:00,
2013-03-22 00:19:00,47.2,11.3,29.75,NNW,338,0.7,0.7,23,0.00,,---,0.00,VWS V14.01,2013-03-22 06:19:00,
2013-03-22 00:20:00,47.2,12.3,29.76,NNW,338,0.7,0.7,24,0.00,,---,0.00,VWS V14.01,2013-03-22 06:20:00,
2013-03-22 00:21:00,47.0,12.1,29.76,NNW,338,0.2,0.7,24,0.00,,---,0.00,VWS V14.01,2013-03-22 06:21:00,
2013-03-22 00:22:00,47.0,12.1,29.76,NNW,338,0.4,0.4,24,0.00,,---,0.00,VWS V14.01,2013-03-22 06:22:00,
2013-03-22 00:23:00,46.8,11.9,29.76,NNW,338,0.7,0.7,24,0.00,,---,0.00,VWS V14.01,2013-03-22 06:23:00,
2013-03-22 00:24:00,46.8,11.9,29.76,NNW,338,0.2,0.7,24,0.00,,---,0.00,VWS V14.01,2013-03-22 06:24:00,
2013-03-22 00:25:00,46.8,11.9,29.76,NNW,338,0.2,0.2,24,0.00,,---,0.00,VWS V14.01,2013-03-22 06:25:00,
2013-03-22 00:26:00,46.8,11.9,29.75,NNW,338,0.4,0.4,24,0.00,,---,0.00,VWS V14.01,2013-03-22 06:26:00,
2013-03-22 00:27:00,46.6,11.8,29.76,NW,315,0.2,0.4,24,0.00,,---,0.00,VWS V14.01,2013-03-22 06:27:00,
2013-03-22 00:28:00,46.6,11.8,29.75,NW,315,0.2,0.2,24,0.00,,---,0.00,VWS V14.01,2013-03-22 06:28:00,
2013-03-22 00:29:00,46.4,11.6,29.75,NW,315,0.4,0.4,24,0.00,,---,0.00,VWS V14.01,2013-03-22 06:29:00,
2013-03-22 00:30:00,46.4,11.6,29.75,NW,315,0.4,0.4,24,0.00,,---,0.00,VWS V14.01,2013-03-22 06:30:00,
2013-03-22 00:31:00,46.4,11.6,29.75,NW,315,0.2,0.2,24,0.00,,---,0.00,VWS V14.01,2013-03-22 06:31:00,
2013-03-22 00:32:00,46.4,11.6,29.76,NW,315,0.2,0.2,24,0.00,,---,0.00,VWS V14.01,2013-03-22 06:32:00,
2013-03-22 00:33:00,46.4,11.6,29.75,WNW,292,0.4,0.4,24,0.00,,---,0.00,VWS V14.01,2013-03-22 06:33:00,
2013-03-22 00:34:00,46.4,11.6,29.76,West,270,1.1,1.1,24,0.00,,---,0.00,VWS V14.01,2013-03-22 06:34:00,
2013-03-22 00:35:00,46.4,11.6,29.76,West,270,1.1,1.1,24,0.00,,---,0.00,VWS V14.01,2013-03-22 06:35:00,
2013-03-22 00:36:00,46.4,11.6,29.75,WNW,292,0.9,0.9,24,0.00,,---,0.00,VWS V14.01,2013-03-22 06:36:00,
2013-03-22 00:37:00,46.4,11.6,29.75,NNW,338,0.2,0.9,24,0.00,,---,0.00,VWS V14.01,2013-03-22 06:37:00,
2013-03-22 00:38:00,46.4,11.6,29.76,NNW,338,0.0,0.2,24,0.00,,---,0.00,VWS V14.01,2013-03-22 06:38:00,
2013-03-22 00:39:00,46.4,11.6,29.76,NNW,338,0.0,0.0,24,0.00,,---,0.00,VWS V14.01,2013-03-22 06:39:00,
2013-03-22 00:40:00,46.4,11.6,29.76,NNW,338,0.0,0.0,24,0.00,,---,0.00,VWS V14.01,2013-03-22 06:40:00,
2013-03-22 00:41:00,46.4,11.6,29.75,NNW,338,0.0,0.0,24,0.00,,---,0.00,VWS V14.01,2013-03-22 06:41:00,
2013-03-22 00:42:00,46.4,11.6,29.76,NNW,338,0.0,0.0,24,0.00,,---,0.00,VWS V14.01,2013-03-22 06:42:00,
2013-03-22 00:43:00,46.3,11.5,29.76,NNW,338,0.0,0.0,24,0.00,,---,0.00,VWS V14.01,2013-03-22 06:43:00,
2013-03-22 00:44:00,46.1,11.3,29.75,NNW,338,0.0,0.0,24,0.00,,---,0.00,VWS V14.01,2013-03-22 06:44:00,
2013-03-22 00:45:00,46.1,11.3,29.75,NNW,338,0.0,0.0,24,0.00,,---,0.00,VWS V14.01,2013-03-22 06:45:00,
2013-03-22 00:46:00,45.9,11.2,29.76,NNW,338,0.0,0.0,24,0.00,,---,0.00,VWS V14.01,2013-03-22 06:46:00,
2013-03-22 00:47:00,45.7,11.0,29.76,NNW,338,0.0,0.0,24,0.00,,---,0.00,VWS V14.01,2013-03-22 06:47:00,
2013-03-22 00:48:00,45.7,11.0,29.76,NNW,338,0.0,0.0,24,0.00,,---,0.00,VWS V14.01,2013-03-22 06:48:00,
2013-03-22 00:49:00,45.5,10.8,29.76,NNW,338,0.0,0.0,24,0.00,,---,0.00,VWS V14.01,2013-03-22 06:49:00,
2013-03-22 00:50:00,45.5,10.8,29.76,NNW,338,0.0,0.0,24,0.00,,---,0.00,VWS V14.01,2013-03-22 06:50:00,
2013-03-22 00:51:00,45.2,10.6,29.76,NNW,338,0.0,0.0,24,0.00,,---,0.00,VWS V14.01,2013-03-22 06:51:00,
2013-03-22 00:52:00,45.0,11.3,29.76,NNW,338,0.0,0.0,25,0.00,,---,0.00,VWS V14.01,2013-03-22 06:52:00,
2013-03-22 00:53:00,45.0,10.4,29.76,NNW,338,0.0,0.0,24,0.00,,---,0.00,VWS V14.01,2013-03-22 06:53:00,
2013-03-22 00:54:00,45.0,10.4,29.76,NNW,338,0.0,0.0,24,0.00,,---,0.00,VWS V14.01,2013-03-22 06:54:00,
2013-03-22 00:55:00,45.0,10.4,29.76,NNW,338,0.0,0.0,24,0.00,,---,0.00,VWS V14.01,2013-03-22 06:55:00,
2013-03-22 00:56:00,44.8,10.2,29.76,NNW,338,0.0,0.0,24,0.00,,---,0.00,VWS V14.01,2013-03-22 06:56:00,
2013-03-22 00:57:00,44.8,10.2,29.76,NNW,338,0.0,0.0,24,0.00,,---,0.00,VWS V14.01,2013-03-22 06:57:00,
2013-03-22 00:58:00,44.8,11.1,29.76,NNW,338,0.0,0.0,25,0.00,,---,0.00,VWS V14.01,2013-03-22 06:58:00,
2013-03-22 00:59:00,44.8,11.1,29.76,NNW,338,0.0,0.0,25,0.00,,---,0.00,VWS V14.01,2013-03-22 06:59:00,
2013-03-22 01:00:00,44.8,11.1,29.76,NNW,338,0.4,0.4,25,0.00,,---,0.00,VWS V14.01,2013-03-22 07:00:00,
2013-03-22 01:01:00,44.8,10.2,29.76,NNW,338,0.2,0.4,24,0.00,,---,0.00,VWS V14.01,2013-03-22 07:01:00,
2013-03-22 01:02:00,44.8,11.1,29.76,NNW,338,0.4,0.4,25,0.00,,---,0.00,VWS V14.01,2013-03-22 07:02:00,
2013-03-22 01:03:00,44.8,11.1,29.76,North,0,0.4,0.4,25,0.00,,---,0.00,VWS V14.01,2013-03-22 07:03:00,
2013-03-22 01:04:00,44.8,11.1,29.76,North,0,0.7,0.7,25,0.00,,---,0.00,VWS V14.01,2013-03-22 07:04:00,
2013-03-22 01:05:00,44.8,11.1,29.76,NNE,22,1.1,1.1,25,0.00,,---,0.00,VWS V14.01,2013-03-22 07:05:00,
2013-03-22 01:06:00,44.8,11.1,29.76,NNE,22,1.1,1.1,25,0.00,,---,0.00,VWS V14.01,2013-03-22 07:06:00,
2013-03-22 01:07:00,44.8,11.1,29.76,NNE,22,1.3,1.3,25,0.00,,---,0.00,VWS V14.01,2013-03-22 07:07:00,
2013-03-22 01:08:00,44.8,11.1,29.76,North,0,1.1,1.3,25,0.00,,---,0.00,VWS V14.01,2013-03-22 07:08:00,
2013-03-22 01:09:00,44.8,11.1,29.76,North,0,1.3,1.3,25,0.00,,---,0.00,VWS V14.01,2013-03-22 07:09:00,
2013-03-22 01:10:00,44.8,11.1,29.76,North,0,1.3,1.3,25,0.00,,---,0.00,VWS V14.01,2013-03-22 07:10:00,
2013-03-22 01:11:00,44.8,11.1,29.76,NNE,22,0.9,1.3,25,0.00,,---,0.00,VWS V14.01,2013-03-22 07:11:00,
2013-03-22 01:12:00,44.8,11.1,29.76,NNE,22,1.3,1.3,25,0.00,,---,0.00,VWS V14.01,2013-03-22 07:12:00,
2013-03-22 01:13:00,44.8,11.1,29.76,NNE,22,1.8,1.8,25,0.00,,---,0.00,VWS V14.01,2013-03-22 07:13:00,
2013-03-22 01:14:00,44.8,11.1,29.76,NNE,22,1.6,1.8,25,0.00,,---,0.00,VWS V14.01,2013-03-22 07:14:00,
2013-03-22 01:15:00,45.0,11.3,29.76,NE,45,0.9,0.9,25,0.00,,---,0.00,VWS V14.01,2013-03-22 07:15:00,
2013-03-22 01:16:00,45.0,11.3,29.76,NNE,22,1.6,1.6,25,0.00,,---,0.00,VWS V14.01,2013-03-22 07:16:00,
2013-03-22 01:17:00,45.0,11.3,29.76,NNE,22,1.1,1.6,25,0.00,,---,0.00,VWS V14.01,2013-03-22 07:17:00,
2013-03-22 01:18:00,45.2,11.5,29.76,NNE,22,1.6,1.6,25,0.00,,---,0.00,VWS V14.01,2013-03-22 07:18:00,
2013-03-22 01:19:00,45.2,11.5,29.76,NNE,22,0.7,1.6,25,0.00,,---,0.00,VWS V14.01,2013-03-22 07:19:00,
2013-03-22 01:20:00,45.2,11.5,29.76,NNE,22,0.9,0.9,25,0.00,,---,0.00,VWS V14.01,2013-03-22 07:20:00,
2013-03-22 01:21:00,45.2,11.5,29.76,NNE,22,1.3,1.3,25,0.00,,---,0.00,VWS V14.01,2013-03-22 07:21:00,
2013-03-22 01:22:00,45.2,11.5,29.76,NNE,22,1.1,1.3,25,0.00,,---,0.00,VWS V14.01,2013-03-22 07:22:00,
2013-03-22 01:23:00,45.2,11.5,29.76,NNE,22,0.4,1.1,25,0.00,,---,0.00,VWS V14.01,2013-03-22 07:23:00,
2013-03-22 01:24:00,45.2,11.5,29.76,NNE,22,0.0,0.4,25,0.00,,---,0.00,VWS V14.01,2013-03-22 07:24:00,
2013-03-22 01:25:00,45.2,11.5,29.76,NNE,22,0.0,0.0,25,0.00,,---,0.00,VWS V14.01,2013-03-22 07:25:00,
2013-03-22 01:26:00,45.0,10.4,29.76,NNE,22,0.0,0.2,24,0.00,,---,0.00,VWS V14.01,2013-03-22 07:26:00,
2013-03-22 01:27:00,45.0,10.4,29.76,NNE,22,0.0,0.0,24,0.00,,---,0.00,VWS V14.01,2013-03-22 07:27:00,
2013-03-22 01:28:00,45.0,10.4,29.76,NNE,22,0.0,0.0,24,0.00,,---,0.00,VWS V14.01,2013-03-22 07:28:00,
2013-03-22 01:29:00,45.0,10.4,29.76,NNE,22,0.0,0.0,24,0.00,,---,0.00,VWS V14.01,2013-03-22 07:29:00,
2013-03-22 01:30:00,45.0,10.4,29.76,NNE,22,0.0,0.0,24,0.00,,---,0.00,VWS V14.01,2013-03-22 07:30:00,
2013-03-22 01:31:00,44.6,10.1,29.76,NNE,22,0.0,0.0,24,0.00,,---,0.00,VWS V14.01,2013-03-22 07:31:00,
2013-03-22 01:32:00,44.6,10.1,29.76,NNE,22,0.0,0.0,24,0.00,,---,0.00,VWS V14.01,2013-03-22 07:32:00,
2013-03-22 01:33:00,44.5,10.0,29.76,NNE,22,0.0,0.0,24,0.00,,---,0.00,VWS V14.01,2013-03-22 07:33:00,
2013-03-22 01:34:00,44.3,9.8,29.76,NNE,22,0.0,0.0,24,0.00,,---,0.00,VWS V14.01,2013-03-22 07:34:00,
2013-03-22 01:35:00,44.3,9.8,29.76,NNE,22,0.0,0.0,24,0.00,,---,0.00,VWS V14.01,2013-03-22 07:35:00,
2013-03-22 01:36:00,44.1,10.5,29.76,North,0,0.0,0.0,25,0.00,,---,0.00,VWS V14.01,2013-03-22 07:36:00,
2013-03-22 01:37:00,43.9,10.4,29.76,North,0,0.0,0.0,25,0.00,,---,0.00,VWS V14.01,2013-03-22 07:37:00,
2013-03-22 01:38:00,43.9,10.4,29.76,North,0,0.0,0.0,25,0.00,,---,0.00,VWS V14.01,2013-03-22 07:38:00,
2013-03-22 01:39:00,43.9,10.4,29.76,North,0,0.4,0.4,25,0.00,,---,0.00,VWS V14.01,2013-03-22 07:39:00,
2013-03-22 01:40:00,43.9,10.4,29.76,North,0,0.4,0.4,25,0.00,,---,0.00,VWS V14.01,2013-03-22 07:40:00,
2013-03-22 01:41:00,43.9,10.4,29.76,North,0,0.4,0.4,25,0.00,,---,0.00,VWS V14.01,2013-03-22 07:41:00,
2013-03-22 01:42:00,43.9,10.4,29.76,North,0,0.4,0.4,25,0.00,,---,0.00,VWS V14.01,2013-03-22 07:42:00,
2013-03-22 01:43:00,43.9,10.4,29.76,North,0,0.0,0.4,25,0.00,,---,0.00,VWS V14.01,2013-03-22 07:43:00,
2013-03-22 01:44:00,43.7,10.2,29.76,North,0,0.0,0.0,25,0.00,,---,0.00,VWS V14.01,2013-03-22 07:44:00,
2013-03-22 01:45:00,43.7,10.2,29.76,North,0,0.0,0.0,25,0.00,,---,0.00,VWS V14.01,2013-03-22 07:45:00,
2013-03-22 01:46:00,43.7,10.2,29.76,North,0,0.4,0.4,25,0.00,,---,0.00,VWS V14.01,2013-03-22 07:46:00,
2013-03-22 01:47:00,43.9,10.4,29.76,North,0,0.4,0.4,25,0.00,,---,0.00,VWS V14.01,2013-03-22 07:47:00,
2013-03-22 01:48:00,43.9,12.1,29.76,NNE,22,1.6,1.6,27,0.00,,---,0.00,VWS V14.01,2013-03-22 07:48:00,
2013-03-22 01:49:00,43.9,12.1,29.76,NNE,22,1.8,1.8,27,0.00,,---,0.00,VWS V14.01,2013-03-22 07:49:00,
2013-03-22 01:50:00,43.9,12.1,29.76,NNE,22,1.8,1.8,27,0.00,,---,0.00,VWS V14.01,2013-03-22 07:50:00,
2013-03-22 01:51:00,44.1,11.4,29.76,NNE,22,1.1,1.6,26,0.00,,---,0.00,VWS V14.01,2013-03-22 07:51:00,
2013-03-22 01:52:00,44.1,11.4,29.76,NNE,22,1.6,1.6,26,0.00,,---,0.00,VWS V14.01,2013-03-22 07:52:00,
2013-03-22 01:53:00,44.1,11.4,29.76,NNE,22,1.1,1.6,26,0.00,,---,0.00,VWS V14.01,2013-03-22 07:53:00,
2013-03-22 01:54:00,44.1,11.4,29.76,NNE,22,0.7,1.1,26,0.00,,---,0.00,VWS V14.01,2013-03-22 07:54:00,
2013-03-22 01:55:00,44.1,11.4,29.76,NNE,22,0.7,0.7,26,0.00,,---,0.00,VWS V14.01,2013-03-22 07:55:00,
2013-03-22 01:56:00,43.9,10.4,29.76,North,0,1.1,1.1,25,0.00,,---,0.00,VWS V14.01,2013-03-22 07:56:00,
2013-03-22 01:57:00,43.9,10.4,29.76,North,0,0.4,1.1,25,0.00,,---,0.00,VWS V14.01,2013-03-22 07:57:00,
2013-03-22 01:58:00,43.9,10.4,29.76,North,0,0.4,0.4,25,0.00,,---,0.00,VWS V14.01,2013-03-22 07:58:00,
2013-03-22 01:59:00,43.9,10.4,29.76,North,0,0.4,0.4,25,0.00,,---,0.00,VWS V14.01,2013-03-22 07:59:00,
2013-03-22 02:00:00,43.9,10.4,29.76,North,0,1.1,1.1,25,0.00,,---,0.00,VWS V14.01,2013-03-22 08:00:00,
2013-03-22 02:01:00,43.9,10.4,29.76,North,0,1.1,1.1,25,0.00,,---,0.00,VWS V14.01,2013-03-22 08:01:00,
2013-03-22 02:02:00,43.9,10.4,29.76,North,0,2.0,2.0,25,0.00,,---,0.00,VWS V14.01,2013-03-22 08:02:00,
2013-03-22 02:03:00,43.9,10.4,29.76,North,0,2.2,2.2,25,0.00,,---,0.00,VWS V14.01,2013-03-22 08:03:00,
2013-03-22 02:04:00,43.9,10.4,29.76,NNE,22,1.8,2.2,25,0.00,,---,0.00,VWS V14.01,2013-03-22 08:04:00,
2013-03-22 02:05:00,43.9,10.4,29.76,NNE,22,1.8,1.8,25,0.00,,---,0.00,VWS V14.01,2013-03-22 08:05:00,
2013-03-22 02:06:00,43.9,10.4,29.76,North,0,3.1,3.1,25,0.00,,---,0.00,VWS V14.01,2013-03-22 08:06:00,
2013-03-22 02:07:00,43.9,10.4,29.76,North,0,3.4,3.4,25,0.00,,---,0.00,VWS V14.01,2013-03-22 08:07:00,
2013-03-22 02:08:00,44.1,10.5,29.76,NNE,22,2.5,3.4,25,0.00,,---,0.00,VWS V14.01,2013-03-22 08:08:00,
2013-03-22 02:09:00,44.1,10.5,29.76,North,0,1.8,2.5,25,0.00,,---,0.00,VWS V14.01,2013-03-22 08:09:00,
2013-03-22 02:10:00,44.1,10.5,29.76,North,0,2.5,2.5,25,0.00,,---,0.00,VWS V14.01,2013-03-22 08:10:00,
2013-03-22 02:11:00,44.3,10.7,29.76,North,0,0.4,2.5,25,0.00,,---,0.00,VWS V14.01,2013-03-22 08:11:00,
2013-03-22 02:12:00,44.3,10.7,29.76,North,0,0.7,0.7,25,0.00,,---,0.00,VWS V14.01,2013-03-22 08:12:00,
2013-03-22 02:13:00,44.3,10.7,29.76,North,0,0.9,0.9,25,0.00,,---,0.00,VWS V14.01,2013-03-22 08:13:00,
2013-03-22 02:14:00,44.3,10.7,29.76,NNW,338,0.2,0.9,25,0.00,,---,0.00,VWS V14.01,2013-03-22 08:14:00,
2013-03-22 02:15:00,44.3,10.7,29.75,NNW,338,0.4,0.4,25,0.00,,---,0.00,VWS V14.01,2013-03-22 08:15:00,
2013-03-22 02:16:00,44.3,10.7,29.75,NNW,338,0.4,0.4,25,0.00,,---,0.00,VWS V14.01,2013-03-22 08:16:00,
2013-03-22 02:17:00,44.3,10.7,29.75,NNW,338,0.2,0.4,25,0.00,,---,0.00,VWS V14.01,2013-03-22 08:17:00,
2013-03-22 02:18:00,44.3,10.7,29.75,North,0,0.2,0.2,25,0.00,,---,0.00,VWS V14.01,2013-03-22 08:18:00,
2013-03-22 02:19:00,44.3,10.7,29.75,NNW,338,0.4,0.4,25,0.00,,---,0.00,VWS V14.01,2013-03-22 08:19:00,
2013-03-22 02:20:00,44.3,10.7,29.75,NNW,338,0.9,0.9,25,0.00,,---,0.00,VWS V14.01,2013-03-22 08:20:00,
2013-03-22 02:21:00,44.3,10.7,29.75,North,0,0.7,0.9,25,0.00,,---,0.00,VWS V14.01,2013-03-22 08:21:00,
2013-03-22 02:22:00,44.3,10.7,29.75,NNW,338,0.4,0.7,25,0.00,,---,0.00,VWS V14.01,2013-03-22 08:22:00,
2013-03-22 02:23:00,44.3,10.7,29.75,NW,315,0.7,0.7,25,0.00,,---,0.00,VWS V14.01,2013-03-22 08:23:00,
2013-03-22 02:24:00,44.3,10.7,29.75,NNW,338,0.4,0.7,25,0.00,,---,0.00,VWS V14.01,2013-03-22 08:24:00,
2013-03-22 02:25:00,44.3,9.8,29.76,NNW,338,0.4,0.4,24,0.00,,---,0.00,VWS V14.01,2013-03-22 08:25:00,
2013-03-22 02:26:00,44.3,9.8,29.76,NNW,338,0.2,0.4,24,0.00,,---,0.00,VWS V14.01,2013-03-22 08:26:00,
2013-03-22 02:27:00,44.5,10.9,29.76,NNW,338,0.4,0.4,25,0.00,,---,0.00,VWS V14.01,2013-03-22 08:27:00,
2013-03-22 02:28:00,44.5,10.9,29.76,NNW,338,0.0,0.4,25,0.00,,---,0.00,VWS V14.01,2013-03-22 08:28:00,
2013-03-22 02:29:00,44.6,11.0,29.76,West,270,0.0,0.0,25,0.00,,---,0.00,VWS V14.01,2013-03-22 08:29:00,
2013-03-22 02:30:00,44.6,11.0,29.76,West,270,0.0,0.0,25,0.00,,---,0.00,VWS V14.01,2013-03-22 08:30:00,
2013-03-22 02:31:00,44.6,11.0,29.76,West,270,0.0,0.2,25,0.00,,---,0.00,VWS V14.01,2013-03-22 08:31:00,
2013-03-22 02:32:00,44.6,11.0,29.76,West,270,0.0,0.0,25,0.00,,---,0.00,VWS V14.01,2013-03-22 08:32:00,
2013-03-22 02:33:00,44.5,10.9,29.76,West,270,0.0,0.0,25,0.00,,---,0.00,VWS V14.01,2013-03-22 08:33:00,
2013-03-22 02:34:00,44.5,10.0,29.76,West,270,0.0,0.0,24,0.00,,---,0.00,VWS V14.01,2013-03-22 08:34:00,
2013-03-22 02:35:00,44.5,10.0,29.76,West,270,0.0,0.0,24,0.00,,---,0.00,VWS V14.01,2013-03-22 08:35:00,
2013-03-22 02:36:00,44.3,9.8,29.76,West,270,0.0,0.0,24,0.00,,---,0.00,VWS V14.01,2013-03-22 08:36:00,
2013-03-22 02:37:00,44.3,9.8,29.76,West,270,0.0,0.0,24,0.00,,---,0.00,VWS V14.01,2013-03-22 08:37:00,
2013-03-22 02:38:00,44.1,9.6,29.76,West,270,0.0,0.0,24,0.00,,---,0.00,VWS V14.01,2013-03-22 08:38:00,
2013-03-22 02:39:00,43.9,10.4,29.76,West,270,0.0,0.0,25,0.00,,---,0.00,VWS V14.01,2013-03-22 08:39:00,
2013-03-22 02:40:00,43.9,10.4,29.76,West,270,0.0,0.0,25,0.00,,---,0.00,VWS V14.01,2013-03-22 08:40:00,
2013-03-22 02:41:00,43.9,10.4,29.76,SSE,158,0.4,0.4,25,0.00,,---,0.00,VWS V14.01,2013-03-22 08:41:00,
2013-03-22 02:42:00,43.7,10.2,29.76,SSE,158,0.4,0.4,25,0.00,,---,0.00,VWS V14.01,2013-03-22 08:42:00,
2013-03-22 02:43:00,43.7,10.2,29.76,SSE,158,0.2,0.4,25,0.00,,---,0.00,VWS V14.01,2013-03-22 08:43:00,
2013-03-22 02:44:00,43.7,10.2,29.76,SSE,158,0.7,0.7,25,0.00,,---,0.00,VWS V14.01,2013-03-22 08:44:00,
2013-03-22 02:45:00,43.7,10.2,29.76,SSE,158,0.7,0.7,25,0.00,,---,0.00,VWS V14.01,2013-03-22 08:45:00,
2013-03-22 02:46:00,43.6,10.1,29.76,SSE,158,0.0,0.2,25,0.00,,---,0.00,VWS V14.01,2013-03-22 08:46:00,
2013-03-22 02:47:00,43.6,10.1,29.76,SSE,158,0.0,0.0,25,0.00,,---,0.00,VWS V14.01,2013-03-22 08:47:00,
2013-03-22 02:49:00,43.6,10.1,29.76,ESE,112,0.4,0.4,25,0.00,,---,0.00,VWS V14.01,2013-03-22 08:49:00,
2013-03-22 02:50:00,43.6,10.1,29.76,ESE,112,0.4,0.4,25,0.00,,---,0.00,VWS V14.01,2013-03-22 08:50:00,
2013-03-22 02:51:00,43.4,9.9,29.76,ENE,68,0.7,0.7,25,0.00,,---,0.00,VWS V14.01,2013-03-22 08:51:00,
2013-03-22 02:52:00,43.2,10.6,29.76,East,90,0.4,0.7,26,0.00,,---,0.00,VWS V14.01,2013-03-22 08:52:00,
2013-03-22 02:53:00,43.2,9.8,29.76,ENE,68,0.0,0.4,25,0.00,,---,0.00,VWS V14.01,2013-03-22 08:53:00,
2013-03-22 02:54:00,43.0,9.6,29.76,ENE,68,0.0,0.0,25,0.00,,---,0.00,VWS V14.01,2013-03-22 08:54:00,
2013-03-22 02:55:00,43.0,9.6,29.76,ENE,68,0.0,0.0,25,0.00,,---,0.00,VWS V14.01,2013-03-22 08:55:00,
2013-03-22 02:56:00,42.8,9.4,29.76,ENE,68,0.0,0.0,25,0.00,,---,0.00,VWS V14.01,2013-03-22 08:56:00,
2013-03-22 02:57:00,42.8,9.4,29.75,ENE,68,0.0,0.0,25,0.00,,---,0.00,VWS V14.01,2013-03-22 08:57:00,
2013-03-22 02:58:00,42.7,9.3,29.76,ENE,68,0.0,0.0,25,0.00,,---,0.00,VWS V14.01,2013-03-22 08:58:00,
2013-03-22 02:59:00,42.5,9.2,29.76,ENE,68,0.0,0.0,25,0.00,,---,0.00,VWS V14.01,2013-03-22 08:59:00,
2013-03-22 03:00:00,42.5,9.2,29.76,ENE,68,0.0,0.0,25,0.00,,---,0.00,VWS V14.01,2013-03-22 09:00:00,
2013-03-22 03:01:00,42.3,9.0,29.76,ENE,68,0.0,0.0,25,0.00,,---,0.00,VWS V14.01,2013-03-22 09:01:00,
2013-03-22 03:02:00,42.1,8.8,29.75,ENE,68,0.0,0.0,25,0.00,,---,0.00,VWS V14.01,2013-03-22 09:02:00,
2013-03-22 03:03:00,42.1,8.8,29.76,ENE,68,0.0,0.0,25,0.00,,---,0.00,VWS V14.01,2013-03-22 09:03:00,
2013-03-22 03:04:00,41.9,9.5,29.75,ENE,68,0.2,0.2,26,0.00,,---,0.00,VWS V14.01,2013-03-22 09:04:00,
2013-03-22 03:05:00,41.8,10.3,29.76,ENE,68,0.0,0.0,27,0.00,,---,0.00,VWS V14.01,2013-03-22 09:05:00,
2013-03-22 03:06:00,41.8,10.3,29.75,ENE,68,0.0,0.0,27,0.00,,---,0.00,VWS V14.01,2013-03-22 09:06:00,
2013-03-22 03:07:00,41.8,10.3,29.75,ENE,68,0.0,0.0,27,0.00,,---,0.00,VWS V14.01,2013-03-22 09:07:00,
2013-03-22 03:08:00,41.8,10.3,29.75,ENE,68,0.0,0.0,27,0.00,,---,0.00,VWS V14.01,2013-03-22 09:08:00,
2013-03-22 03:09:00,41.8,10.3,29.76,ENE,68,0.0,0.0,27,0.00,,---,0.00,VWS V14.01,2013-03-22 09:09:00,
2013-03-22 03:10:00,41.8,10.3,29.76,ENE,68,0.0,0.0,27,0.00,,---,0.00,VWS V14.01,2013-03-22 09:10:00,
2013-03-22 03:11:00,41.8,10.3,29.76,ENE,68,0.0,0.0,27,0.00,,---,0.00,VWS V14.01,2013-03-22 09:11:00,
2013-03-22 03:12:00,41.6,10.1,29.76,ENE,68,0.0,0.0,27,0.00,,---,0.00,VWS V14.01,2013-03-22 09:12:00,
2013-03-22 03:13:00,41.6,10.1,29.76,East,90,0.0,0.0,27,0.00,,---,0.00,VWS V14.01,2013-03-22 09:13:00,
2013-03-22 03:14:00,41.6,10.1,29.76,East,90,0.0,0.0,27,0.00,,---,0.00,VWS V14.01,2013-03-22 09:14:00,
2013-03-22 03:15:00,41.6,10.1,29.75,East,90,0.2,0.2,27,0.00,,---,0.00,VWS V14.01,2013-03-22 09:15:00,
2013-03-22 03:16:00,41.4,10.8,29.76,East,90,0.0,0.2,28,0.00,,---,0.00,VWS V14.01,2013-03-22 09:16:00,
2013-03-22 03:17:00,41.6,10.9,29.76,East,90,0.0,0.0,28,0.00,,---,0.00,VWS V14.01,2013-03-22 09:17:00,
2013-03-22 03:18:00,41.6,10.9,29.76,East,90,0.0,0.0,28,0.00,,---,0.00,VWS V14.01,2013-03-22 09:18:00,
2013-03-22 03:19:00,41.4,10.8,29.75,East,90,0.2,0.2,28,0.00,,---,0.00,VWS V14.01,2013-03-22 09:19:00,
2013-03-22 03:20:00,41.6,10.9,29.76,East,90,0.2,0.2,28,0.00,,---,0.00,VWS V14.01,2013-03-22 09:20:00,
2013-03-22 03:21:00,41.6,10.9,29.76,East,90,0.0,0.2,28,0.00,,---,0.00,VWS V14.01,2013-03-22 09:21:00,
2013-03-22 03:22:00,41.8,11.1,29.76,East,90,0.0,0.0,28,0.00,,---,0.00,VWS V14.01,2013-03-22 09:22:00,
2013-03-22 03:23:00,41.8,11.1,29.76,East,90,0.2,0.2,28,0.00,,---,0.00,VWS V14.01,2013-03-22 09:23:00,
2013-03-22 03:24:00,41.9,10.4,29.75,East,90,0.0,0.2,27,0.00,,---,0.00,VWS V14.01,2013-03-22 09:24:00,
2013-03-22 03:25:00,41.9,10.4,29.75,East,90,0.0,0.0,27,0.00,,---,0.00,VWS V14.01,2013-03-22 09:25:00,
2013-03-22 03:26:00,41.8,10.3,29.75,East,90,0.0,0.0,27,0.00,,---,0.00,VWS V14.01,2013-03-22 09:26:00,
2013-03-22 03:27:00,41.6,10.1,29.75,East,90,0.0,0.0,27,0.00,,---,0.00,VWS V14.01,2013-03-22 09:27:00,
2013-03-22 03:28:00,41.6,10.1,29.75,East,90,0.0,0.0,27,0.00,,---,0.00,VWS V14.01,2013-03-22 09:28:00,
2013-03-22 03:29:00,41.4,9.9,29.76,East,90,0.0,0.0,27,0.00,,---,0.00,VWS V14.01,2013-03-22 09:29:00,
2013-03-22 03:30:00,41.4,9.9,29.76,East,90,0.0,0.0,27,0.00,,---,0.00,VWS V14.01,2013-03-22 09:30:00,
2013-03-22 03:31:00,41.4,9.9,29.75,South,180,0.0,0.4,27,0.00,,---,0.00,VWS V14.01,2013-03-22 09:31:00,
2013-03-22 03:32:00,41.2,10.6,29.75,South,180,0.0,0.0,28,0.00,,---,0.00,VWS V14.01,2013-03-22 09:32:00,
2013-03-22 03:33:00,41.0,9.6,29.75,ENE,68,0.4,0.4,27,0.00,,---,0.00,VWS V14.01,2013-03-22 09:33:00,
2013-03-22 03:34:00,41.0,10.4,29.75,ENE,68,0.2,0.4,28,0.00,,---,0.00,VWS V14.01,2013-03-22 09:34:00,
2013-03-22 03:35:00,41.0,10.4,29.75,ENE,68,0.2,0.2,28,0.00,,---,0.00,VWS V14.01,2013-03-22 09:35:00,
2013-03-22 03:36:00,41.0,11.2,29.75,ENE,68,0.2,0.4,29,0.00,,---,0.00,VWS V14.01,2013-03-22 09:36:00,
2013-03-22 03:37:00,41.0,10.4,29.75,ENE,68,0.0,0.2,28,0.00,,---,0.00,VWS V14.01,2013-03-22 09:37:00,
2013-03-22 03:38:00,41.0,10.4,29.75,NNE,22,0.4,0.4,28,0.00,,---,0.00,VWS V14.01,2013-03-22 09:38:00,
2013-03-22 03:39:00,41.0,11.2,29.75,North,0,2.5,2.5,29,0.00,,---,0.00,VWS V14.01,2013-03-22 09:39:00,
2013-03-22 03:40:00,41.0,11.2,29.75,North,0,2.5,2.5,29,0.00,,---,0.00,VWS V14.01,2013-03-22 09:40:00,
2013-03-22 03:41:00,40.9,11.1,29.75,East,90,0.4,1.1,29,0.00,,---,0.00,VWS V14.01,2013-03-22 09:41:00,
2013-03-22 03:42:00,41.0,11.2,29.75,ESE,112,0.4,0.4,29,0.00,,---,0.00,VWS V14.01,2013-03-22 09:42:00,
2013-03-22 03:43:00,41.2,11.4,29.75,ESE,112,0.2,0.4,29,0.00,,---,0.00,VWS V14.01,2013-03-22 09:43:00,
2013-03-22 03:44:00,41.4,10.8,29.75,ESE,112,0.2,0.2,28,0.00,,---,0.00,VWS V14.01,2013-03-22 09:44:00,
2013-03-22 03:45:00,41.4,10.8,29.75,ESE,112,0.2,0.2,28,0.00,,---,0.00,VWS V14.01,2013-03-22 09:45:00,
2013-03-22 03:46:00,41.4,11.5,29.75,NNE,22,1.6,1.6,29,0.00,,---,0.00,VWS V14.01,2013-03-22 09:46:00,
2013-03-22 03:47:00,41.4,11.5,29.75,NE,45,0.7,1.6,29,0.00,,---,0.00,VWS V14.01,2013-03-22 09:47:00,
2013-03-22 03:48:00,41.4,11.5,29.75,NE,45,0.4,0.7,29,0.00,,---,0.00,VWS V14.01,2013-03-22 09:48:00,
2013-03-22 03:49:00,41.4,10.8,29.75,NE,45,0.7,0.7,28,0.00,,---,0.00,VWS V14.01,2013-03-22 09:49:00,
2013-03-22 03:50:00,41.4,10.8,29.75,NE,45,0.7,0.7,28,0.00,,---,0.00,VWS V14.01,2013-03-22 09:50:00,
2013-03-22 03:51:00,41.0,11.2,29.75,NE,45,0.7,1.6,29,0.00,,---,0.00,VWS V14.01,2013-03-22 09:51:00,
2013-03-22 03:52:00,41.0,11.2,29.75,ENE,68,0.9,0.9,29,0.00,,---,0.00,VWS V14.01,2013-03-22 09:52:00,
2013-03-22 03:53:00,40.9,11.1,29.75,ENE,68,0.2,0.9,29,0.00,,---,0.00,VWS V14.01,2013-03-22 09:53:00,
2013-03-22 03:54:00,40.9,11.1,29.75,ENE,68,0.0,0.2,29,0.00,,---,0.00,VWS V14.01,2013-03-22 09:54:00,
2013-03-22 03:55:00,40.9,11.1,29.75,ENE,68,0.0,0.0,29,0.00,,---,0.00,VWS V14.01,2013-03-22 09:55:00,
2013-03-22 03:56:00,40.9,11.1,29.75,NE,45,1.1,2.0,29,0.00,,---,0.00,VWS V14.01,2013-03-22 09:56:00,
2013-03-22 03:57:00,40.7,10.9,29.75,NE,45,0.2,1.1,29,0.00,,---,0.00,VWS V14.01,2013-03-22 09:57:00,
2013-03-22 03:58:00,40.7,10.9,29.75,NE,45,0.2,0.2,29,0.00,,---,0.00,VWS V14.01,2013-03-22 09:58:00,
2013-03-22 03:59:00,40.7,10.9,29.75,NE,45,0.2,0.2,29,0.00,,---,0.00,VWS V14.01,2013-03-22 09:59:00,
2013-03-22 04:00:00,40.7,10.9,29.75,NE,45,0.2,0.2,29,0.00,,---,0.00,VWS V14.01,2013-03-22 10:00:00,
2013-03-22 04:01:00,40.7,10.9,29.75,NE,45,0.4,0.4,29,0.00,,---,0.00,VWS V14.01,2013-03-22 10:01:00,
2013-03-22 04:02:00,40.7,10.9,29.75,NE,45,0.7,0.7,29,0.00,,---,0.00,VWS V14.01,2013-03-22 10:02:00,
2013-03-22 04:03:00,40.7,10.9,29.75,NE,45,0.4,0.7,29,0.00,,---,0.00,VWS V14.01,2013-03-22 10:03:00,
2013-03-22 04:04:00,40.7,10.9,29.75,ENE,68,1.8,1.8,29,0.00,,---,0.00,VWS V14.01,2013-03-22 10:04:00,
2013-03-22 04:05:00,40.7,10.9,29.75,ENE,68,2.0,2.0,29,0.00,,---,0.00,VWS V14.01,2013-03-22 10:05:00,
2013-03-22 04:06:00,40.9,10.3,29.75,ENE,68,0.4,2.0,28,0.00,,---,0.00,VWS V14.01,2013-03-22 10:06:00,
2013-03-22 04:07:00,41.0,10.4,29.75,ENE,68,2.2,2.2,28,0.00,,---,0.00,VWS V14.01,2013-03-22 10:07:00,
2013-03-22 04:08:00,41.2,10.6,29.75,ENE,68,1.1,2.2,28,0.00,,---,0.00,VWS V14.01,2013-03-22 10:08:00,
2013-03-22 04:09:00,41.4,10.8,29.75,ENE,68,1.1,1.1,28,0.00,,---,0.00,VWS V14.01,2013-03-22 10:09:00,
2013-03-22 04:10:00,41.4,10.8,29.75,ENE,68,1.3,1.3,28,0.00,,---,0.00,VWS V14.01,2013-03-22 10:10:00,
2013-03-22 04:11:00,41.6,10.9,29.75,ENE,68,1.3,1.3,28,0.00,,---,0.00,VWS V14.01,2013-03-22 10:11:00,
2013-03-22 04:12:00,41.6,10.1,29.75,ENE,68,0.9,1.3,27,0.00,,---,0.00,VWS V14.01,2013-03-22 10:12:00,
2013-03-22 04:13:00,41.6,10.9,29.75,ENE,68,0.9,0.9,28,0.00,,---,0.00,VWS V14.01,2013-03-22 10:13:00,
2013-03-22 04:14:00,41.6,10.9,29.75,ENE,68,0.7,0.9,28,0.00,,---,0.00,VWS V14.01,2013-03-22 10:14:00,
2013-03-22 04:15:00,41.6,10.9,29.75,ENE,68,0.7,0.7,28,0.00,,---,0.00,VWS V14.01,2013-03-22 10:15:00,
2013-03-22 04:16:00,41.6,10.1,29.75,ENE,68,0.4,0.4,27,0.00,,---,0.00,VWS V14.01,2013-03-22 10:16:00,
2013-03-22 04:17:00,41.4,10.8,29.75,ENE,68,0.2,0.4,28,0.00,,---,0.00,VWS V14.01,2013-03-22 10:17:00,
2013-03-22 04:18:00,41.4,10.8,29.75,ENE,68,0.4,0.4,28,0.00,,---,0.00,VWS V14.01,2013-03-22 10:18:00,
2013-03-22 04:19:00,41.2,10.6,29.75,ENE,68,0.0,0.4,28,0.00,,---,0.00,VWS V14.01,2013-03-22 10:19:00,
2013-03-22 04:20:00,41.2,10.6,29.75,ENE,68,0.0,0.0,28,0.00,,---,0.00,VWS V14.01,2013-03-22 10:20:00,
2013-03-22 04:21:00,40.7,10.1,29.75,ENE,68,0.0,0.2,28,0.00,,---,0.00,VWS V14.01,2013-03-22 10:21:00,
2013-03-22 04:22:00,40.7,10.1,29.75,ENE,68,0.0,0.0,28,0.00,,---,0.00,VWS V14.01,2013-03-22 10:22:00,
2013-03-22 04:23:00,40.5,10.0,29.75,ENE,68,0.0,0.0,28,0.00,,---,0.00,VWS V14.01,2013-03-22 10:23:00,
2013-03-22 04:24:00,40.3,9.8,29.75,ENE,68,0.0,0.0,28,0.00,,---,0.00,VWS V14.01,2013-03-22 10:24:00,
2013-03-22 04:25:00,40.3,9.8,29.75,ENE,68,0.0,0.0,28,0.00,,---,0.00,VWS V14.01,2013-03-22 10:25:00,
2013-03-22 04:26:00,40.0,9.5,29.75,ENE,68,0.0,0.2,28,0.00,,---,0.00,VWS V14.01,2013-03-22 10:26:00,
2013-03-22 04:27:00,40.0,9.5,29.75,ENE,68,0.0,0.0,28,0.00,,---,0.00,VWS V14.01,2013-03-22 10:27:00,
2013-03-22 04:28:00,39.8,10.1,29.75,ENE,68,0.0,0.0,29,0.00,,---,0.00,VWS V14.01,2013-03-22 10:28:00,
2013-03-22 04:29:00,39.6,10.0,29.75,NE,45,0.4,0.4,29,0.00,,---,0.00,VWS V14.01,2013-03-22 10:29:00,
2013-03-22 04:30:00,39.6,10.0,29.75,NE,45,0.4,0.4,29,0.00,,---,0.00,VWS V14.01,2013-03-22 10:30:00,
2013-03-22 04:31:00,39.4,9.8,29.75,NNE,22,0.4,0.4,29,0.00,,---,0.00,VWS V14.01,2013-03-22 10:31:00,
2013-03-22 04:32:00,39.4,9.8,29.75,North,0,0.2,0.4,29,0.00,,---,0.00,VWS V14.01,2013-03-22 10:32:00,
2013-03-22 04:33:00,39.4,9.8,29.75,North,0,0.7,0.7,29,0.00,,---,0.00,VWS V14.01,2013-03-22 10:33:00,
2013-03-22 04:34:00,39.4,9.8,29.75,North,0,2.5,2.5,29,0.00,,---,0.00,VWS V14.01,2013-03-22 10:34:00,
2013-03-22 04:35:00,39.4,9.8,29.75,North,0,2.5,2.5,29,0.00,,---,0.00,VWS V14.01,2013-03-22 10:35:00,
2013-03-22 04:36:00,39.6,10.0,29.75,North,0,0.4,2.9,29,0.00,,---,0.00,VWS V14.01,2013-03-22 10:36:00,
2013-03-22 04:37:00,39.6,10.0,29.75,North,0,0.4,0.4,29,0.00,,---,0.00,VWS V14.01,2013-03-22 10:37:00,
2013-03-22 04:38:00,39.6,10.0,29.75,NNW,338,0.2,0.4,29,0.00,,---,0.00,VWS V14.01,2013-03-22 10:38:00,
2013-03-22 04:39:00,39.6,10.0,29.75,NNW,338,0.0,0.2,29,0.00,,---,0.00,VWS V14.01,2013-03-22 10:39:00,
2013-03-22 04:40:00,39.6,10.0,29.75,NNW,338,0.0,0.0,29,0.00,,---,0.00,VWS V14.01,2013-03-22 10:40:00,
2013-03-22 04:41:00,39.4,9.8,29.75,NNW,338,0.0,0.0,29,0.00,,---,0.00,VWS V14.01,2013-03-22 10:41:00,
2013-03-22 04:42:00,39.4,9.8,29.75,NNW,338,0.0,0.0,29,0.00,,---,0.00,VWS V14.01,2013-03-22 10:42:00,
2013-03-22 04:43:00,39.2,9.6,29.75,NNW,338,0.0,0.0,29,0.00,,---,0.00,VWS V14.01,2013-03-22 10:43:00,
2013-03-22 04:44:00,39.2,9.6,29.75,NNW,338,0.0,0.0,29,0.00,,---,0.00,VWS V14.01,2013-03-22 10:44:00,
2013-03-22 04:45:00,39.2,9.6,29.75,NNW,338,0.0,0.0,29,0.00,,---,0.00,VWS V14.01,2013-03-22 10:45:00,
2013-03-22 04:46:00,38.9,9.4,29.75,NNW,338,0.2,0.2,29,0.00,,---,0.00,VWS V14.01,2013-03-22 10:46:00,
2013-03-22 04:47:00,38.9,9.4,29.75,NNW,338,0.4,0.4,29,0.00,,---,0.00,VWS V14.01,2013-03-22 10:47:00,
2013-03-22 04:48:00,38.9,9.4,29.75,NNW,338,0.0,0.4,29,0.00,,---,0.00,VWS V14.01,2013-03-22 10:48:00,
2013-03-22 04:49:00,39.1,9.5,29.75,NNW,338,0.2,0.2,29,0.00,,---,0.00,VWS V14.01,2013-03-22 10:49:00,
2013-03-22 04:50:00,39.1,9.5,29.75,NNW,338,0.2,0.2,29,0.00,,---,0.00,VWS V14.01,2013-03-22 10:50:00,
2013-03-22 04:51:00,39.1,9.5,29.75,North,0,0.2,0.2,29,0.00,,---,0.00,VWS V14.01,2013-03-22 10:51:00,
2013-03-22 04:52:00,39.1,9.5,29.75,NNW,338,0.2,0.2,29,0.00,,---,0.00,VWS V14.01,2013-03-22 10:52:00,
2013-03-22 04:53:00,39.1,9.5,29.75,NNW,338,0.0,0.2,29,0.00,,---,0.00,VWS V14.01,2013-03-22 10:53:00,
2013-03-22 04:54:00,39.1,9.5,29.75,NNW,338,0.0,0.0,29,0.00,,---,0.00,VWS V14.01,2013-03-22 10:54:00,
2013-03-22 04:55:00,39.1,9.5,29.75,NNW,338,0.0,0.0,29,0.00,,---,0.00,VWS V14.01,2013-03-22 10:55:00,
2013-03-22 04:56:00,39.1,9.5,29.75,NNW,338,0.0,0.0,29,0.00,,---,0.00,VWS V14.01,2013-03-22 10:56:00,
2013-03-22 04:57:00,39.1,9.5,29.75,NNW,338,0.0,0.0,29,0.00,,---,0.00,VWS V14.01,2013-03-22 10:57:00,
2013-03-22 04:58:00,39.1,9.5,29.75,NNW,338,0.4,0.4,29,0.00,,---,0.00,VWS V14.01,2013-03-22 10:58:00,
2013-03-22 04:59:00,39.1,9.5,29.75,NNW,338,0.0,0.4,29,0.00,,---,0.00,VWS V14.01,2013-03-22 10:59:00,
2013-03-22 05:00:00,39.1,9.5,29.75,NNW,338,0.0,0.0,29,0.00,,---,0.00,VWS V14.01,2013-03-22 11:00:00,
2013-03-22 05:01:00,39.1,9.5,29.75,NNW,338,0.0,0.0,29,0.00,,---,0.00,VWS V14.01,2013-03-22 11:01:00,
2013-03-22 05:02:00,39.1,9.5,29.75,NNW,338,0.0,0.0,29,0.00,,---,0.00,VWS V14.01,2013-03-22 11:02:00,
2013-03-22 05:03:00,39.1,9.5,29.75,NE,45,0.0,0.0,29,0.00,,---,0.00,VWS V14.01,2013-03-22 11:03:00,
2013-03-22 05:04:00,39.2,9.6,29.75,ENE,68,0.4,0.4,29,0.00,,---,0.00,VWS V14.01,2013-03-22 11:04:00,
2013-03-22 05:05:00,39.2,9.6,29.75,ENE,68,0.4,0.4,29,0.00,,---,0.00,VWS V14.01,2013-03-22 11:05:00,
2013-03-22 05:06:00,39.2,9.6,29.75,East,90,0.4,0.4,29,0.00,,---,0.00,VWS V14.01,2013-03-22 11:06:00,
2013-03-22 05:07:00,39.2,9.6,29.75,East,90,0.4,0.4,29,0.00,,---,0.00,VWS V14.01,2013-03-22 11:07:00,
2013-03-22 05:08:00,39.2,9.6,29.75,East,90,0.2,0.4,29,0.00,,---,0.00,VWS V14.01,2013-03-22 11:08:00,
2013-03-22 05:09:00,39.2,9.6,29.75,East,90,0.2,0.2,29,0.00,,---,0.00,VWS V14.01,2013-03-22 11:09:00,
2013-03-22 05:10:00,39.2,9.6,29.75,East,90,0.2,0.2,29,0.00,,---,0.00,VWS V14.01,2013-03-22 11:10:00,
2013-03-22 05:11:00,39.2,9.6,29.76,ESE,112,0.4,0.7,29,0.00,,---,0.00,VWS V14.01,2013-03-22 11:11:00,
2013-03-22 05:12:00,39.2,9.6,29.75,ESE,112,0.7,0.7,29,0.00,,---,0.00,VWS V14.01,2013-03-22 11:12:00,
2013-03-22 05:13:00,39.2,9.6,29.75,ESE,112,0.2,0.7,29,0.00,,---,0.00,VWS V14.01,2013-03-22 11:13:00,
2013-03-22 05:14:00,39.2,9.6,29.75,ESE,112,0.2,0.2,29,0.00,,---,0.00,VWS V14.01,2013-03-22 11:14:00,
2013-03-22 05:15:00,39.2,9.6,29.75,ESE,112,0.2,0.2,29,0.00,,---,0.00,VWS V14.01,2013-03-22 11:15:00,
2013-03-22 05:16:00,39.1,9.5,29.75,ESE,112,0.2,0.2,29,0.00,,---,0.00,VWS V14.01,2013-03-22 11:16:00,
2013-03-22 05:17:00,39.1,9.5,29.75,ESE,112,0.7,0.7,29,0.00,,---,0.00,VWS V14.01,2013-03-22 11:17:00,
2013-03-22 05:18:00,39.1,9.5,29.75,ESE,112,0.4,0.7,29,0.00,,---,0.00,VWS V14.01,2013-03-22 11:18:00,
2013-03-22 05:19:00,39.2,9.6,29.75,ESE,112,0.4,0.4,29,0.00,,---,0.00,VWS V14.01,2013-03-22 11:19:00,
2013-03-22 05:20:00,39.2,9.6,29.75,ESE,112,0.4,0.4,29,0.00,,---,0.00,VWS V14.01,2013-03-22 11:20:00,
2013-03-22 05:21:00,39.2,8.9,29.76,ESE,112,0.7,0.7,28,0.00,,---,0.00,VWS V14.01,2013-03-22 11:21:00,
2013-03-22 05:22:00,39.6,10.0,29.76,ESE,112,0.2,0.7,29,0.00,,---,0.00,VWS V14.01,2013-03-22 11:22:00,
2013-03-22 05:23:00,39.6,10.0,29.76,ESE,112,0.4,0.4,29,0.00,,---,0.00,VWS V14.01,2013-03-22 11:23:00,
2013-03-22 05:24:00,39.8,9.4,29.75,East,90,0.7,0.7,28,0.00,,---,0.00,VWS V14.01,2013-03-22 11:24:00,
2013-03-22 05:25:00,39.8,9.4,29.75,East,90,0.7,0.7,28,0.00,,---,0.00,VWS V14.01,2013-03-22 11:25:00,
2013-03-22 05:26:00,40.0,9.5,29.75,East,90,0.4,0.4,28,0.00,,---,0.00,VWS V14.01,2013-03-22 11:26:00,
2013-03-22 05:27:00,40.0,9.5,29.75,East,90,0.4,0.4,28,0.00,,---,0.00,VWS V14.01,2013-03-22 11:27:00,
2013-03-22 05:28:00,40.0,9.5,29.75,ENE,68,0.7,0.7,28,0.00,,---,0.00,VWS V14.01,2013-03-22 11:28:00,
2013-03-22 05:29:00,40.0,9.5,29.76,ENE,68,0.4,0.7,28,0.00,,---,0.00,VWS V14.01,2013-03-22 11:29:00,
2013-03-22 05:30:00,40.0,9.5,29.76,ENE,68,0.4,0.4,28,0.00,,---,0.00,VWS V14.01,2013-03-22 11:30:00,
2013-03-22 05:31:00,39.8,9.4,29.76,ENE,68,0.0,0.0,28,0.00,,---,0.00,VWS V14.01,2013-03-22 11:31:00,
2013-03-22 05:32:00,39.8,9.4,29.76,ENE,68,0.0,0.0,28,0.00,,---,0.00,VWS V14.01,2013-03-22 11:32:00,
2013-03-22 05:33:00,39.6,9.2,29.76,ENE,68,0.0,0.0,28,0.00,,---,0.00,VWS V14.01,2013-03-22 11:33:00,
2013-03-22 05:34:00,39.6,9.2,29.76,ENE,68,0.2,0.2,28,0.00,,---,0.00,VWS V14.01,2013-03-22 11:34:00,
2013-03-22 05:35:00,39.6,9.2,29.76,ENE,68,0.2,0.2,28,0.00,,---,0.00,VWS V14.01,2013-03-22 11:35:00,
2013-03-22 05:36:00,39.4,9.0,29.76,ENE,68,0.0,0.0,28,0.00,,---,0.00,VWS V14.01,2013-03-22 11:36:00,
2013-03-22 05:37:00,39.4,9.0,29.76,ENE,68,0.0,0.0,28,0.00,,---,0.00,VWS V14.01,2013-03-22 11:37:00,
2013-03-22 05:38:00,39.2,8.9,29.76,ENE,68,0.0,0.0,28,0.00,,---,0.00,VWS V14.01,2013-03-22 11:38:00,
2013-03-22 05:39:00,39.2,8.9,29.76,ENE,68,0.0,0.0,28,0.00,,---,0.00,VWS V14.01,2013-03-22 11:39:00,
2013-03-22 05:40:00,39.2,8.9,29.76,ENE,68,0.0,0.0,28,0.00,,---,0.00,VWS V14.01,2013-03-22 11:40:00,
2013-03-22 05:41:00,39.1,8.8,29.76,ENE,68,0.0,0.0,28,0.00,,---,0.00,VWS V14.01,2013-03-22 11:41:00,
2013-03-22 05:42:00,39.1,8.8,29.76,ENE,68,0.0,0.0,28,0.00,,---,0.00,VWS V14.01,2013-03-22 11:42:00,
2013-03-22 05:43:00,38.9,8.6,29.76,ENE,68,0.0,0.0,28,0.00,,---,0.00,VWS V14.01,2013-03-22 11:43:00,
2013-03-22 05:44:00,38.9,8.6,29.76,ENE,68,0.0,0.0,28,0.00,,---,0.00,VWS V14.01,2013-03-22 11:44:00,
2013-03-22 05:45:00,38.9,8.6,29.76,ENE,68,0.0,0.0,28,0.00,,---,0.00,VWS V14.01,2013-03-22 11:45:00,
2013-03-22 05:46:00,38.9,9.4,29.76,ENE,68,0.0,0.0,29,0.00,,---,0.00,VWS V14.01,2013-03-22 11:46:00,
2013-03-22 05:47:00,38.7,9.2,29.76,ENE,68,0.2,0.2,29,0.00,,---,0.00,VWS V14.01,2013-03-22 11:47:00,
2013-03-22 05:48:00,38.7,9.2,29.76,South,180,0.0,0.2,29,0.00,,---,0.00,VWS V14.01,2013-03-22 11:48:00,
2013-03-22 05:49:00,38.5,9.0,29.76,South,180,0.4,0.4,29,0.00,,---,0.00,VWS V14.01,2013-03-22 11:49:00,
2013-03-22 05:50:00,38.5,9.0,29.76,South,180,0.4,0.4,29,0.00,,---,0.00,VWS V14.01,2013-03-22 11:50:00,
2013-03-22 05:51:00,38.7,9.2,29.77,South,180,0.0,0.2,29,0.00,,---,0.00,VWS V14.01,2013-03-22 11:51:00,
2013-03-22 05:52:00,38.7,9.2,29.77,South,180,0.2,0.2,29,0.00,,---,0.00,VWS V14.01,2013-03-22 11:52:00,
2013-03-22 05:53:00,38.7,9.2,29.77,South,180,0.0,0.2,29,0.00,,---,0.00,VWS V14.01,2013-03-22 11:53:00,
2013-03-22 05:54:00,38.5,9.0,29.77,South,180,0.0,0.0,29,0.00,,---,0.00,VWS V14.01,2013-03-22 11:54:00,
2013-03-22 05:55:00,38.5,9.0,29.77,South,180,0.0,0.0,29,0.00,,---,0.00,VWS V14.01,2013-03-22 11:55:00,
2013-03-22 05:56:00,38.5,9.0,29.77,South,180,0.0,0.0,29,0.00,,---,0.00,VWS V14.01,2013-03-22 11:56:00,
2013-03-22 05:57:00,38.3,8.1,29.77,South,180,0.0,0.0,28,0.00,,---,0.00,VWS V14.01,2013-03-22 11:57:00,
2013-03-22 05:58:00,38.3,8.1,29.77,South,180,0.0,0.0,28,0.00,,---,0.00,VWS V14.01,2013-03-22 11:58:00,
2013-03-22 05:59:00,38.3,8.1,29.77,South,180,0.0,0.0,28,0.00,,---,0.00,VWS V14.01,2013-03-22 11:59:00,
2013-03-22 06:00:00,38.2,8.0,29.77,South,180,0.0,0.0,28,0.00,,---,0.00,VWS V14.01,2013-03-22 12:00:00,
2013-03-22 06:01:00,38.2,8.0,29.77,South,180,0.0,0.0,28,0.00,,---,0.00,VWS V14.01,2013-03-22 12:01:00,
2013-03-22 06:02:00,38.2,8.0,29.77,South,180,0.0,0.0,28,0.00,,---,0.00,VWS V14.01,2013-03-22 12:02:00,
2013-03-22 06:03:00,38.0,8.6,29.77,South,180,0.0,0.0,29,0.00,,---,0.00,VWS V14.01,2013-03-22 12:03:00,
2013-03-22 06:04:00,37.8,9.2,29.77,SSE,158,0.2,0.2,30,0.00,,---,0.00,VWS V14.01,2013-03-22 12:04:00,
2013-03-22 06:05:00,37.8,9.2,29.77,SSE,158,0.2,0.2,30,0.00,,---,0.00,VWS V14.01,2013-03-22 12:05:00,
2013-03-22 06:06:00,37.8,8.4,29.77,SSE,158,0.0,0.0,29,0.00,,---,0.00,VWS V14.01,2013-03-22 12:06:00,
2013-03-22 06:07:00,37.6,7.5,29.77,SSE,158,0.0,0.0,28,0.00,,---,0.00,VWS V14.01,2013-03-22 12:07:00,
2013-03-22 06:08:00,37.6,8.2,29.77,SSE,158,0.0,0.0,29,0.00,,---,0.00,VWS V14.01,2013-03-22 12:08:00,
2013-03-22 06:09:00,37.4,8.1,29.77,SSE,158,0.0,0.0,29,0.00,,---,0.00,VWS V14.01,2013-03-22 12:09:00,
2013-03-22 06:10:00,37.4,8.1,29.77,SSE,158,0.0,0.0,29,0.00,,---,0.00,VWS V14.01,2013-03-22 12:10:00,
2013-03-22 06:11:00,37.4,7.3,29.77,SE,135,0.4,0.4,28,0.00,,---,0.00,VWS V14.01,2013-03-22 12:11:00,
2013-03-22 06:12:00,37.6,8.2,29.77,SE,135,0.4,0.4,29,0.00,,---,0.00,VWS V14.01,2013-03-22 12:12:00,
2013-03-22 06:13:00,37.6,8.2,29.78,SE,135,0.2,0.4,29,0.00,,---,0.00,VWS V14.01,2013-03-22 12:13:00,
2013-03-22 06:14:00,37.6,9.0,29.77,SE,135,0.2,0.2,30,0.00,,---,0.00,VWS V14.01,2013-03-22 12:14:00,
2013-03-22 06:15:00,37.6,9.0,29.77,SE,135,0.2,0.2,30,0.00,,---,0.00,VWS V14.01,2013-03-22 12:15:00,
2013-03-22 06:16:00,37.6,8.2,29.77,SE,135,0.0,0.2,29,0.00,,---,0.00,VWS V14.01,2013-03-22 12:16:00,
2013-03-22 06:17:00,37.6,8.2,29.78,SE,135,0.0,0.0,29,0.00,,---,0.00,VWS V14.01,2013-03-22 12:17:00,
2013-03-22 06:18:00,37.8,9.2,29.78,SE,135,0.2,0.2,30,0.00,,---,0.00,VWS V14.01,2013-03-22 12:18:00,
2013-03-22 06:19:00,37.8,9.2,29.78,SE,135,0.0,0.2,30,0.00,,---,0.00,VWS V14.01,2013-03-22 12:19:00,
2013-03-22 06:20:00,37.8,9.2,29.78,SE,135,0.0,0.0,30,0.00,,---,0.00,VWS V14.01,2013-03-22 12:20:00,
2013-03-22 06:21:00,37.8,8.4,29.78,SE,135,0.0,0.0,29,0.00,,---,0.00,VWS V14.01,2013-03-22 12:21:00,
2013-03-22 06:22:00,37.6,8.2,29.78,SE,135,0.2,0.2,29,0.00,,---,0.00,VWS V14.01,2013-03-22 12:22:00,
2013-03-22 06:23:00,37.6,9.0,29.78,ESE,112,0.4,0.4,30,0.00,,---,0.00,VWS V14.01,2013-03-22 12:23:00,
2013-03-22 06:24:00,37.4,8.8,29.78,East,90,1.6,1.6,30,0.00,,---,0.00,VWS V14.01,2013-03-22 12:24:00,
2013-03-22 06:25:00,37.4,8.8,29.78,East,90,1.6,1.6,30,0.00,,---,0.00,VWS V14.01,2013-03-22 12:25:00,
2013-03-22 06:26:00,37.4,8.8,29.78,NE,45,1.1,1.1,30,0.00,,---,0.00,VWS V14.01,2013-03-22 12:26:00,
2013-03-22 06:27:00,37.4,8.8,29.78,NE,45,0.7,1.1,30,0.00,,---,0.00,VWS V14.01,2013-03-22 12:27:00,
2013-03-22 06:28:00,37.4,8.8,29.78,NE,45,0.4,0.7,30,0.00,,---,0.00,VWS V14.01,2013-03-22 12:28:00,
2013-03-22 06:29:00,37.4,8.8,29.78,NE,45,0.7,0.7,30,0.00,,---,0.00,VWS V14.01,2013-03-22 12:29:00,
2013-03-22 06:30:00,37.4,8.8,29.78,NE,45,0.7,0.7,30,0.00,,---,0.00,VWS V14.01,2013-03-22 12:30:00,
2013-03-22 06:31:00,37.4,8.8,29.78,NE,45,1.1,1.1,30,0.00,,---,0.00,VWS V14.01,2013-03-22 12:31:00,
2013-03-22 06:32:00,37.4,8.8,29.78,NE,45,0.4,1.1,30,0.00,,---,0.00,VWS V14.01,2013-03-22 12:32:00,
2013-03-22 06:33:00,37.4,8.8,29.78,ENE,68,0.4,0.4,30,0.00,,---,0.00,VWS V14.01,2013-03-22 12:33:00,
2013-03-22 06:34:00,37.4,8.8,29.78,ENE,68,0.7,0.7,30,0.00,,---,0.00,VWS V14.01,2013-03-22 12:34:00,
2013-03-22 06:35:00,37.4,8.8,29.78,ENE,68,0.7,0.7,30,0.00,,---,0.00,VWS V14.01,2013-03-22 12:35:00,
2013-03-22 06:36:00,37.4,9.5,29.78,ENE,68,0.7,1.6,31,0.00,,---,0.00,VWS V14.01,2013-03-22 12:36:00,
2013-03-22 06:37:00,37.4,9.5,29.78,ENE,68,1.3,1.3,31,0.00,,---,0.00,VWS V14.01,2013-03-22 12:37:00,
2013-03-22 06:38:00,37.4,9.5,29.78,ENE,68,1.1,1.3,31,0.00,,---,0.00,VWS V14.01,2013-03-22 12:38:00,
2013-03-22 06:39:00,37.4,9.5,29.78,ENE,68,1.1,1.1,31,0.00,,---,0.00,VWS V14.01,2013-03-22 12:39:00,
2013-03-22 06:40:00,37.4,9.5,29.78,ENE,68,1.1,1.1,31,0.00,,---,0.00,VWS V14.01,2013-03-22 12:40:00,
2013-03-22 06:41:00,37.4,8.8,29.78,ENE,68,0.7,0.9,30,0.00,,---,0.00,VWS V14.01,2013-03-22 12:41:00,
2013-03-22 06:42:00,37.4,8.8,29.78,ENE,68,0.4,0.7,30,0.00,,---,0.00,VWS V14.01,2013-03-22 12:42:00,
2013-03-22 06:43:00,37.4,8.8,29.78,ENE,68,0.4,0.4,30,0.00,,---,0.00,VWS V14.01,2013-03-22 12:43:00,
2013-03-22 06:44:00,37.3,8.7,29.78,NE,45,0.7,0.7,30,0.00,,---,0.00,VWS V14.01,2013-03-22 12:44:00,
2013-03-22 06:45:00,37.3,8.7,29.78,NE,45,0.7,0.7,30,0.00,,---,0.00,VWS V14.01,2013-03-22 12:45:00,
2013-03-22 06:46:00,37.1,9.3,29.78,NNE,22,1.8,1.8,31,0.00,,---,0.00,VWS V14.01,2013-03-22 12:46:00,
2013-03-22 06:47:00,36.9,9.1,29.78,NNE,22,1.1,1.8,31,0.00,,---,0.00,VWS V14.01,2013-03-22 12:47:00,
2013-03-22 06:48:00,36.9,9.1,29.78,NNE,22,1.1,1.1,31,0.00,,---,0.00,VWS V14.01,2013-03-22 12:48:00,
2013-03-22 06:49:00,36.9,9.1,29.78,NNE,22,0.4,1.1,31,0.00,,---,0.00,VWS V14.01,2013-03-22 12:49:00,
2013-03-22 06:50:00,36.9,9.1,29.78,NNE,22,0.4,0.4,31,0.00,,---,0.00,VWS V14.01,2013-03-22 12:50:00,
2013-03-22 06:51:00,36.7,8.9,29.78,NNE,22,0.4,0.9,31,0.00,,---,0.00,VWS V14.01,2013-03-22 12:51:00,
2013-03-22 06:52:00,36.7,8.9,29.78,NNE,22,0.4,0.4,31,0.00,,---,0.00,VWS V14.01,2013-03-22 12:52:00,
2013-03-22 06:53:00,36.7,8.9,29.78,NNE,22,0.4,0.4,31,0.00,,---,0.00,VWS V14.01,2013-03-22 12:53:00,
2013-03-22 06:54:00,36.7,8.9,29.78,NNE,22,0.2,0.4,31,0.00,,---,0.00,VWS V14.01,2013-03-22 12:54:00,
2013-03-22 06:55:00,36.7,8.9,29.78,NNE,22,0.2,0.2,31,0.00,,---,0.00,VWS V14.01,2013-03-22 12:55:00,
2013-03-22 06:56:00,36.5,8.8,29.78,NNE,22,0.0,0.0,31,0.00,,---,0.00,VWS V14.01,2013-03-22 12:56:00,
2013-03-22 06:57:00,36.4,8.7,29.78,NNE,22,0.0,0.0,31,0.00,,---,0.00,VWS V14.01,2013-03-22 12:57:00,
2013-03-22 06:58:00,36.4,8.7,29.78,NNE,22,0.4,0.4,31,0.00,,---,0.00,VWS V14.01,2013-03-22 12:58:00,
2013-03-22 06:59:00,36.2,8.5,29.78,NNE,22,0.4,0.4,31,0.00,,---,0.00,VWS V14.01,2013-03-22 12:59:00,
2013-03-22 07:00:00,36.2,8.5,29.78,NNE,22,0.4,0.4,31,0.00,,---,0.00,VWS V14.01,2013-03-22 13:00:00,
2013-03-22 07:01:00,36.0,9.0,29.78,NNE,22,0.4,0.4,32,0.00,,---,0.00,VWS V14.01,2013-03-22 13:01:00,
2013-03-22 07:02:00,36.0,9.0,29.78,NNE,22,0.2,0.4,32,0.00,,---,0.00,VWS V14.01,2013-03-22 13:02:00,
2013-03-22 07:03:00,36.0,9.0,29.78,NNE,22,0.2,0.2,32,0.00,,---,0.00,VWS V14.01,2013-03-22 13:03:00,
2013-03-22 07:04:00,35.8,8.8,29.78,NNE,22,0.4,0.4,32,0.00,,---,0.00,VWS V14.01,2013-03-22 13:04:00,
2013-03-22 07:05:00,35.8,8.8,29.78,NNE,22,0.4,0.4,32,0.00,,---,0.00,VWS V14.01,2013-03-22 13:05:00,
2013-03-22 07:06:00,35.8,8.8,29.79,NNE,22,0.4,0.4,32,0.00,,---,0.00,VWS V14.01,2013-03-22 13:06:00,
2013-03-22 07:07:00,35.8,8.8,29.78,NNE,22,0.0,0.4,32,0.00,,---,0.00,VWS V14.01,2013-03-22 13:07:00,
2013-03-22 07:08:00,35.8,8.8,29.79,NNE,22,0.0,0.0,32,0.00,,---,0.00,VWS V14.01,2013-03-22 13:08:00,
2013-03-22 07:09:00,36.0,9.7,29.79,NNE,22,0.0,0.0,33,0.00,,---,0.00,VWS V14.01,2013-03-22 13:09:00,
2013-03-22 07:10:00,36.0,9.7,29.79,NNE,22,0.0,0.0,33,0.00,,---,0.00,VWS V14.01,2013-03-22 13:10:00,
2013-03-22 07:11:00,36.2,9.2,29.79,NNE,22,0.0,0.2,32,0.00,,---,0.00,VWS V14.01,2013-03-22 13:11:00,
2013-03-22 07:12:00,36.2,9.2,29.79,NNE,22,0.0,0.0,32,0.00,,---,0.00,VWS V14.01,2013-03-22 13:12:00,
2013-03-22 07:13:00,36.2,9.2,29.79,NNE,22,0.4,0.4,32,0.00,,---,0.00,VWS V14.01,2013-03-22 13:13:00,
2013-03-22 07:14:00,36.4,10.1,29.78,ENE,68,0.4,0.4,33,0.00,,---,0.00,VWS V14.01,2013-03-22 13:14:00,
2013-03-22 07:15:00,36.4,10.1,29.78,ENE,68,0.4,0.4,33,0.00,,---,0.00,VWS V14.01,2013-03-22 13:15:00,
2013-03-22 07:16:00,36.4,9.4,29.79,ENE,68,0.0,0.0,32,0.00,,---,0.00,VWS V14.01,2013-03-22 13:16:00,
2013-03-22 07:17:00,36.4,9.4,29.79,ENE,68,0.0,0.0,32,0.00,,---,0.00,VWS V14.01,2013-03-22 13:17:00,
2013-03-22 07:18:00,36.4,9.4,29.79,ENE,68,0.0,0.0,32,0.00,,---,0.00,VWS V14.01,2013-03-22 13:18:00,
2013-03-22 07:19:00,36.4,8.7,29.79,ENE,68,0.0,0.0,31,0.00,,---,0.00,VWS V14.01,2013-03-22 13:19:00,
2013-03-22 07:20:00,36.4,8.7,29.79,ENE,68,0.0,0.0,31,0.00,,---,0.00,VWS V14.01,2013-03-22 13:20:00,
2013-03-22 07:21:00,36.2,8.5,29.79,ENE,68,0.0,0.0,31,0.00,,---,0.00,VWS V14.01,2013-03-22 13:21:00,
2013-03-22 07:22:00,36.2,9.2,29.79,ENE,68,1.1,1.1,32,0.00,,---,0.00,VWS V14.01,2013-03-22 13:22:00,
2013-03-22 07:23:00,36.0,9.0,29.79,NE,45,0.4,1.1,32,0.00,,---,0.00,VWS V14.01,2013-03-22 13:23:00,
2013-03-22 07:24:00,36.0,9.0,29.79,NE,45,0.0,0.0,32,0.00,,---,0.00,VWS V14.01,2013-03-22 13:24:00,
2013-03-22 07:25:00,36.0,9.0,29.79,NE,45,0.0,0.0,32,0.00,,---,0.00,VWS V14.01,2013-03-22 13:25:00,
2013-03-22 07:26:00,36.0,9.0,29.79,NE,45,0.0,0.0,32,0.00,,---,0.00,VWS V14.01,2013-03-22 13:26:00,
2013-03-22 07:27:00,36.0,9.0,29.79,NE,45,0.4,0.4,32,0.00,,---,0.00,VWS V14.01,2013-03-22 13:27:00,
2013-03-22 07:28:00,36.2,9.2,29.79,NE,45,0.0,0.4,32,0.00,,---,0.00,VWS V14.01,2013-03-22 13:28:00,
2013-03-22 07:29:00,36.0,9.0,29.79,NE,45,0.0,0.0,32,0.00,,---,0.00,VWS V14.01,2013-03-22 13:29:00,
2013-03-22 07:30:00,36.0,9.0,29.79,NE,45,0.0,0.0,32,0.00,,---,0.00,VWS V14.01,2013-03-22 13:30:00,
2013-03-22 07:31:00,36.2,9.2,29.79,NE,45,0.0,0.0,32,0.00,,---,0.00,VWS V14.01,2013-03-22 13:31:00,
2013-03-22 07:32:00,36.4,9.4,29.79,NE,45,0.0,0.0,32,0.00,,---,0.00,VWS V14.01,2013-03-22 13:32:00,
2013-03-22 07:33:00,36.4,9.4,29.79,NE,45,0.0,0.0,32,0.00,,---,0.00,VWS V14.01,2013-03-22 13:33:00,
2013-03-22 07:34:00,36.4,9.4,29.79,NE,45,0.0,0.0,32,0.00,,---,0.00,VWS V14.01,2013-03-22 13:34:00,
2013-03-22 07:35:00,36.4,9.4,29.79,NE,45,0.0,0.0,32,0.00,,---,0.00,VWS V14.01,2013-03-22 13:35:00,
2013-03-22 07:36:00,36.4,8.7,29.79,NE,45,0.0,0.0,31,0.00,,---,0.00,VWS V14.01,2013-03-22 13:36:00,
2013-03-22 07:37:00,36.4,9.4,29.79,NE,45,0.2,0.2,32,0.00,,---,0.00,VWS V14.01,2013-03-22 13:37:00,
2013-03-22 07:38:00,36.4,9.4,29.79,NE,45,0.2,0.2,32,0.00,,---,0.00,VWS V14.01,2013-03-22 13:38:00,
2013-03-22 07:39:00,36.4,9.4,29.79,NE,45,0.7,0.7,32,0.00,,---,0.00,VWS V14.01,2013-03-22 13:39:00,
2013-03-22 07:40:00,36.4,9.4,29.79,NE,45,0.7,0.7,32,0.00,,---,0.00,VWS V14.01,2013-03-22 13:40:00,
2013-03-22 07:41:00,36.4,9.4,29.79,NE,45,0.9,0.9,32,0.00,,---,0.00,VWS V14.01,2013-03-22 13:41:00,
2013-03-22 07:42:00,36.4,10.1,29.79,NE,45,0.4,0.9,33,0.00,,---,0.00,VWS V14.01,2013-03-22 13:42:00,
2013-03-22 07:43:00,36.5,10.1,29.79,NE,45,0.2,0.4,33,0.00,,---,0.00,VWS V14.01,2013-03-22 13:43:00,
2013-03-22 07:44:00,36.7,9.6,29.79,NE,45,0.4,0.4,32,0.00,,---,0.00,VWS V14.01,2013-03-22 13:44:00,
2013-03-22 07:45:00,36.7,9.6,29.79,NE,45,0.4,0.4,32,0.00,,---,0.00,VWS V14.01,2013-03-22 13:45:00,
2013-03-22 07:46:00,37.1,10.0,29.79,NE,45,0.4,0.9,32,0.00,,---,0.00,VWS V14.01,2013-03-22 13:46:00,
2013-03-22 07:47:00,37.4,10.2,29.79,NE,45,0.4,0.4,32,0.00,,---,0.00,VWS V14.01,2013-03-22 13:47:00,
2013-03-22 07:48:00,37.8,10.6,29.79,NE,45,0.0,0.4,32,0.00,,---,0.00,VWS V14.01,2013-03-22 13:48:00,
2013-03-22 07:49:00,38.0,10.8,29.79,NE,45,0.0,0.0,32,0.00,,---,0.00,VWS V14.01,2013-03-22 13:49:00,
2013-03-22 07:50:00,38.0,10.8,29.79,NE,45,0.0,0.0,32,0.00,,---,0.00,VWS V14.01,2013-03-22 13:50:00,
2013-03-22 07:51:00,38.5,10.5,29.79,NE,45,0.0,0.2,31,0.00,,---,0.00,VWS V14.01,2013-03-22 13:51:00,
2013-03-22 07:52:00,38.9,10.9,29.79,NE,45,0.0,0.0,31,0.00,,---,0.00,VWS V14.01,2013-03-22 13:52:00,
2013-03-22 07:53:00,39.2,11.1,29.79,NE,45,0.4,0.4,31,0.00,,---,0.00,VWS V14.01,2013-03-22 13:53:00,
2013-03-22 07:54:00,39.4,10.6,29.79,NNE,22,0.7,0.7,30,0.00,,---,0.00,VWS V14.01,2013-03-22 13:54:00,
2013-03-22 07:55:00,39.4,10.6,29.79,NNE,22,0.7,0.7,30,0.00,,---,0.00,VWS V14.01,2013-03-22 13:55:00,
2013-03-22 07:56:00,39.8,10.9,29.80,NNE,22,0.2,0.2,30,0.00,,---,0.00,VWS V14.01,2013-03-22 13:56:00,
2013-03-22 07:57:00,40.0,11.1,29.80,NNE,22,0.0,0.2,30,0.00,,---,0.00,VWS V14.01,2013-03-22 13:57:00,
2013-03-22 07:58:00,40.1,11.2,29.80,NNE,22,0.2,0.2,30,0.00,,---,0.00,VWS V14.01,2013-03-22 13:58:00,
2013-03-22 07:59:00,40.3,11.4,29.80,North,0,0.2,0.2,30,0.00,,---,0.00,VWS V14.01,2013-03-22 13:59:00,
2013-03-22 08:00:00,40.3,11.4,29.80,North,0,0.2,0.2,30,0.00,,---,0.00,VWS V14.01,2013-03-22 14:00:00,
2013-03-22 08:01:00,40.7,11.7,29.79,North,0,0.2,0.2,30,0.00,,---,0.00,VWS V14.01,2013-03-22 14:01:00,
2013-03-22 08:02:00,41.0,12.0,29.80,North,0,0.4,0.4,30,0.00,,---,0.00,VWS V14.01,2013-03-22 14:02:00,
2013-03-22 08:03:00,41.2,11.4,29.79,North,0,0.2,0.4,29,0.00,,---,0.00,VWS V14.01,2013-03-22 14:03:00,
2013-03-22 08:04:00,41.4,11.5,29.80,NNE,22,0.9,0.9,29,0.00,,---,0.00,VWS V14.01,2013-03-22 14:04:00,
2013-03-22 08:05:00,41.4,11.5,29.80,NNE,22,0.9,0.9,29,0.00,,---,0.00,VWS V14.01,2013-03-22 14:05:00,
2013-03-22 08:06:00,41.9,12.0,29.80,North,0,0.4,0.4,29,0.00,,---,0.00,VWS V14.01,2013-03-22 14:06:00,
2013-03-22 08:07:00,42.1,12.1,29.80,North,0,0.2,0.4,29,0.00,,---,0.00,VWS V14.01,2013-03-22 14:07:00,
2013-03-22 08:08:00,42.1,12.1,29.80,North,0,0.2,0.2,29,0.00,,---,0.00,VWS V14.01,2013-03-22 14:08:00,
2013-03-22 08:09:00,42.3,12.3,29.80,North,0,0.0,0.2,29,0.00,,---,0.00,VWS V14.01,2013-03-22 14:09:00,
2013-03-22 08:10:00,42.3,12.3,29.80,North,0,0.0,0.0,29,0.00,,---,0.00,VWS V14.01,2013-03-22 14:10:00,
2013-03-22 08:11:00,42.7,11.9,29.80,North,0,0.0,0.2,28,0.00,,---,0.00,VWS V14.01,2013-03-22 14:11:00,
2013-03-22 08:12:00,42.8,12.0,29.80,North,0,0.0,0.0,28,0.00,,---,0.00,VWS V14.01,2013-03-22 14:12:00,
2013-03-22 08:13:00,43.0,12.1,29.80,North,0,0.0,0.0,28,0.00,,---,0.00,VWS V14.01,2013-03-22 14:13:00,
2013-03-22 08:14:00,43.0,12.1,29.80,North,0,0.2,0.2,28,0.00,,---,0.00,VWS V14.01,2013-03-22 14:14:00,
2013-03-22 08:15:00,43.0,12.1,29.80,North,0,0.2,0.2,28,0.00,,---,0.00,VWS V14.01,2013-03-22 14:15:00,
2013-03-22 08:16:00,43.4,12.5,29.80,NW,315,0.2,0.4,28,0.00,,---,0.00,VWS V14.01,2013-03-22 14:16:00,
2013-03-22 08:17:00,43.4,12.5,29.80,NW,315,0.9,0.9,28,0.00,,---,0.00,VWS V14.01,2013-03-22 14:17:00,
2013-03-22 08:18:00,43.6,11.8,29.80,NW,315,0.9,0.9,27,0.00,,---,0.00,VWS V14.01,2013-03-22 14:18:00,
2013-03-22 08:19:00,43.6,11.8,29.80,NW,315,1.8,1.8,27,0.00,,---,0.00,VWS V14.01,2013-03-22 14:19:00,
2013-03-22 08:20:00,43.7,11.9,29.80,NW,315,1.1,1.8,27,0.00,,---,0.00,VWS V14.01,2013-03-22 14:20:00,
2013-03-22 08:21:00,43.9,12.1,29.80,NNW,338,0.7,1.1,27,0.00,,---,0.00,VWS V14.01,2013-03-22 14:21:00,
2013-03-22 08:22:00,44.1,11.4,29.80,NW,315,1.1,1.1,26,0.00,,---,0.00,VWS V14.01,2013-03-22 14:22:00,
2013-03-22 08:23:00,44.3,10.7,29.80,NW,315,2.0,2.0,25,0.00,,---,0.00,VWS V14.01,2013-03-22 14:23:00,
2013-03-22 08:24:00,44.3,10.7,29.80,NW,315,1.8,2.0,25,0.00,,---,0.00,VWS V14.01,2013-03-22 14:24:00,
2013-03-22 08:25:00,44.3,10.7,29.80,NW,315,1.8,1.8,25,0.00,,---,0.00,VWS V14.01,2013-03-22 14:25:00,
2013-03-22 08:26:00,44.5,10.9,29.80,NW,315,1.1,2.5,25,0.00,,---,0.00,VWS V14.01,2013-03-22 14:26:00,
2013-03-22 08:27:00,44.5,10.9,29.80,WNW,292,2.5,2.5,25,0.00,,---,0.00,VWS V14.01,2013-03-22 14:27:00,
2013-03-22 08:28:00,44.5,10.0,29.80,North,0,0.9,2.5,24,0.00,,---,0.00,VWS V14.01,2013-03-22 14:28:00,
2013-03-22 08:29:00,44.6,10.1,29.80,NW,315,2.5,2.5,24,0.00,,---,0.00,VWS V14.01,2013-03-22 14:29:00,
2013-03-22 08:30:00,44.6,10.1,29.80,NW,315,2.5,2.5,24,0.00,,---,0.00,VWS V14.01,2013-03-22 14:30:00,
2013-03-22 08:31:00,44.6,10.1,29.80,WNW,292,2.0,2.5,24,0.00,,---,0.00,VWS V14.01,2013-03-22 14:31:00,
2013-03-22 08:32:00,44.6,10.1,29.80,NW,315,1.1,2.0,24,0.00,,---,0.00,VWS V14.01,2013-03-22 14:32:00,
2013-03-22 08:33:00,44.8,10.2,29.80,NNW,338,2.2,2.2,24,0.00,,---,0.00,VWS V14.01,2013-03-22 14:33:00,
2013-03-22 08:34:00,44.8,9.3,29.80,WNW,292,2.0,2.2,23,0.00,,---,0.00,VWS V14.01,2013-03-22 14:34:00,
2013-03-22 08:35:00,44.8,9.3,29.80,WNW,292,2.0,2.0,23,0.00,,---,0.00,VWS V14.01,2013-03-22 14:35:00,
2013-03-22 08:36:00,45.0,9.4,29.80,NW,315,2.9,2.9,23,0.00,,---,0.00,VWS V14.01,2013-03-22 14:36:00,
2013-03-22 08:37:00,45.2,9.6,29.80,WNW,292,1.8,2.9,23,0.00,,---,0.00,VWS V14.01,2013-03-22 14:37:00,
2013-03-22 08:38:00,45.4,10.7,29.80,North,0,0.4,1.8,24,0.00,,---,0.00,VWS V14.01,2013-03-22 14:38:00,
2013-03-22 08:39:00,45.7,10.0,29.80,NW,315,0.4,0.4,23,0.00,,---,0.00,VWS V14.01,2013-03-22 14:39:00,
2013-03-22 08:40:00,45.7,10.0,29.80,NW,315,0.4,0.4,23,0.00,,---,0.00,VWS V14.01,2013-03-22 14:40:00,
2013-03-22 08:41:00,46.1,10.4,29.80,WNW,292,1.3,1.8,23,0.00,,---,0.00,VWS V14.01,2013-03-22 14:41:00,
2013-03-22 08:42:00,46.3,10.6,29.80,NW,315,1.8,1.8,23,0.00,,---,0.00,VWS V14.01,2013-03-22 14:42:00,
2013-03-22 08:43:00,46.4,10.6,29.80,NW,315,1.1,1.8,23,0.00,,---,0.00,VWS V14.01,2013-03-22 14:43:00,
2013-03-22 08:44:00,46.4,9.6,29.80,NNW,338,1.1,1.1,22,0.00,,---,0.00,VWS V14.01,2013-03-22 14:44:00,
2013-03-22 08:45:00,46.8,10.0,29.80,WNW,292,2.9,2.9,22,0.00,,---,0.00,VWS V14.01,2013-03-22 14:45:00,
2013-03-22 08:46:00,47.0,10.1,29.80,NNE,22,1.8,2.9,22,0.00,,---,0.00,VWS V14.01,2013-03-22 14:46:00,
2013-03-22 08:47:00,47.2,10.3,29.79,NW,315,1.3,1.8,22,0.00,,---,0.00,VWS V14.01,2013-03-22 14:47:00,
2013-03-22 08:48:00,47.5,10.6,29.80,NNW,338,1.6,1.6,22,0.00,,---,0.00,VWS V14.01,2013-03-22 14:48:00,
2013-03-22 08:49:00,47.7,10.7,29.80,NNW,338,1.1,1.1,22,0.00,,---,0.00,VWS V14.01,2013-03-22 14:49:00,
2013-03-22 08:50:00,48.1,11.1,29.79,NNW,338,1.8,1.8,22,0.00,,---,0.00,VWS V14.01,2013-03-22 14:50:00,
2013-03-22 08:51:00,48.6,11.5,29.79,NNW,338,1.3,1.8,22,0.00,,---,0.00,VWS V14.01,2013-03-22 14:51:00,
2013-03-22 08:52:00,48.6,10.4,29.79,NW,315,1.8,1.8,21,0.00,,---,0.00,VWS V14.01,2013-03-22 14:52:00,
2013-03-22 08:53:00,49.0,10.8,29.79,NW,315,0.9,1.8,21,0.00,,---,0.00,VWS V14.01,2013-03-22 14:53:00,
2013-03-22 08:54:00,49.3,11.0,29.79,North,0,1.8,1.8,21,0.00,,---,0.00,VWS V14.01,2013-03-22 14:54:00,
2013-03-22 08:55:00,49.9,11.5,29.80,North,0,1.1,1.8,21,0.00,,---,0.00,VWS V14.01,2013-03-22 14:55:00,
2013-03-22 08:56:00,50.4,11.9,29.79,NNE,22,0.4,1.1,21,0.00,,---,0.00,VWS V14.01,2013-03-22 14:56:00,
2013-03-22 08:57:00,50.9,12.4,29.80,NNW,338,0.2,0.4,21,0.00,,---,0.00,VWS V14.01,2013-03-22 14:57:00,
2013-03-22 08:58:00,51.3,11.6,29.79,NNW,338,1.8,1.8,20,0.00,,---,0.00,VWS V14.01,2013-03-22 14:58:00,
2013-03-22 08:59:00,51.5,11.8,29.79,NNW,338,1.1,1.1,20,0.00,,---,0.00,VWS V14.01,2013-03-22 14:59:00,
2013-03-22 09:00:00,51.5,11.8,29.79,NNW,338,1.1,1.1,20,0.00,,---,0.00,VWS V14.01,2013-03-22 15:00:00,
2013-03-22 09:01:00,51.5,9.4,29.79,NW,315,1.6,1.6,18,0.00,,---,0.00,VWS V14.01,2013-03-22 15:01:00,
2013-03-22 09:02:00,51.5,9.4,29.79,NW,315,1.6,1.6,18,0.00,,---,0.00,VWS V14.01,2013-03-22 15:02:00,
2013-03-22 09:03:00,51.5,11.8,29.79,NNW,338,0.2,1.6,20,0.00,,---,0.00,VWS V14.01,2013-03-22 15:03:00,
2013-03-22 09:04:00,51.8,12.0,29.79,NNW,338,0.2,0.2,20,0.00,,---,0.00,VWS V14.01,2013-03-22 15:04:00,
2013-03-22 09:05:00,52.0,12.2,29.79,NW,315,1.6,1.6,20,0.00,,---,0.00,VWS V14.01,2013-03-22 15:05:00,
2013-03-22 09:06:00,52.4,11.4,29.79,WNW,292,1.3,1.6,19,0.00,,---,0.00,VWS V14.01,2013-03-22 15:06:00,
2013-03-22 09:07:00,52.6,10.3,29.79,NNW,338,1.3,1.3,18,0.00,,---,0.00,VWS V14.01,2013-03-22 15:07:00,
2013-03-22 09:08:00,52.7,10.4,29.79,NNW,338,0.2,1.3,18,0.00,,---,0.00,VWS V14.01,2013-03-22 15:08:00,
2013-03-22 09:09:00,53.3,10.9,29.79,NNW,338,1.1,1.1,18,0.00,,---,0.00,VWS V14.01,2013-03-22 15:09:00,
2013-03-22 09:10:00,53.5,11.1,29.79,WNW,292,1.1,1.1,18,0.00,,---,0.00,VWS V14.01,2013-03-22 15:10:00,
2013-03-22 09:11:00,53.6,9.9,29.79,NNW,338,2.2,2.2,17,0.00,,---,0.00,VWS V14.01,2013-03-22 15:11:00,
2013-03-22 09:12:00,53.5,9.8,29.79,NNW,338,0.7,2.2,17,0.00,,---,0.00,VWS V14.01,2013-03-22 15:12:00,
2013-03-22 09:13:00,53.6,9.9,29.79,NNW,338,0.4,0.7,17,0.00,,---,0.00,VWS V14.01,2013-03-22 15:13:00,
2013-03-22 09:14:00,53.8,10.0,29.79,WNW,292,1.6,1.6,17,0.00,,---,0.00,VWS V14.01,2013-03-22 15:14:00,
2013-03-22 09:15:00,53.8,10.0,29.79,NW,315,1.8,1.8,17,0.00,,---,0.00,VWS V14.01,2013-03-22 15:15:00,
2013-03-22 09:16:00,53.6,9.9,29.79,NW,315,0.4,1.8,17,0.00,,---,0.00,VWS V14.01,2013-03-22 15:16:00,
2013-03-22 09:17:00,53.6,9.9,29.79,West,270,1.8,1.8,17,0.00,,---,0.00,VWS V14.01,2013-03-22 15:17:00,
2013-03-22 09:18:00,53.6,9.9,29.79,West,270,0.2,1.8,17,0.00,,---,0.00,VWS V14.01,2013-03-22 15:18:00,
2013-03-22 09:19:00,53.6,9.9,29.79,NNW,338,1.6,1.6,17,0.00,,---,0.00,VWS V14.01,2013-03-22 15:19:00,
2013-03-22 09:20:00,53.8,8.7,29.80,NNW,338,2.5,2.5,16,0.00,,---,0.00,VWS V14.01,2013-03-22 15:20:00,
2013-03-22 09:21:00,53.8,8.7,29.79,NNW,338,1.3,2.5,16,0.00,,---,0.00,VWS V14.01,2013-03-22 15:21:00,
2013-03-22 09:22:00,53.8,8.7,29.79,WNW,292,2.5,2.5,16,0.00,,---,0.00,VWS V14.01,2013-03-22 15:22:00,
2013-03-22 09:23:00,53.8,8.7,29.79,NW,315,2.9,2.9,16,0.00,,---,0.00,VWS V14.01,2013-03-22 15:23:00,
2013-03-22 09:24:00,53.8,8.7,29.79,WSW,248,1.1,1.1,16,0.00,,---,0.00,VWS V14.01,2013-03-22 15:24:00,
2013-03-22 09:25:00,53.6,8.5,29.80,WSW,248,1.6,1.6,16,0.00,,---,0.00,VWS V14.01,2013-03-22 15:25:00,
2013-03-22 09:26:00,53.6,7.1,29.80,WSW,248,2.5,2.5,15,0.00,,---,0.00,VWS V14.01,2013-03-22 15:26:00,
2013-03-22 09:27:00,53.5,8.4,29.79,WSW,248,1.6,2.5,16,0.00,,---,0.00,VWS V14.01,2013-03-22 15:27:00,
2013-03-22 09:28:00,53.3,8.3,29.80,NW,315,3.1,3.1,16,0.00,,---,0.00,VWS V14.01,2013-03-22 15:28:00,
2013-03-22 09:29:00,53.3,8.3,29.80,West,270,2.7,2.7,16,0.00,,---,0.00,VWS V14.01,2013-03-22 15:29:00,
2013-03-22 09:30:00,53.3,8.3,29.80,WSW,248,1.8,2.7,16,0.00,,---,0.00,VWS V14.01,2013-03-22 15:30:00,
2013-03-22 09:31:00,53.1,8.1,29.80,WSW,248,4.0,4.0,16,0.00,,---,0.00,VWS V14.01,2013-03-22 15:31:00,
2013-03-22 09:32:00,53.1,8.1,29.80,WNW,292,3.8,4.0,16,0.00,,---,0.00,VWS V14.01,2013-03-22 15:32:00,
2013-03-22 09:33:00,52.9,6.5,29.80,West,270,1.1,3.8,15,0.00,,---,0.00,VWS V14.01,2013-03-22 15:33:00,
2013-03-22 09:34:00,52.9,7.9,29.80,WNW,292,1.3,1.3,16,0.00,,---,0.00,VWS V14.01,2013-03-22 15:34:00,
2013-03-22 09:35:00,53.1,8.1,29.80,NW,315,1.6,1.6,16,0.00,,---,0.00,VWS V14.01,2013-03-22 15:35:00,
2013-03-22 09:36:00,53.3,8.3,29.80,WNW,292,2.7,2.7,16,0.00,,---,0.00,VWS V14.01,2013-03-22 15:36:00,
2013-03-22 09:37:00,53.3,8.3,29.80,WNW,292,3.8,3.8,16,0.00,,---,0.00,VWS V14.01,2013-03-22 15:37:00,
2013-03-22 09:38:00,53.5,8.4,29.80,NW,315,2.9,3.8,16,0.00,,---,0.00,VWS V14.01,2013-03-22 15:38:00,
2013-03-22 09:39:00,53.6,8.5,29.80,WNW,292,1.8,1.8,16,0.00,,---,0.00,VWS V14.01,2013-03-22 15:39:00,
2013-03-22 09:40:00,53.6,7.1,29.80,West,270,4.0,4.0,15,0.00,,---,0.00,VWS V14.01,2013-03-22 15:40:00,
2013-03-22 09:41:00,53.6,7.1,29.80,West,270,3.8,4.0,15,0.00,,---,0.00,VWS V14.01,2013-03-22 15:41:00,
2013-03-22 09:42:00,53.3,8.3,29.80,WNW,292,5.1,5.1,16,0.00,,---,0.00,VWS V14.01,2013-03-22 15:42:00,
2013-03-22 09:43:00,53.1,8.1,29.80,WNW,292,4.0,5.1,16,0.00,,---,0.00,VWS V14.01,2013-03-22 15:43:00,
2013-03-22 09:44:00,52.9,6.5,29.80,WNW,292,4.5,4.5,15,0.00,,---,0.00,VWS V14.01,2013-03-22 15:44:00,
2013-03-22 09:45:00,52.9,6.5,29.80,West,270,4.0,4.5,15,0.00,,---,0.00,VWS V14.01,2013-03-22 15:45:00,
2013-03-22 09:46:00,53.1,8.1,29.80,WSW,248,3.1,4.0,16,0.00,,---,0.00,VWS V14.01,2013-03-22 15:46:00,
2013-03-22 09:47:00,53.1,6.7,29.80,WSW,248,2.2,3.1,15,0.00,,---,0.00,VWS V14.01,2013-03-22 15:47:00,
2013-03-22 09:48:00,52.9,6.5,29.80,WSW,248,1.6,2.2,15,0.00,,---,0.00,VWS V14.01,2013-03-22 15:48:00,
2013-03-22 09:49:00,53.1,8.1,29.80,West,270,3.6,3.6,16,0.00,,---,0.00,VWS V14.01,2013-03-22 15:49:00,
2013-03-22 09:50:00,53.3,8.3,29.80,WNW,292,2.7,3.6,16,0.00,,---,0.00,VWS V14.01,2013-03-22 15:50:00,
2013-03-22 09:51:00,53.5,7.0,29.80,WSW,248,4.7,4.7,15,0.00,,---,0.00,VWS V14.01,2013-03-22 15:51:00,
2013-03-22 09:52:00,53.3,6.8,29.80,West,270,3.1,4.7,15,0.00,,---,0.00,VWS V14.01,2013-03-22 15:52:00,
2013-03-22 09:53:00,53.3,6.8,29.80,WSW,248,2.0,3.1,15,0.00,,---,0.00,VWS V14.01,2013-03-22 15:53:00,
2013-03-22 09:54:00,53.1,6.7,29.80,WSW,248,0.9,0.9,15,0.00,,---,0.00,VWS V14.01,2013-03-22 15:54:00,
2013-03-22 09:55:00,53.3,6.8,29.80,WSW,248,1.1,1.1,15,0.00,,---,0.00,VWS V14.01,2013-03-22 15:55:00,
2013-03-22 09:56:00,53.3,6.8,29.80,West,270,1.3,1.3,15,0.00,,---,0.00,VWS V14.01,2013-03-22 15:56:00,
2013-03-22 09:57:00,53.6,7.1,29.80,SSW,202,1.1,1.3,15,0.00,,---,0.00,VWS V14.01,2013-03-22 15:57:00,
2013-03-22 09:58:00,53.6,8.5,29.80,WSW,248,3.4,3.4,16,0.00,,---,0.00,VWS V14.01,2013-03-22 15:58:00,
2013-03-22 09:59:00,53.8,7.2,29.80,NW,315,2.0,2.0,15,0.00,,---,0.00,VWS V14.01,2013-03-22 15:59:00,
2013-03-22 10:00:00,54.0,7.4,29.80,WNW,292,1.6,2.0,15,0.00,,---,0.00,VWS V14.01,2013-03-22 16:00:00,
2013-03-22 10:01:00,54.0,7.4,29.80,WNW,292,2.9,2.9,15,0.00,,---,0.00,VWS V14.01,2013-03-22 16:01:00,
2013-03-22 10:02:00,54.0,5.9,29.80,WSW,248,4.0,4.0,14,0.00,,---,0.00,VWS V14.01,2013-03-22 16:02:00,
2013-03-22 10:03:00,53.6,5.6,29.80,WNW,292,5.4,5.4,14,0.00,,---,0.00,VWS V14.01,2013-03-22 16:03:00,
2013-03-22 10:04:00,53.6,7.1,29.80,NW,315,3.6,3.6,15,0.00,,---,0.00,VWS V14.01,2013-03-22 16:04:00,
2013-03-22 10:05:00,53.6,7.1,29.80,WNW,292,2.0,3.6,15,0.00,,---,0.00,VWS V14.01,2013-03-22 16:05:00,
2013-03-22 10:06:00,53.6,5.6,29.80,WSW,248,2.2,2.2,14,0.00,,---,0.00,VWS V14.01,2013-03-22 16:06:00,
2013-03-22 10:07:00,53.8,7.2,29.80,West,270,0.9,2.2,15,0.00,,---,0.00,VWS V14.01,2013-03-22 16:07:00,
2013-03-22 10:08:00,53.8,7.2,29.80,WNW,292,2.5,2.5,15,0.00,,---,0.00,VWS V14.01,2013-03-22 16:08:00,
2013-03-22 10:09:00,53.8,7.2,29.80,WSW,248,4.3,4.3,15,0.00,,---,0.00,VWS V14.01,2013-03-22 16:09:00,
2013-03-22 10:10:00,53.8,7.2,29.80,West,270,0.7,4.3,15,0.00,,---,0.00,VWS V14.01,2013-03-22 16:10:00,
2013-03-22 10:11:00,54.2,7.6,29.80,NNW,338,0.7,0.7,15,0.00,,---,0.00,VWS V14.01,2013-03-22 16:11:00,
2013-03-22 10:12:00,54.4,7.7,29.80,NW,315,4.0,4.0,15,0.00,,---,0.00,VWS V14.01,2013-03-22 16:12:00,
2013-03-22 10:13:00,54.7,9.4,29.80,West,270,1.6,4.0,16,0.00,,---,0.00,VWS V14.01,2013-03-22 16:13:00,
2013-03-22 10:14:00,55.1,8.3,29.80,WSW,248,1.1,1.1,15,0.00,,---,0.00,VWS V14.01,2013-03-22 16:14:00,
2013-03-22 10:15:00,54.9,8.1,29.80,West,270,2.5,2.5,15,0.00,,---,0.00,VWS V14.01,2013-03-22 16:15:00,
2013-03-22 10:16:00,54.9,9.6,29.80,West,270,1.1,2.5,16,0.00,,---,0.00,VWS V14.01,2013-03-22 16:16:00,
2013-03-22 10:17:00,54.9,9.6,29.80,West,270,2.0,2.0,16,0.00,,---,0.00,VWS V14.01,2013-03-22 16:17:00,
2013-03-22 10:18:00,55.1,9.7,29.80,NNE,22,2.0,2.0,16,0.00,,---,0.00,VWS V14.01,2013-03-22 16:18:00,
2013-03-22 10:19:00,55.8,10.3,29.80,NW,315,1.6,1.6,16,0.00,,---,0.00,VWS V14.01,2013-03-22 16:19:00,
2013-03-22 10:20:00,56.2,9.2,29.80,WNW,292,4.5,4.5,15,0.00,,---,0.00,VWS V14.01,2013-03-22 16:20:00,
2013-03-22 10:21:00,56.3,7.7,29.79,NW,315,2.7,4.5,14,0.00,,---,0.00,VWS V14.01,2013-03-22 16:21:00,
2013-03-22 10:22:00,56.3,9.3,29.80,NW,315,1.8,2.7,15,0.00,,---,0.00,VWS V14.01,2013-03-22 16:22:00,
2013-03-22 10:23:00,56.2,9.2,29.80,NW,315,2.7,2.7,15,0.00,,---,0.00,VWS V14.01,2013-03-22 16:23:00,
2013-03-22 10:24:00,56.2,9.2,29.79,NNW,338,1.8,1.8,15,0.00,,---,0.00,VWS V14.01,2013-03-22 16:24:00,
2013-03-22 10:25:00,56.2,9.2,29.80,NW,315,2.7,2.7,15,0.00,,---,0.00,VWS V14.01,2013-03-22 16:25:00,
2013-03-22 10:26:00,56.2,9.2,29.79,NW,315,1.1,2.7,15,0.00,,---,0.00,VWS V14.01,2013-03-22 16:26:00,
2013-03-22 10:27:00,56.5,9.4,29.79,NW,315,1.3,1.3,15,0.00,,---,0.00,VWS V14.01,2013-03-22 16:27:00,
2013-03-22 10:28:00,56.9,9.8,29.79,NNE,22,1.3,1.3,15,0.00,,---,0.00,VWS V14.01,2013-03-22 16:28:00,
2013-03-22 10:29:00,57.2,10.0,29.79,SW,225,4.0,4.0,15,0.00,,---,0.00,VWS V14.01,2013-03-22 16:29:00,
2013-03-22 10:30:00,57.2,6.8,29.79,NW,315,2.2,4.0,13,0.00,,---,0.00,VWS V14.01,2013-03-22 16:30:00,
2013-03-22 10:31:00,56.9,8.2,29.79,WNW,292,1.8,2.2,14,0.00,,---,0.00,VWS V14.01,2013-03-22 16:31:00,
2013-03-22 10:32:00,56.9,9.8,29.79,WSW,248,0.4,1.8,15,0.00,,---,0.00,VWS V14.01,2013-03-22 16:32:00,
2013-03-22 10:33:00,56.9,6.6,29.79,WSW,248,1.6,1.6,13,0.00,,---,0.00,VWS V14.01,2013-03-22 16:33:00,
2013-03-22 10:34:00,56.5,6.3,29.79,SW,225,2.5,2.5,13,0.00,,---,0.00,VWS V14.01,2013-03-22 16:34:00,
2013-03-22 10:35:00,56.2,6.0,29.79,WSW,248,2.5,2.5,13,0.00,,---,0.00,VWS V14.01,2013-03-22 16:35:00,
2013-03-22 10:36:00,55.8,8.9,29.79,WSW,248,3.4,3.4,15,0.00,,---,0.00,VWS V14.01,2013-03-22 16:36:00,
2013-03-22 10:37:00,55.8,8.9,29.79,West,270,1.3,3.4,15,0.00,,---,0.00,VWS V14.01,2013-03-22 16:37:00,
2013-03-22 10:38:00,55.6,8.7,29.79,West,270,2.5,2.5,15,0.00,,---,0.00,VWS V14.01,2013-03-22 16:38:00,
2013-03-22 10:39:00,55.8,8.9,29.79,WNW,292,0.2,0.2,15,0.00,,---,0.00,VWS V14.01,2013-03-22 16:39:00,
2013-03-22 10:40:00,56.0,9.0,29.79,East,90,0.7,0.7,15,0.00,,---,0.00,VWS V14.01,2013-03-22 16:40:00,
2013-03-22 10:41:00,56.3,7.7,29.79,SW,225,1.1,1.1,14,0.00,,---,0.00,VWS V14.01,2013-03-22 16:41:00,
2013-03-22 10:42:00,56.5,9.4,29.79,SSW,202,0.4,1.1,15,0.00,,---,0.00,VWS V14.01,2013-03-22 16:42:00,
2013-03-22 10:43:00,57.1,9.9,29.79,SSW,202,0.0,0.4,15,0.00,,---,0.00,VWS V14.01,2013-03-22 16:43:00,
2013-03-22 10:44:00,57.6,10.3,29.79,SSW,202,2.9,2.9,15,0.00,,---,0.00,VWS V14.01,2013-03-22 16:44:00,
2013-03-22 10:45:00,58.0,10.6,29.79,NW,315,1.3,2.9,15,0.00,,---,0.00,VWS V14.01,2013-03-22 16:45:00,
2013-03-22 10:46:00,58.0,7.4,29.79,West,270,0.7,1.3,13,0.00,,---,0.00,VWS V14.01,2013-03-22 16:46:00,
2013-03-22 10:47:00,58.0,7.4,29.79,West,270,0.7,0.7,13,0.00,,---,0.00,VWS V14.01,2013-03-22 16:47:00,
2013-03-22 10:48:00,58.1,10.7,29.79,North,0,1.6,1.6,15,0.00,,---,0.00,VWS V14.01,2013-03-22 16:48:00,
2013-03-22 10:49:00,58.3,10.9,29.79,NNE,22,1.1,1.1,15,0.00,,---,0.00,VWS V14.01,2013-03-22 16:49:00,
2013-03-22 10:50:00,59.0,11.4,29.79,WNW,292,0.4,1.1,15,0.00,,---,0.00,VWS V14.01,2013-03-22 16:50:00,
2013-03-22 10:51:00,59.2,8.4,29.79,SW,225,1.1,1.1,13,0.00,,---,0.00,VWS V14.01,2013-03-22 16:51:00,
2013-03-22 10:52:00,59.0,8.2,29.78,SW,225,2.5,2.5,13,0.00,,---,0.00,VWS V14.01,2013-03-22 16:52:00,
2013-03-22 10:53:00,58.7,8.0,29.79,SW,225,2.7,2.7,13,0.00,,---,0.00,VWS V14.01,2013-03-22 16:53:00,
2013-03-22 10:54:00,58.0,7.4,29.78,SW,225,0.9,0.9,13,0.00,,---,0.00,VWS V14.01,2013-03-22 16:54:00,
2013-03-22 10:55:00,57.6,7.1,29.78,SSW,202,0.2,0.9,13,0.00,,---,0.00,VWS V14.01,2013-03-22 16:55:00,
2013-03-22 10:56:00,57.6,7.1,29.78,SSW,202,4.7,4.7,13,0.00,,---,0.00,VWS V14.01,2013-03-22 16:56:00,
2013-03-22 10:57:00,57.4,7.0,29.78,SW,225,2.7,4.7,13,0.00,,---,0.00,VWS V14.01,2013-03-22 16:57:00,
2013-03-22 10:58:00,57.1,6.7,29.78,SW,225,1.8,2.7,13,0.00,,---,0.00,VWS V14.01,2013-03-22 16:58:00,
2013-03-22 10:59:00,56.9,6.6,29.78,WNW,292,2.0,2.0,13,0.00,,---,0.00,VWS V14.01,2013-03-22 16:59:00,
2013-03-22 11:00:00,56.9,6.6,29.78,West,270,2.5,2.5,13,0.00,,---,0.00,VWS V14.01,2013-03-22 17:00:00,
2013-03-22 11:01:00,56.9,6.6,29.78,South,180,0.7,2.5,13,0.00,,---,0.00,VWS V14.01,2013-03-22 17:01:00,
2013-03-22 11:02:00,57.1,6.7,29.78,SSW,202,1.1,1.1,13,0.00,,---,0.00,VWS V14.01,2013-03-22 17:02:00,
2013-03-22 11:03:00,57.1,6.7,29.78,SSW,202,1.1,1.1,13,0.00,,---,0.00,VWS V14.01,2013-03-22 17:03:00,
2013-03-22 11:04:00,57.2,6.8,29.78,WSW,248,0.4,0.4,13,0.00,,---,0.00,VWS V14.01,2013-03-22 17:04:00,
2013-03-22 11:05:00,57.8,7.3,29.78,NW,315,2.0,2.0,13,0.00,,---,0.00,VWS V14.01,2013-03-22 17:05:00,
2013-03-22 11:06:00,58.1,7.5,29.78,WSW,248,1.1,2.0,13,0.00,,---,0.00,VWS V14.01,2013-03-22 17:06:00,
2013-03-22 11:07:00,58.3,7.7,29.78,WSW,248,0.4,1.1,13,0.00,,---,0.00,VWS V14.01,2013-03-22 17:07:00,
2013-03-22 11:08:00,58.5,7.8,29.78,SW,225,1.8,1.8,13,0.00,,---,0.00,VWS V14.01,2013-03-22 17:08:00,
2013-03-22 11:09:00,58.3,7.7,29.78,WSW,248,2.5,2.5,13,0.00,,---,0.00,VWS V14.01,2013-03-22 17:09:00,
2013-03-22 11:10:00,58.0,7.4,29.78,West,270,3.1,3.1,13,0.00,,---,0.00,VWS V14.01,2013-03-22 17:10:00,
2013-03-22 11:11:00,58.0,7.4,29.78,WSW,248,4.0,4.0,13,0.00,,---,0.00,VWS V14.01,2013-03-22 17:11:00,
2013-03-22 11:12:00,57.6,7.1,29.78,West,270,0.7,4.0,13,0.00,,---,0.00,VWS V14.01,2013-03-22 17:12:00,
2013-03-22 11:13:00,57.6,7.1,29.78,West,270,0.4,0.7,13,0.00,,---,0.00,VWS V14.01,2013-03-22 17:13:00,
2013-03-22 11:14:00,57.6,7.1,29.78,West,270,4.3,4.3,13,0.00,,---,0.00,VWS V14.01,2013-03-22 17:14:00,
2013-03-22 11:15:00,57.4,7.0,29.78,West,270,2.2,4.3,13,0.00,,---,0.00,VWS V14.01,2013-03-22 17:15:00,
2013-03-22 11:16:00,57.4,7.0,29.78,South,180,2.2,2.2,13,0.00,,---,0.00,VWS V14.01,2013-03-22 17:16:00,
2013-03-22 11:17:00,57.2,6.8,29.78,WSW,248,1.8,2.2,13,0.00,,---,0.00,VWS V14.01,2013-03-22 17:17:00,
2013-03-22 11:18:00,57.2,6.8,29.78,SSE,158,2.9,2.9,13,0.00,,---,0.00,VWS V14.01,2013-03-22 17:18:00,
2013-03-22 11:19:00,57.1,6.7,29.78,SSE,158,0.9,0.9,13,0.00,,---,0.00,VWS V14.01,2013-03-22 17:19:00,
2013-03-22 11:20:00,57.1,6.7,29.78,East,90,2.2,2.2,13,0.00,,---,0.00,VWS V14.01,2013-03-22 17:20:00,
2013-03-22 11:21:00,57.2,6.8,29.78,SSE,158,1.1,2.2,13,0.00,,---,0.00,VWS V14.01,2013-03-22 17:21:00,
2013-03-22 11:22:00,57.2,6.8,29.78,SSE,158,0.0,1.1,13,0.00,,---,0.00,VWS V14.01,2013-03-22 17:22:00,
2013-03-22 11:23:00,57.6,7.1,29.78,SW,225,0.9,0.9,13,0.00,,---,0.00,VWS V14.01,2013-03-22 17:23:00,
2013-03-22 11:24:00,57.6,5.4,29.78,SW,225,1.1,1.1,12,0.00,,---,0.00,VWS V14.01,2013-03-22 17:24:00,
2013-03-22 11:25:00,58.0,7.4,29.78,ENE,68,1.1,1.1,13,0.00,,---,0.00,VWS V14.01,2013-03-22 17:25:00,
2013-03-22 11:26:00,58.1,7.5,29.78,SE,135,2.0,2.0,13,0.00,,---,0.00,VWS V14.01,2013-03-22 17:26:00,
2013-03-22 11:27:00,58.3,7.7,29.78,West,270,1.1,2.0,13,0.00,,---,0.00,VWS V14.01,2013-03-22 17:27:00,
2013-03-22 11:28:00,58.5,7.8,29.78,SSE,158,2.5,2.5,13,0.00,,---,0.00,VWS V14.01,2013-03-22 17:28:00,
2013-03-22 11:29:00,58.5,6.1,29.78,SW,225,2.9,2.9,12,0.00,,---,0.00,VWS V14.01,2013-03-22 17:29:00,
2013-03-22 11:30:00,58.3,7.7,29.78,ESE,112,2.0,2.9,13,0.00,,---,0.00,VWS V14.01,2013-03-22 17:30:00,
2013-03-22 11:31:00,58.1,7.5,29.78,SSE,158,2.7,2.7,13,0.00,,---,0.00,VWS V14.01,2013-03-22 17:31:00,
2013-03-22 11:32:00,58.1,7.5,29.77,South,180,1.8,2.7,13,0.00,,---,0.00,VWS V14.01,2013-03-22 17:32:00,
2013-03-22 11:33:00,58.0,7.4,29.77,SSW,202,3.8,3.8,13,0.00,,---,0.00,VWS V14.01,2013-03-22 17:33:00,
2013-03-22 11:34:00,57.8,7.3,29.77,SSW,202,2.5,2.5,13,0.00,,---,0.00,VWS V14.01,2013-03-22 17:34:00,
2013-03-22 11:35:00,57.6,7.1,29.77,SW,225,2.5,2.5,13,0.00,,---,0.00,VWS V14.01,2013-03-22 17:35:00,
2013-03-22 11:36:00,57.6,7.1,29.78,SSW,202,2.2,2.5,13,0.00,,---,0.00,VWS V14.01,2013-03-22 17:36:00,
2013-03-22 11:37:00,57.6,7.1,29.77,SSE,158,1.8,2.2,13,0.00,,---,0.00,VWS V14.01,2013-03-22 17:37:00,
2013-03-22 11:38:00,57.8,7.3,29.77,SSE,158,1.1,1.8,13,0.00,,---,0.00,VWS V14.01,2013-03-22 17:38:00,
2013-03-22 11:39:00,58.0,7.4,29.77,SSE,158,1.1,1.1,13,0.00,,---,0.00,VWS V14.01,2013-03-22 17:39:00,
2013-03-22 11:40:00,58.3,7.7,29.77,SW,225,0.9,1.1,13,0.00,,---,0.00,VWS V14.01,2013-03-22 17:40:00,
2013-03-22 11:41:00,58.7,8.0,29.77,South,180,0.4,0.9,13,0.00,,---,0.00,VWS V14.01,2013-03-22 17:41:00,
2013-03-22 11:42:00,58.9,8.2,29.77,SE,135,2.5,2.5,13,0.00,,---,0.00,VWS V14.01,2013-03-22 17:42:00,
2013-03-22 11:43:00,59.0,8.2,29.77,ESE,112,1.1,2.5,13,0.00,,---,0.00,VWS V14.01,2013-03-22 17:43:00,
2013-03-22 11:44:00,59.4,8.6,29.77,East,90,2.0,2.0,13,0.00,,---,0.00,VWS V14.01,2013-03-22 17:44:00,
2013-03-22 11:45:00,59.6,8.7,29.77,SSE,158,1.8,2.0,13,0.00,,---,0.00,VWS V14.01,2013-03-22 17:45:00,
2013-03-22 11:46:00,59.6,8.7,29.77,SSE,158,3.1,3.1,13,0.00,,---,0.00,VWS V14.01,2013-03-22 17:46:00,
2013-03-22 11:47:00,59.6,8.7,29.77,SSE,158,2.7,3.1,13,0.00,,---,0.00,VWS V14.01,2013-03-22 17:47:00,
2013-03-22 11:48:00,59.6,8.7,29.77,SSW,202,3.4,3.4,13,0.00,,---,0.00,VWS V14.01,2013-03-22 17:48:00,
2013-03-22 11:49:00,59.4,8.6,29.77,SE,135,0.7,0.7,13,0.00,,---,0.00,VWS V14.01,2013-03-22 17:49:00,
2013-03-22 11:50:00,59.4,8.6,29.77,SE,135,0.4,0.7,13,0.00,,---,0.00,VWS V14.01,2013-03-22 17:50:00,
2013-03-22 11:51:00,59.6,8.7,29.77,SSE,158,2.5,2.5,13,0.00,,---,0.00,VWS V14.01,2013-03-22 17:51:00,
2013-03-22 11:52:00,59.8,8.9,29.77,SSE,158,2.2,2.5,13,0.00,,---,0.00,VWS V14.01,2013-03-22 17:52:00,
2013-03-22 11:53:00,59.8,8.9,29.77,SSE,158,2.5,2.5,13,0.00,,---,0.00,VWS V14.01,2013-03-22 17:53:00,
2013-03-22 11:54:00,59.8,8.9,29.77,SSW,202,0.7,0.7,13,0.00,,---,0.00,VWS V14.01,2013-03-22 17:54:00,
2013-03-22 11:55:00,59.8,8.9,29.77,SW,225,0.2,0.7,13,0.00,,---,0.00,VWS V14.01,2013-03-22 17:55:00,
2013-03-22 11:56:00,59.9,9.0,29.77,SSE,158,1.1,1.1,13,0.00,,---,0.00,VWS V14.01,2013-03-22 17:56:00,
2013-03-22 11:57:00,60.3,9.3,29.77,South,180,1.1,1.1,13,0.00,,---,0.00,VWS V14.01,2013-03-22 17:57:00,
2013-03-22 11:58:00,60.5,9.4,29.76,SE,135,1.6,1.6,13,0.00,,---,0.00,VWS V14.01,2013-03-22 17:58:00,
2013-03-22 11:59:00,60.8,9.7,29.77,SSW,202,2.0,2.0,13,0.00,,---,0.00,VWS V14.01,2013-03-22 17:59:00,
2013-03-22 12:00:00,60.8,9.7,29.77,SSW,202,0.9,2.0,13,0.00,,---,0.00,VWS V14.01,2013-03-22 18:00:00,
2013-03-22 12:01:00,60.8,9.7,29.76,SSE,158,4.0,4.0,13,0.00,,---,0.00,VWS V14.01,2013-03-22 18:01:00,
2013-03-22 12:02:00,60.8,9.7,29.77,South,180,2.7,4.0,13,0.00,,---,0.00,VWS V14.01,2013-03-22 18:02:00,
2013-03-22 12:03:00,60.8,9.7,29.77,SW,225,4.7,4.7,13,0.00,,---,0.00,VWS V14.01,2013-03-22 18:03:00,
2013-03-22 12:04:00,60.5,9.4,29.76,WSW,248,2.5,2.5,13,0.00,,---,0.00,VWS V14.01,2013-03-22 18:04:00,
2013-03-22 12:05:00,60.1,9.1,29.76,SSW,202,2.7,2.7,13,0.00,,---,0.00,VWS V14.01,2013-03-22 18:05:00,
2013-03-22 12:06:00,59.8,8.9,29.76,SW,225,2.7,2.7,13,0.00,,---,0.00,VWS V14.01,2013-03-22 18:06:00,
2013-03-22 12:07:00,59.8,8.9,29.76,SSE,158,4.7,4.7,13,0.00,,---,0.00,VWS V14.01,2013-03-22 18:07:00,
2013-03-22 12:08:00,59.8,8.9,29.76,SSE,158,2.0,4.7,13,0.00,,---,0.00,VWS V14.01,2013-03-22 18:08:00,
2013-03-22 12:09:00,60.1,9.1,29.76,SSE,158,2.5,2.5,13,0.00,,---,0.00,VWS V14.01,2013-03-22 18:09:00,
2013-03-22 12:10:00,60.1,9.1,29.76,SW,225,3.8,3.8,13,0.00,,---,0.00,VWS V14.01,2013-03-22 18:10:00,
2013-03-22 12:11:00,59.8,8.9,29.76,SW,225,2.7,3.8,13,0.00,,---,0.00,VWS V14.01,2013-03-22 18:11:00,
2013-03-22 12:12:00,59.8,8.9,29.76,SSE,158,2.5,2.7,13,0.00,,---,0.00,VWS V14.01,2013-03-22 18:12:00,
2013-03-22 12:13:00,59.8,8.9,29.76,South,180,1.8,2.5,13,0.00,,---,0.00,VWS V14.01,2013-03-22 18:13:00,
2013-03-22 12:14:00,59.8,8.9,29.76,South,180,3.8,3.8,13,0.00,,---,0.00,VWS V14.01,2013-03-22 18:14:00,
2013-03-22 12:15:00,59.6,8.7,29.75,SW,225,4.7,4.7,13,0.00,,---,0.00,VWS V14.01,2013-03-22 18:15:00,
2013-03-22 12:16:00,59.6,8.7,29.75,SSE,158,4.3,4.7,13,0.00,,---,0.00,VWS V14.01,2013-03-22 18:16:00,
2013-03-22 12:17:00,59.8,8.9,29.75,SE,135,4.5,4.5,13,0.00,,---,0.00,VWS V14.01,2013-03-22 18:17:00,
2013-03-22 12:18:00,59.9,10.6,29.75,South,180,1.8,4.5,14,0.00,,---,0.00,VWS V14.01,2013-03-22 18:18:00,
2013-03-22 12:19:00,60.1,9.1,29.75,SSW,202,3.1,3.1,13,0.00,,---,0.00,VWS V14.01,2013-03-22 18:19:00,
2013-03-22 12:20:00,59.9,9.0,29.75,SSE,158,2.5,3.1,13,0.00,,---,0.00,VWS V14.01,2013-03-22 18:20:00,
2013-03-22 12:21:00,59.8,8.9,29.75,South,180,1.8,2.5,13,0.00,,---,0.00,VWS V14.01,2013-03-22 18:21:00,
2013-03-22 12:22:00,59.6,8.7,29.75,SW,225,2.5,2.5,13,0.00,,---,0.00,VWS V14.01,2013-03-22 18:22:00,
2013-03-22 12:23:00,59.6,8.7,29.75,WSW,248,4.0,4.0,13,0.00,,---,0.00,VWS V14.01,2013-03-22 18:23:00,
2013-03-22 12:24:00,59.6,10.4,29.75,SSE,158,1.8,1.8,14,0.00,,---,0.00,VWS V14.01,2013-03-22 18:24:00,
2013-03-22 12:25:00,59.8,8.9,29.75,SSE,158,5.4,5.4,13,0.00,,---,0.00,VWS V14.01,2013-03-22 18:25:00,
2013-03-22 12:26:00,59.8,8.9,29.75,SE,135,2.5,5.4,13,0.00,,---,0.00,VWS V14.01,2013-03-22 18:26:00,
2013-03-22 12:27:00,59.9,9.0,29.75,ESE,112,2.5,2.5,13,0.00,,---,0.00,VWS V14.01,2013-03-22 18:27:00,
2013-03-22 12:28:00,60.1,10.8,29.75,SE,135,1.3,2.5,14,0.00,,---,0.00,VWS V14.01,2013-03-22 18:28:00,
2013-03-22 12:29:00,60.3,9.3,29.75,South,180,4.0,4.0,13,0.00,,---,0.00,VWS V14.01,2013-03-22 18:29:00,
2013-03-22 12:30:00,60.5,9.4,29.75,SW,225,4.7,4.7,13,0.00,,---,0.00,VWS V14.01,2013-03-22 18:30:00,
2013-03-22 12:31:00,60.3,9.3,29.75,South,180,8.1,8.1,13,0.00,,---,0.00,VWS V14.01,2013-03-22 18:31:00,
2013-03-22 12:32:00,59.9,9.0,29.75,South,180,4.0,8.1,13,0.00,,---,0.00,VWS V14.01,2013-03-22 18:32:00,
2013-03-22 12:33:00,59.4,8.6,29.75,SSW,202,4.7,4.7,13,0.00,,---,0.00,VWS V14.01,2013-03-22 18:33:00,
2013-03-22 12:34:00,59.4,8.6,29.75,South,180,6.9,6.9,13,0.00,,---,0.00,VWS V14.01,2013-03-22 18:34:00,
2013-03-22 12:35:00,59.0,8.2,29.75,West,270,4.0,6.9,13,0.00,,---,0.00,VWS V14.01,2013-03-22 18:35:00,
2013-03-22 12:36:00,59.0,8.2,29.75,West,270,6.0,6.0,13,0.00,,---,0.00,VWS V14.01,2013-03-22 18:36:00,
2013-03-22 12:37:00,58.9,8.2,29.75,SW,225,4.7,6.0,13,0.00,,---,0.00,VWS V14.01,2013-03-22 18:37:00,
2013-03-22 12:38:00,58.7,8.0,29.75,SW,225,5.4,5.4,13,0.00,,---,0.00,VWS V14.01,2013-03-22 18:38:00,
2013-03-22 12:39:00,58.5,11.0,29.74,South,180,1.3,1.3,15,0.00,,---,0.00,VWS V14.01,2013-03-22 18:39:00,
2013-03-22 12:40:00,58.7,8.0,29.75,SSW,202,5.1,5.1,13,0.00,,---,0.00,VWS V14.01,2013-03-22 18:40:00,
2013-03-22 12:41:00,58.7,8.0,29.74,SW,225,2.0,5.1,13,0.00,,---,0.00,VWS V14.01,2013-03-22 18:41:00,
2013-03-22 12:42:00,58.5,7.8,29.74,SSW,202,2.7,2.7,13,0.00,,---,0.00,VWS V14.01,2013-03-22 18:42:00,
2013-03-22 12:43:00,58.5,7.8,29.74,SE,135,0.9,2.7,13,0.00,,---,0.00,VWS V14.01,2013-03-22 18:43:00,
2013-03-22 12:44:00,58.7,11.2,29.74,West,270,1.1,1.1,15,0.00,,---,0.00,VWS V14.01,2013-03-22 18:44:00,
2013-03-22 12:45:00,58.9,9.8,29.74,SSW,202,1.6,1.6,14,0.00,,---,0.00,VWS V14.01,2013-03-22 18:45:00,
2013-03-22 12:46:00,59.0,8.2,29.74,SSW,202,3.6,3.6,13,0.00,,---,0.00,VWS V14.01,2013-03-22 18:46:00,
2013-03-22 12:47:00,59.0,8.2,29.74,SW,225,7.6,7.6,13,0.00,,---,0.00,VWS V14.01,2013-03-22 18:47:00,
2013-03-22 12:48:00,58.9,8.2,29.74,South,180,5.4,7.6,13,0.00,,---,0.00,VWS V14.01,2013-03-22 18:48:00,
2013-03-22 12:49:00,58.9,8.2,29.74,South,180,5.6,5.6,13,0.00,,---,0.00,VWS V14.01,2013-03-22 18:49:00,
2013-03-22 12:50:00,59.0,8.2,29.74,SW,225,9.6,9.6,13,0.00,,---,0.00,VWS V14.01,2013-03-22 18:50:00,
2013-03-22 12:51:00,59.0,8.2,29.74,SSW,202,4.5,9.6,13,0.00,,---,0.00,VWS V14.01,2013-03-22 18:51:00,
2013-03-22 12:52:00,59.2,8.4,29.74,SW,225,6.3,6.3,13,0.00,,---,0.00,VWS V14.01,2013-03-22 18:52:00,
2013-03-22 12:53:00,59.2,8.4,29.74,SW,225,6.3,6.3,13,0.00,,---,0.00,VWS V14.01,2013-03-22 18:53:00,
2013-03-22 12:54:00,59.0,8.2,29.74,West,270,4.7,4.7,13,0.00,,---,0.00,VWS V14.01,2013-03-22 18:54:00,
2013-03-22 12:55:00,59.0,8.2,29.74,West,270,2.7,4.7,13,0.00,,---,0.00,VWS V14.01,2013-03-22 18:55:00,
2013-03-22 12:56:00,58.9,8.2,29.74,SSW,202,3.4,3.4,13,0.00,,---,0.00,VWS V14.01,2013-03-22 18:56:00,
2013-03-22 12:57:00,59.0,8.2,29.74,SW,225,2.9,3.4,13,0.00,,---,0.00,VWS V14.01,2013-03-22 18:57:00,
2013-03-22 12:58:00,59.0,8.2,29.74,SW,225,2.5,2.9,13,0.00,,---,0.00,VWS V14.01,2013-03-22 18:58:00,
2013-03-22 12:59:00,59.0,8.2,29.74,WSW,248,2.9,2.9,13,0.00,,---,0.00,VWS V14.01,2013-03-22 18:59:00,
2013-03-22 13:00:00,59.0,8.2,29.74,SSW,202,1.1,2.9,13,0.00,,---,0.00,VWS V14.01,2013-03-22 19:00:00,
2013-03-22 13:01:00,59.0,8.2,29.73,WNW,292,3.6,3.6,13,0.00,,---,0.00,VWS V14.01,2013-03-22 19:01:00,
2013-03-22 13:02:00,59.0,8.2,29.73,NNW,338,0.9,3.6,13,0.00,,---,0.00,VWS V14.01,2013-03-22 19:02:00,
2013-03-22 13:03:00,59.0,8.2,29.73,SW,225,3.6,3.6,13,0.00,,---,0.00,VWS V14.01,2013-03-22 19:03:00,
2013-03-22 13:04:00,59.0,8.2,29.73,SW,225,0.7,0.7,13,0.00,,---,0.00,VWS V14.01,2013-03-22 19:04:00,
2013-03-22 13:05:00,59.2,8.4,29.73,SE,135,1.8,1.8,13,0.00,,---,0.00,VWS V14.01,2013-03-22 19:05:00,
2013-03-22 13:06:00,59.4,8.6,29.73,South,180,4.0,4.0,13,0.00,,---,0.00,VWS V14.01,2013-03-22 19:06:00,
2013-03-22 13:07:00,59.6,8.7,29.73,SSE,158,3.4,4.0,13,0.00,,---,0.00,VWS V14.01,2013-03-22 19:07:00,
2013-03-22 13:08:00,59.8,8.9,29.73,South,180,2.9,3.4,13,0.00,,---,0.00,VWS V14.01,2013-03-22 19:08:00,
2013-03-22 13:09:00,60.1,9.1,29.73,SSE,158,3.6,3.6,13,0.00,,---,0.00,VWS V14.01,2013-03-22 19:09:00,
2013-03-22 13:10:00,60.3,9.3,29.73,South,180,5.1,5.1,13,0.00,,---,0.00,VWS V14.01,2013-03-22 19:10:00,
2013-03-22 13:11:00,60.3,9.3,29.72,SSW,202,5.4,5.4,13,0.00,,---,0.00,VWS V14.01,2013-03-22 19:11:00,
2013-03-22 13:12:00,60.5,9.4,29.72,SSE,158,1.3,5.4,13,0.00,,---,0.00,VWS V14.01,2013-03-22 19:12:00,
2013-03-22 13:13:00,60.5,9.4,29.72,South,180,0.7,1.3,13,0.00,,---,0.00,VWS V14.01,2013-03-22 19:13:00,
2013-03-22 13:14:00,60.7,9.6,29.73,South,180,2.0,2.0,13,0.00,,---,0.00,VWS V14.01,2013-03-22 19:14:00,
2013-03-22 13:15:00,60.8,9.7,29.73,South,180,1.3,2.0,13,0.00,,---,0.00,VWS V14.01,2013-03-22 19:15:00,
2013-03-22 13:16:00,60.8,9.7,29.73,SE,135,2.9,2.9,13,0.00,,---,0.00,VWS V14.01,2013-03-22 19:16:00,
2013-03-22 13:17:00,61.0,9.8,29.72,SE,135,2.5,2.9,13,0.00,,---,0.00,VWS V14.01,2013-03-22 19:17:00,
2013-03-22 13:18:00,61.0,9.8,29.72,SE,135,4.0,4.0,13,0.00,,---,0.00,VWS V14.01,2013-03-22 19:18:00,
2013-03-22 13:19:00,61.2,8.2,29.72,SSE,158,4.9,4.9,12,0.00,,---,0.00,VWS V14.01,2013-03-22 19:19:00,
2013-03-22 13:20:00,60.8,7.9,29.72,SSW,202,2.0,4.9,12,0.00,,---,0.00,VWS V14.01,2013-03-22 19:20:00,
2013-03-22 13:21:00,60.8,7.9,29.72,SW,225,2.0,2.0,12,0.00,,---,0.00,VWS V14.01,2013-03-22 19:21:00,
2013-03-22 13:22:00,60.7,7.8,29.72,South,180,4.0,4.0,12,0.00,,---,0.00,VWS V14.01,2013-03-22 19:22:00,
2013-03-22 13:23:00,60.7,9.6,29.72,SSE,158,3.1,4.0,13,0.00,,---,0.00,VWS V14.01,2013-03-22 19:23:00,
2013-03-22 13:24:00,60.8,7.9,29.72,South,180,2.0,2.0,12,0.00,,---,0.00,VWS V14.01,2013-03-22 19:24:00,
2013-03-22 13:25:00,60.8,7.9,29.72,South,180,4.3,4.3,12,0.00,,---,0.00,VWS V14.01,2013-03-22 19:25:00,
2013-03-22 13:26:00,60.8,9.7,29.72,SSE,158,4.7,4.7,13,0.00,,---,0.00,VWS V14.01,2013-03-22 19:26:00,
2013-03-22 13:27:00,61.0,9.8,29.72,SSW,202,5.4,5.4,13,0.00,,---,0.00,VWS V14.01,2013-03-22 19:27:00,
2013-03-22 13:28:00,61.2,10.0,29.72,WSW,248,8.1,8.1,13,0.00,,---,0.00,VWS V14.01,2013-03-22 19:28:00,
2013-03-22 13:29:00,61.2,10.0,29.72,SSW,202,9.2,9.2,13,0.00,,---,0.00,VWS V14.01,2013-03-22 19:29:00,
2013-03-22 13:30:00,60.8,9.7,29.72,SSW,202,6.3,9.2,13,0.00,,---,0.00,VWS V14.01,2013-03-22 19:30:00,
2013-03-22 13:31:00,60.7,9.6,29.72,SSW,202,3.4,6.3,13,0.00,,---,0.00,VWS V14.01,2013-03-22 19:31:00,
2013-03-22 13:32:00,60.7,9.6,29.72,SW,225,6.0,6.0,13,0.00,,---,0.00,VWS V14.01,2013-03-22 19:32:00,
2013-03-22 13:33:00,60.7,9.6,29.72,WSW,248,5.4,6.0,13,0.00,,---,0.00,VWS V14.01,2013-03-22 19:33:00,
2013-03-22 13:34:00,60.5,9.4,29.72,WNW,292,5.4,5.4,13,0.00,,---,0.00,VWS V14.01,2013-03-22 19:34:00,
2013-03-22 13:35:00,60.5,9.4,29.71,West,270,2.5,5.4,13,0.00,,---,0.00,VWS V14.01,2013-03-22 19:35:00,
2013-03-22 13:36:00,60.5,9.4,29.71,SW,225,2.0,2.5,13,0.00,,---,0.00,VWS V14.01,2013-03-22 19:36:00,
2013-03-22 13:37:00,60.3,9.3,29.72,South,180,2.5,2.5,13,0.00,,---,0.00,VWS V14.01,2013-03-22 19:37:00,
2013-03-22 13:38:00,60.1,9.1,29.71,SSW,202,2.2,2.5,13,0.00,,---,0.00,VWS V14.01,2013-03-22 19:38:00,
2013-03-22 13:39:00,60.1,9.1,29.71,SSW,202,2.2,2.2,13,0.00,,---,0.00,VWS V14.01,2013-03-22 19:39:00,
2013-03-22 13:40:00,60.1,9.1,29.71,SSE,158,2.5,5.4,13,0.00,,---,0.00,VWS V14.01,2013-03-22 19:40:00,
2013-03-22 13:41:00,60.3,9.3,29.71,South,180,3.8,3.8,13,0.00,,---,0.00,VWS V14.01,2013-03-22 19:41:00,
2013-03-22 13:42:00,60.3,9.3,29.71,South,180,5.6,5.6,13,0.00,,---,0.00,VWS V14.01,2013-03-22 19:42:00,
2013-03-22 13:43:00,60.5,9.4,29.71,South,180,3.4,5.6,13,0.00,,---,0.00,VWS V14.01,2013-03-22 19:43:00,
2013-03-22 13:44:00,60.5,9.4,29.71,South,180,3.4,3.4,13,0.00,,---,0.00,VWS V14.01,2013-03-22 19:44:00,
2013-03-22 13:45:00,60.3,9.3,29.71,SSW,202,5.8,5.8,13,0.00,,---,0.00,VWS V14.01,2013-03-22 19:45:00,
2013-03-22 13:46:00,60.3,9.3,29.71,SW,225,7.4,7.4,13,0.00,,---,0.00,VWS V14.01,2013-03-22 19:46:00,
2013-03-22 13:47:00,60.3,9.3,29.70,WSW,248,8.5,8.5,13,0.00,,---,0.00,VWS V14.01,2013-03-22 19:47:00,
2013-03-22 13:48:00,60.3,9.3,29.70,West,270,4.5,8.5,13,0.00,,---,0.00,VWS V14.01,2013-03-22 19:48:00,
2013-03-22 13:49:00,60.3,9.3,29.70,West,270,4.5,4.5,13,0.00,,---,0.00,VWS V14.01,2013-03-22 19:49:00,
2013-03-22 13:50:00,60.3,9.3,29.70,SW,225,4.9,5.8,13,0.00,,---,0.00,VWS V14.01,2013-03-22 19:50:00,
2013-03-22 13:51:00,60.3,9.3,29.70,SW,225,3.8,4.9,13,0.00,,---,0.00,VWS V14.01,2013-03-22 19:51:00,
2013-03-22 13:52:00,60.5,9.4,29.70,SSW,202,4.3,4.3,13,0.00,,---,0.00,VWS V14.01,2013-03-22 19:52:00,
2013-03-22 13:53:00,60.5,9.4,29.70,WSW,248,3.4,4.3,13,0.00,,---,0.00,VWS V14.01,2013-03-22 19:53:00,
2013-03-22 13:54:00,60.5,9.4,29.70,WSW,248,3.4,3.4,13,0.00,,---,0.00,VWS V14.01,2013-03-22 19:54:00,
2013-03-22 13:55:00,59.9,9.0,29.70,SW,225,6.9,6.9,13,0.00,,---,0.00,VWS V14.01,2013-03-22 19:55:00,
2013-03-22 13:56:00,59.8,8.9,29.70,SW,225,4.7,6.9,13,0.00,,---,0.00,VWS V14.01,2013-03-22 19:56:00,
2013-03-22 13:57:00,59.8,12.1,29.70,WSW,248,6.3,6.3,15,0.00,,---,0.00,VWS V14.01,2013-03-22 19:57:00,
2013-03-22 13:58:00,59.6,11.9,29.70,SW,225,6.9,6.9,15,0.00,,---,0.00,VWS V14.01,2013-03-22 19:58:00,
2013-03-22 13:59:00,59.6,11.9,29.70,SW,225,6.9,6.9,15,0.00,,---,0.00,VWS V14.01,2013-03-22 19:59:00,
2013-03-22 14:00:00,59.6,11.9,29.70,WSW,248,3.4,3.4,15,0.00,,---,0.00,VWS V14.01,2013-03-22 20:00:00,
2013-03-22 14:01:00,59.4,11.8,29.70,SSW,202,6.7,6.7,15,0.00,,---,0.00,VWS V14.01,2013-03-22 20:01:00,
2013-03-22 14:02:00,59.4,11.8,29.70,SSE,158,6.3,6.7,15,0.00,,---,0.00,VWS V14.01,2013-03-22 20:02:00,
2013-03-22 14:03:00,59.4,13.2,29.70,SE,135,3.8,6.3,16,0.00,,---,0.00,VWS V14.01,2013-03-22 20:03:00,
2013-03-22 14:04:00,59.4,11.8,29.70,NE,45,0.4,0.4,15,0.00,,---,0.00,VWS V14.01,2013-03-22 20:04:00,
2013-03-22 14:05:00,59.4,13.2,29.70,SE,135,2.5,2.5,16,0.00,,---,0.00,VWS V14.01,2013-03-22 20:05:00,
2013-03-22 14:06:00,59.4,13.2,29.70,SSW,202,4.3,4.3,16,0.00,,---,0.00,VWS V14.01,2013-03-22 20:06:00,
2013-03-22 14:07:00,59.4,11.8,29.70,WSW,248,7.8,7.8,15,0.00,,---,0.00,VWS V14.01,2013-03-22 20:07:00,
2013-03-22 14:08:00,59.2,11.6,29.70,South,180,4.9,7.8,15,0.00,,---,0.00,VWS V14.01,2013-03-22 20:08:00,
2013-03-22 14:09:00,59.4,11.8,29.70,SW,225,3.8,3.8,15,0.00,,---,0.00,VWS V14.01,2013-03-22 20:09:00,
2013-03-22 14:10:00,59.4,11.8,29.69,SSW,202,6.7,6.7,15,0.00,,---,0.00,VWS V14.01,2013-03-22 20:10:00,
2013-03-22 14:11:00,59.4,11.8,29.69,South,180,5.4,6.7,15,0.00,,---,0.00,VWS V14.01,2013-03-22 20:11:00,
2013-03-22 14:12:00,59.4,13.2,29.69,South,180,8.5,8.5,16,0.00,,---,0.00,VWS V14.01,2013-03-22 20:12:00,
2013-03-22 14:13:00,59.0,15.6,29.69,South,180,10.5,10.5,18,0.00,,---,0.00,VWS V14.01,2013-03-22 20:13:00,
2013-03-22 14:14:00,59.0,14.3,29.69,WSW,248,9.8,9.8,17,0.00,,---,0.00,VWS V14.01,2013-03-22 20:14:00,
2013-03-22 14:15:00,58.7,14.0,29.69,SSW,202,6.9,9.8,17,0.00,,---,0.00,VWS V14.01,2013-03-22 20:15:00,
2013-03-22 14:16:00,58.5,13.9,29.69,SW,225,5.8,6.9,17,0.00,,---,0.00,VWS V14.01,2013-03-22 20:16:00,
2013-03-22 14:17:00,58.3,13.7,29.69,SSW,202,3.6,5.8,17,0.00,,---,0.00,VWS V14.01,2013-03-22 20:17:00,
2013-03-22 14:18:00,58.3,13.7,29.69,SW,225,8.7,8.7,17,0.00,,---,0.00,VWS V14.01,2013-03-22 20:18:00,
2013-03-22 14:19:00,58.3,13.7,29.69,SSW,202,6.3,6.3,17,0.00,,---,0.00,VWS V14.01,2013-03-22 20:19:00,
2013-03-22 14:20:00,58.1,13.5,29.69,SSW,202,7.8,7.8,17,0.00,,---,0.00,VWS V14.01,2013-03-22 20:20:00,
2013-03-22 14:21:00,58.3,13.7,29.69,SSW,202,4.3,7.8,17,0.00,,---,0.00,VWS V14.01,2013-03-22 20:21:00,
2013-03-22 14:22:00,58.3,13.7,29.69,SSW,202,5.8,5.8,17,0.00,,---,0.00,VWS V14.01,2013-03-22 20:22:00,
2013-03-22 14:23:00,58.3,13.7,29.69,WSW,248,2.5,5.8,17,0.00,,---,0.00,VWS V14.01,2013-03-22 20:23:00,
2013-03-22 14:24:00,58.5,13.9,29.69,SW,225,2.2,2.2,17,0.00,,---,0.00,VWS V14.01,2013-03-22 20:24:00,
2013-03-22 14:25:00,58.7,14.0,29.69,SW,225,5.4,5.4,17,0.00,,---,0.00,VWS V14.01,2013-03-22 20:25:00,
2013-03-22 14:26:00,58.7,14.0,29.69,SW,225,2.5,5.4,17,0.00,,---,0.00,VWS V14.01,2013-03-22 20:26:00,
2013-03-22 14:27:00,58.7,14.0,29.69,SW,225,1.6,2.5,17,0.00,,---,0.00,VWS V14.01,2013-03-22 20:27:00,
2013-03-22 14:28:00,58.7,14.0,29.69,SSW,202,4.0,4.0,17,0.00,,---,0.00,VWS V14.01,2013-03-22 20:28:00,
2013-03-22 14:29:00,58.7,14.0,29.69,SW,225,2.2,2.2,17,0.00,,---,0.00,VWS V14.01,2013-03-22 20:29:00,
2013-03-22 14:30:00,58.7,14.0,29.69,West,270,2.2,2.2,17,0.00,,---,0.00,VWS V14.01,2013-03-22 20:30:00,
2013-03-22 14:33:00,59.0,12.9,29.69,SSW,202,4.0,4.7,16,0.00,,---,0.00,VWS V14.01,2013-03-22 20:33:00,
2013-03-22 14:34:00,59.0,12.9,29.69,SW,225,2.5,4.0,16,0.00,,---,0.00,VWS V14.01,2013-03-22 20:34:00,
2013-03-22 14:35:00,59.2,13.1,29.69,SSW,202,2.5,2.5,16,0.00,,---,0.00,VWS V14.01,2013-03-22 20:35:00,
2013-03-22 14:36:00,59.2,13.1,29.69,SW,225,4.7,4.7,16,0.00,,---,0.00,VWS V14.01,2013-03-22 20:36:00,
2013-03-22 14:37:00,59.4,13.2,29.69,SW,225,2.7,4.7,16,0.00,,---,0.00,VWS V14.01,2013-03-22 20:37:00,
2013-03-22 14:38:00,59.4,13.2,29.69,SW,225,4.5,4.5,16,0.00,,---,0.00,VWS V14.01,2013-03-22 20:38:00,
2013-03-22 14:39:00,59.4,13.2,29.69,SW,225,4.5,4.5,16,0.00,,---,0.00,VWS V14.01,2013-03-22 20:39:00,
2013-03-22 14:40:00,59.0,12.9,29.69,WSW,248,3.8,5.4,16,0.00,,---,0.00,VWS V14.01,2013-03-22 20:40:00,
2013-03-22 14:41:00,59.0,12.9,29.69,WSW,248,4.7,4.7,16,0.00,,---,0.00,VWS V14.01,2013-03-22 20:41:00,
2013-03-22 14:42:00,59.0,12.9,29.69,SW,225,1.8,4.7,16,0.00,,---,0.00,VWS V14.01,2013-03-22 20:42:00,
2013-03-22 14:43:00,59.0,12.9,29.69,WSW,248,6.7,6.7,16,0.00,,---,0.00,VWS V14.01,2013-03-22 20:43:00,
2013-03-22 14:44:00,59.0,12.9,29.69,WSW,248,6.7,6.7,16,0.00,,---,0.00,VWS V14.01,2013-03-22 20:44:00,
2013-03-22 14:45:00,58.9,12.8,29.69,WSW,248,3.4,7.6,16,0.00,,---,0.00,VWS V14.01,2013-03-22 20:45:00,
2013-03-22 14:46:00,58.9,12.8,29.69,WSW,248,1.1,3.4,16,0.00,,---,0.00,VWS V14.01,2013-03-22 20:46:00,
2013-03-22 14:47:00,58.9,12.8,29.69,SSW,202,2.7,2.7,16,0.00,,---,0.00,VWS V14.01,2013-03-22 20:47:00,
2013-03-22 14:48:00,58.9,12.8,29.69,West,270,1.8,2.7,16,0.00,,---,0.00,VWS V14.01,2013-03-22 20:48:00,
2013-03-22 14:49:00,58.9,12.8,29.69,West,270,1.8,1.8,16,0.00,,---,0.00,VWS V14.01,2013-03-22 20:49:00,
2013-03-22 14:50:00,58.9,12.8,29.69,SW,225,2.5,4.9,16,0.00,,---,0.00,VWS V14.01,2013-03-22 20:50:00,
2013-03-22 14:51:00,59.0,12.9,29.69,West,270,2.9,2.9,16,0.00,,---,0.00,VWS V14.01,2013-03-22 20:51:00,
2013-03-22 14:52:00,59.0,12.9,29.68,West,270,3.8,3.8,16,0.00,,---,0.00,VWS V14.01,2013-03-22 20:52:00,
2013-03-22 14:53:00,59.0,12.9,29.69,SSE,158,2.0,3.8,16,0.00,,---,0.00,VWS V14.01,2013-03-22 20:53:00,
2013-03-22 14:54:00,59.0,12.9,29.69,SSE,158,2.0,2.0,16,0.00,,---,0.00,VWS V14.01,2013-03-22 20:54:00,
2013-03-22 14:55:00,59.2,13.1,29.68,WSW,248,1.3,1.3,16,0.00,,---,0.00,VWS V14.01,2013-03-22 20:55:00,
2013-03-22 14:56:00,59.2,13.1,29.68,WSW,248,4.5,4.5,16,0.00,,---,0.00,VWS V14.01,2013-03-22 20:56:00,
2013-03-22 14:57:00,59.2,11.6,29.68,SSW,202,2.5,4.5,15,0.00,,---,0.00,VWS V14.01,2013-03-22 20:57:00,
2013-03-22 14:58:00,59.0,11.4,29.68,WNW,292,1.8,2.5,15,0.00,,---,0.00,VWS V14.01,2013-03-22 20:58:00,
2013-03-22 14:59:00,59.0,11.4,29.68,WNW,292,1.8,1.8,15,0.00,,---,0.00,VWS V14.01,2013-03-22 20:59:00,
2013-03-22 15:00:00,59.0,11.4,29.68,West,270,5.8,5.8,15,0.00,,---,0.00,VWS V14.01,2013-03-22 21:00:00,
2013-03-22 15:01:00,58.9,12.8,29.68,NNW,338,2.0,5.8,16,0.00,,---,0.00,VWS V14.01,2013-03-22 21:01:00,
2013-03-22 15:02:00,58.9,12.8,29.68,NNW,338,2.9,2.9,16,0.00,,---,0.00,VWS V14.01,2013-03-22 21:02:00,
2013-03-22 15:03:00,58.9,11.4,29.68,WNW,292,3.4,3.4,15,0.00,,---,0.00,VWS V14.01,2013-03-22 21:03:00,
2013-03-22 15:04:00,58.9,11.4,29.68,NNW,338,2.7,2.7,15,0.00,,---,0.00,VWS V14.01,2013-03-22 21:04:00,
2013-03-22 15:05:00,58.7,11.2,29.68,NW,315,3.4,3.4,15,0.00,,---,0.00,VWS V14.01,2013-03-22 21:05:00,
2013-03-22 15:06:00,58.7,11.2,29.68,North,0,3.4,3.4,15,0.00,,---,0.00,VWS V14.01,2013-03-22 21:06:00,
2013-03-22 15:07:00,58.5,11.0,29.68,NNE,22,1.1,3.4,15,0.00,,---,0.00,VWS V14.01,2013-03-22 21:07:00,
2013-03-22 15:08:00,58.5,12.5,29.68,NNE,22,0.7,1.1,16,0.00,,---,0.00,VWS V14.01,2013-03-22 21:08:00,
2013-03-22 15:09:00,58.7,12.6,29.68,North,0,0.0,0.0,16,0.00,,---,0.00,VWS V14.01,2013-03-22 21:09:00,
2013-03-22 15:10:00,58.5,12.5,29.68,North,0,0.0,0.0,16,0.00,,---,0.00,VWS V14.01,2013-03-22 21:10:00,
2013-03-22 15:11:00,58.5,11.0,29.68,SSW,202,1.1,1.1,15,0.00,,---,0.00,VWS V14.01,2013-03-22 21:11:00,
2013-03-22 15:12:00,58.7,11.2,29.68,SSW,202,0.9,1.1,15,0.00,,---,0.00,VWS V14.01,2013-03-22 21:12:00,
2013-03-22 15:13:00,58.5,11.0,29.68,SSW,202,0.0,0.9,15,0.00,,---,0.00,VWS V14.01,2013-03-22 21:13:00,
2013-03-22 15:14:00,58.5,11.0,29.68,SSW,202,0.0,0.0,15,0.00,,---,0.00,VWS V14.01,2013-03-22 21:14:00,
2013-03-22 15:15:00,58.5,12.5,29.68,SSW,202,0.0,0.0,16,0.00,,---,0.00,VWS V14.01,2013-03-22 21:15:00,
2013-03-22 15:16:00,58.7,12.6,29.68,NE,45,1.3,1.3,16,0.00,,---,0.00,VWS V14.01,2013-03-22 21:16:00,
2013-03-22 15:17:00,58.7,12.6,29.68,NE,45,0.4,1.3,16,0.00,,---,0.00,VWS V14.01,2013-03-22 21:17:00,
2013-03-22 15:18:00,58.5,12.5,29.68,NE,45,0.2,0.4,16,0.00,,---,0.00,VWS V14.01,2013-03-22 21:18:00,
2013-03-22 15:19:00,58.5,12.5,29.68,NE,45,0.4,0.4,16,0.00,,---,0.00,VWS V14.01,2013-03-22 21:19:00,
2013-03-22 15:20:00,58.5,12.5,29.68,NE,45,0.0,0.4,16,0.00,,---,0.00,VWS V14.01,2013-03-22 21:20:00,
2013-03-22 15:21:00,58.7,12.6,29.68,ENE,68,0.0,0.0,16,0.00,,---,0.00,VWS V14.01,2013-03-22 21:21:00,
2013-03-22 15:22:00,58.7,12.6,29.68,NNE,22,1.8,1.8,16,0.00,,---,0.00,VWS V14.01,2013-03-22 21:22:00,
2013-03-22 15:23:00,58.7,12.6,29.68,ENE,68,0.7,1.8,16,0.00,,---,0.00,VWS V14.01,2013-03-22 21:23:00,
2013-03-22 15:24:00,58.7,12.6,29.68,ENE,68,0.4,0.7,16,0.00,,---,0.00,VWS V14.01,2013-03-22 21:24:00,
2013-03-22 15:25:00,58.7,12.6,29.68,ENE,68,0.4,0.4,16,0.00,,---,0.00,VWS V14.01,2013-03-22 21:25:00,
2013-03-22 15:26:00,58.5,12.5,29.68,ENE,68,0.0,0.4,16,0.00,,---,0.00,VWS V14.01,2013-03-22 21:26:00,
2013-03-22 15:27:00,58.5,12.5,29.68,ENE,68,0.0,0.0,16,0.00,,---,0.00,VWS V14.01,2013-03-22 21:27:00,
2013-03-22 15:28:00,58.5,13.9,29.68,SW,225,4.5,4.5,17,0.00,,---,0.00,VWS V14.01,2013-03-22 21:28:00,
2013-03-22 15:29:00,58.7,14.0,29.68,WSW,248,4.0,4.5,17,0.00,,---,0.00,VWS V14.01,2013-03-22 21:29:00,
2013-03-22 15:30:00,58.7,14.0,29.67,South,180,4.9,4.9,17,0.00,,---,0.00,VWS V14.01,2013-03-22 21:30:00,
2013-03-22 15:31:00,58.7,14.0,29.67,SSW,202,4.0,4.9,17,0.00,,---,0.00,VWS V14.01,2013-03-22 21:31:00,
2013-03-22 15:32:00,58.7,14.0,29.67,WSW,248,2.0,4.0,17,0.00,,---,0.00,VWS V14.01,2013-03-22 21:32:00,
2013-03-22 15:33:00,58.7,14.0,29.67,SW,225,1.3,2.0,17,0.00,,---,0.00,VWS V14.01,2013-03-22 21:33:00,
2013-03-22 15:34:00,58.7,14.0,29.67,SW,225,1.3,1.3,17,0.00,,---,0.00,VWS V14.01,2013-03-22 21:34:00,
2013-03-22 15:35:00,58.9,14.2,29.67,SSW,202,4.3,4.7,17,0.00,,---,0.00,VWS V14.01,2013-03-22 21:35:00,
2013-03-22 15:36:00,59.0,14.3,29.67,South,180,2.7,4.3,17,0.00,,---,0.00,VWS V14.01,2013-03-22 21:36:00,
2013-03-22 15:37:00,59.0,15.6,29.67,SSE,158,1.1,2.7,18,0.00,,---,0.00,VWS V14.01,2013-03-22 21:37:00,
2013-03-22 15:38:00,59.2,14.4,29.67,SSE,158,2.0,2.0,17,0.00,,---,0.00,VWS V14.01,2013-03-22 21:38:00,
2013-03-22 15:39:00,59.2,14.4,29.67,SSE,158,2.0,2.0,17,0.00,,---,0.00,VWS V14.01,2013-03-22 21:39:00,
2013-03-22 15:40:00,59.2,15.7,29.67,SSW,202,2.9,5.4,18,0.00,,---,0.00,VWS V14.01,2013-03-22 21:40:00,
2013-03-22 15:41:00,59.2,15.7,29.67,South,180,2.9,2.9,18,0.00,,---,0.00,VWS V14.01,2013-03-22 21:41:00,
2013-03-22 15:42:00,59.2,15.7,29.67,South,180,2.7,2.9,18,0.00,,---,0.00,VWS V14.01,2013-03-22 21:42:00,
2013-03-22 15:43:00,59.2,15.7,29.67,SSW,202,3.4,3.4,18,0.00,,---,0.00,VWS V14.01,2013-03-22 21:43:00,
2013-03-22 15:44:00,59.2,15.7,29.67,SSW,202,3.4,3.4,18,0.00,,---,0.00,VWS V14.01,2013-03-22 21:44:00,
2013-03-22 15:45:00,59.4,18.3,29.67,South,180,3.1,3.8,20,0.00,,---,0.00,VWS V14.01,2013-03-22 21:45:00,
2013-03-22 15:46:00,59.4,19.5,29.67,South,180,4.5,4.5,21,0.00,,---,0.00,VWS V14.01,2013-03-22 21:46:00,
2013-03-22 15:47:00,59.4,18.3,29.67,South,180,1.6,4.5,20,0.00,,---,0.00,VWS V14.01,2013-03-22 21:47:00,
2013-03-22 15:48:00,59.4,15.9,29.67,South,180,3.1,3.1,18,0.00,,---,0.00,VWS V14.01,2013-03-22 21:48:00,
2013-03-22 15:49:00,59.4,15.9,29.67,South,180,3.1,3.1,18,0.00,,---,0.00,VWS V14.01,2013-03-22 21:49:00,
2013-03-22 15:50:00,59.4,15.9,29.66,WSW,248,5.4,5.4,18,0.00,,---,0.00,VWS V14.01,2013-03-22 21:50:00,
2013-03-22 15:51:00,59.4,14.6,29.66,WSW,248,2.0,5.4,17,0.00,,---,0.00,VWS V14.01,2013-03-22 21:51:00,
2013-03-22 15:52:00,59.4,14.6,29.66,South,180,2.5,2.5,17,0.00,,---,0.00,VWS V14.01,2013-03-22 21:52:00,
2013-03-22 15:53:00,59.4,14.6,29.66,South,180,2.5,2.5,17,0.00,,---,0.00,VWS V14.01,2013-03-22 21:53:00,
2013-03-22 15:54:00,59.4,14.6,29.66,South,180,2.5,2.5,17,0.00,,---,0.00,VWS V14.01,2013-03-22 21:54:00,
2013-03-22 15:55:00,59.4,15.9,29.66,South,180,3.4,3.4,18,0.00,,---,0.00,VWS V14.01,2013-03-22 21:55:00,
2013-03-22 15:56:00,59.4,17.1,29.66,South,180,2.7,3.4,19,0.00,,---,0.00,VWS V14.01,2013-03-22 21:56:00,
2013-03-22 15:57:00,59.4,17.1,29.66,South,180,1.8,2.7,19,0.00,,---,0.00,VWS V14.01,2013-03-22 21:57:00,
2013-03-22 15:58:00,59.4,17.1,29.66,SE,135,1.8,1.8,19,0.00,,---,0.00,VWS V14.01,2013-03-22 21:58:00,
2013-03-22 15:59:00,59.4,17.1,29.66,SE,135,1.8,1.8,19,0.00,,---,0.00,VWS V14.01,2013-03-22 21:59:00,
2013-03-22 16:00:00,59.4,17.1,29.66,SSE,158,1.8,1.8,19,0.00,,---,0.00,VWS V14.01,2013-03-22 22:00:00,
2013-03-22 16:01:00,59.4,18.3,29.67,SSW,202,5.1,5.1,20,0.00,,---,0.00,VWS V14.01,2013-03-22 22:01:00,
2013-03-22 16:02:00,59.4,17.1,29.66,SSW,202,6.3,6.3,19,0.00,,---,0.00,VWS V14.01,2013-03-22 22:02:00,
2013-03-22 16:03:00,59.4,17.1,29.67,SW,225,4.3,6.3,19,0.00,,---,0.00,VWS V14.01,2013-03-22 22:03:00,
2013-03-22 16:04:00,59.4,17.1,29.66,West,270,4.3,4.3,19,0.00,,---,0.00,VWS V14.01,2013-03-22 22:04:00,
2013-03-22 16:05:00,59.2,17.0,29.66,WNW,292,6.3,6.3,19,0.00,,---,0.00,VWS V14.01,2013-03-22 22:05:00,
2013-03-22 16:06:00,59.2,19.3,29.66,West,270,4.7,6.3,21,0.00,,---,0.00,VWS V14.01,2013-03-22 22:06:00,
2013-03-22 16:07:00,59.2,19.3,29.66,WNW,292,4.0,4.7,21,0.00,,---,0.00,VWS V14.01,2013-03-22 22:07:00,
2013-03-22 16:08:00,59.2,19.3,29.66,WSW,248,5.4,5.4,21,0.00,,---,0.00,VWS V14.01,2013-03-22 22:08:00,
2013-03-22 16:09:00,59.4,19.5,29.66,WSW,248,3.4,3.4,21,0.00,,---,0.00,VWS V14.01,2013-03-22 22:09:00,
2013-03-22 16:10:00,59.4,19.5,29.66,West,270,1.3,3.4,21,0.00,,---,0.00,VWS V14.01,2013-03-22 22:10:00,
2013-03-22 16:11:00,59.6,19.6,29.66,WSW,248,2.0,2.0,21,0.00,,---,0.00,VWS V14.01,2013-03-22 22:11:00,
2013-03-22 16:12:00,59.8,19.8,29.66,NNW,338,2.0,2.0,21,0.00,,---,0.00,VWS V14.01,2013-03-22 22:12:00,
2013-03-22 16:13:00,59.9,19.9,29.66,WNW,292,2.5,2.5,21,0.00,,---,0.00,VWS V14.01,2013-03-22 22:13:00,
2013-03-22 16:14:00,60.1,20.1,29.66,NW,315,1.1,1.1,21,0.00,,---,0.00,VWS V14.01,2013-03-22 22:14:00,
2013-03-22 16:15:00,60.1,18.9,29.65,SSE,158,0.7,1.1,20,0.00,,---,0.00,VWS V14.01,2013-03-22 22:15:00,
2013-03-22 16:16:00,60.1,16.5,29.66,SSE,158,1.6,1.6,18,0.00,,---,0.00,VWS V14.01,2013-03-22 22:16:00,
2013-03-22 16:17:00,60.1,16.5,29.65,South,180,2.0,2.0,18,0.00,,---,0.00,VWS V14.01,2013-03-22 22:17:00,
2013-03-22 16:18:00,60.1,16.5,29.65,South,180,2.0,2.0,18,0.00,,---,0.00,VWS V14.01,2013-03-22 22:18:00,
2013-03-22 16:19:00,60.1,16.5,29.65,South,180,2.5,2.5,18,0.00,,---,0.00,VWS V14.01,2013-03-22 22:19:00,
2013-03-22 16:20:00,60.1,16.5,29.65,South,180,0.9,2.5,18,0.00,,---,0.00,VWS V14.01,2013-03-22 22:20:00,
2013-03-22 16:21:00,60.1,16.5,29.65,SW,225,1.6,1.6,18,0.00,,---,0.00,VWS V14.01,2013-03-22 22:21:00,
2013-03-22 16:22:00,60.3,16.6,29.65,South,180,3.6,3.6,18,0.00,,---,0.00,VWS V14.01,2013-03-22 22:22:00,
2013-03-22 16:23:00,60.3,16.6,29.65,SSW,202,2.5,3.6,18,0.00,,---,0.00,VWS V14.01,2013-03-22 22:23:00,
2013-03-22 16:24:00,60.3,16.6,29.65,WSW,248,3.4,3.4,18,0.00,,---,0.00,VWS V14.01,2013-03-22 22:24:00,
2013-03-22 16:25:00,60.3,16.6,29.65,WSW,248,3.4,3.4,18,0.00,,---,0.00,VWS V14.01,2013-03-22 22:25:00,
2013-03-22 16:26:00,60.5,16.8,29.65,WSW,248,3.1,3.4,18,0.00,,---,0.00,VWS V14.01,2013-03-22 22:26:00,
2013-03-22 16:27:00,60.5,16.8,29.65,WSW,248,2.9,3.1,18,0.00,,---,0.00,VWS V14.01,2013-03-22 22:27:00,
2013-03-22 16:28:00,60.7,17.0,29.65,SSW,202,4.5,4.5,18,0.00,,---,0.00,VWS V14.01,2013-03-22 22:28:00,
2013-03-22 16:29:00,60.8,17.0,29.65,SSW,202,1.8,1.8,18,0.00,,---,0.00,VWS V14.01,2013-03-22 22:29:00,
2013-03-22 16:30:00,61.2,17.4,29.65,South,180,1.8,1.8,18,0.00,,---,0.00,VWS V14.01,2013-03-22 22:30:00,
2013-03-22 16:31:00,61.9,18.0,29.65,WSW,248,1.1,1.8,18,0.00,,---,0.00,VWS V14.01,2013-03-22 22:31:00,
2013-03-22 16:32:00,62.6,18.5,29.65,South,180,2.0,2.0,18,0.00,,---,0.00,VWS V14.01,2013-03-22 22:32:00,
2013-03-22 16:33:00,62.8,17.4,29.65,SW,225,4.9,4.9,17,0.00,,---,0.00,VWS V14.01,2013-03-22 22:33:00,
2013-03-22 16:34:00,63.0,17.5,29.65,WSW,248,3.4,3.4,17,0.00,,---,0.00,VWS V14.01,2013-03-22 22:34:00,
2013-03-22 16:35:00,63.0,17.5,29.65,SW,225,2.2,3.4,17,0.00,,---,0.00,VWS V14.01,2013-03-22 22:35:00,
2013-03-22 16:36:00,63.0,17.5,29.65,SW,225,2.7,2.7,17,0.00,,---,0.00,VWS V14.01,2013-03-22 22:36:00,
2013-03-22 16:37:00,63.0,17.5,29.65,SW,225,3.8,3.8,17,0.00,,---,0.00,VWS V14.01,2013-03-22 22:37:00,
2013-03-22 16:38:00,63.0,17.5,29.65,SW,225,5.6,5.6,17,0.00,,---,0.00,VWS V14.01,2013-03-22 22:38:00,
2013-03-22 16:39:00,63.0,17.5,29.65,SW,225,5.6,5.6,17,0.00,,---,0.00,VWS V14.01,2013-03-22 22:39:00,
2013-03-22 16:40:00,62.8,17.4,29.65,SSW,202,4.7,4.7,17,0.00,,---,0.00,VWS V14.01,2013-03-22 22:40:00,
2013-03-22 16:41:00,63.0,18.9,29.65,SSW,202,4.7,4.7,18,0.00,,---,0.00,VWS V14.01,2013-03-22 22:41:00,
2013-03-22 16:42:00,63.4,17.9,29.65,SW,225,3.8,4.7,17,0.00,,---,0.00,VWS V14.01,2013-03-22 22:42:00,
2013-03-22 16:43:00,63.4,17.9,29.65,West,270,7.4,7.4,17,0.00,,---,0.00,VWS V14.01,2013-03-22 22:43:00,
2013-03-22 16:44:00,63.4,17.9,29.65,West,270,7.4,7.4,17,0.00,,---,0.00,VWS V14.01,2013-03-22 22:44:00,
2013-03-22 16:45:00,63.5,17.9,29.64,West,270,10.7,10.7,17,0.00,,---,0.00,VWS V14.01,2013-03-22 22:45:00,
2013-03-22 16:46:00,63.9,16.9,29.64,West,270,13.4,13.4,16,0.00,,---,0.00,VWS V14.01,2013-03-22 22:46:00,
2013-03-22 16:47:00,64.1,17.0,29.64,SSW,202,5.4,13.4,16,0.00,,---,0.00,VWS V14.01,2013-03-22 22:47:00,
2013-03-22 16:48:00,64.4,17.3,29.64,SW,225,12.5,12.5,16,0.00,,---,0.00,VWS V14.01,2013-03-22 22:48:00,
2013-03-22 16:49:00,64.4,17.3,29.64,SW,225,12.5,12.5,16,0.00,,---,0.00,VWS V14.01,2013-03-22 22:49:00,
2013-03-22 16:50:00,64.4,17.3,29.64,SW,225,6.7,7.6,16,0.00,,---,0.00,VWS V14.01,2013-03-22 22:50:00,
2013-03-22 16:51:00,64.8,17.6,29.64,South,180,4.0,6.7,16,0.00,,---,0.00,VWS V14.01,2013-03-22 22:51:00,
2013-03-22 16:52:00,65.2,16.4,29.64,SW,225,8.5,8.5,15,0.00,,---,0.00,VWS V14.01,2013-03-22 22:52:00,
2013-03-22 16:53:00,65.2,17.9,29.64,WSW,248,12.1,12.1,16,0.00,,---,0.00,VWS V14.01,2013-03-22 22:53:00,
2013-03-22 16:54:00,65.2,17.9,29.64,WSW,248,12.1,12.1,16,0.00,,---,0.00,VWS V14.01,2013-03-22 22:54:00,
2013-03-22 16:55:00,65.5,16.7,29.64,SW,225,13.6,13.6,15,0.00,,---,0.00,VWS V14.01,2013-03-22 22:55:00,
2013-03-22 16:56:00,65.5,16.7,29.64,SW,225,14.1,14.1,15,0.00,,---,0.00,VWS V14.01,2013-03-22 22:56:00,
2013-03-22 16:57:00,65.5,13.4,29.64,WSW,248,8.7,14.1,13,0.00,,---,0.00,VWS V14.01,2013-03-22 22:57:00,
2013-03-22 16:58:00,65.5,15.1,29.64,WSW,248,5.6,8.7,14,0.00,,---,0.00,VWS V14.01,2013-03-22 22:58:00,
2013-03-22 16:59:00,65.5,15.1,29.64,WSW,248,5.6,5.6,14,0.00,,---,0.00,VWS V14.01,2013-03-22 22:59:00,
2013-03-22 17:00:00,65.7,15.2,29.64,SW,225,7.4,7.4,14,0.00,,---,0.00,VWS V14.01,2013-03-22 23:00:00,
2013-03-22 17:01:00,65.5,13.4,29.64,SW,225,8.9,8.9,13,0.00,,---,0.00,VWS V14.01,2013-03-22 23:01:00,
2013-03-22 17:02:00,65.5,13.4,29.64,WSW,248,13.6,13.6,13,0.00,,---,0.00,VWS V14.01,2013-03-22 23:02:00,
2013-03-22 17:03:00,65.5,13.4,29.64,West,270,7.6,13.6,13,0.00,,---,0.00,VWS V14.01,2013-03-22 23:03:00,
2013-03-22 17:04:00,65.5,13.4,29.64,West,270,7.6,7.6,13,0.00,,---,0.00,VWS V14.01,2013-03-22 23:04:00,
2013-03-22 17:05:00,65.3,13.2,29.64,WNW,292,8.9,8.9,13,0.00,,---,0.00,VWS V14.01,2013-03-22 23:05:00,
2013-03-22 17:06:00,65.3,13.2,29.64,SSW,202,6.5,8.9,13,0.00,,---,0.00,VWS V14.01,2013-03-22 23:06:00,
2013-03-22 17:07:00,65.5,15.1,29.64,SW,225,7.8,7.8,14,0.00,,---,0.00,VWS V14.01,2013-03-22 23:07:00,
2013-03-22 17:08:00,65.9,13.7,29.64,SW,225,14.5,14.5,13,0.00,,---,0.00,VWS V14.01,2013-03-22 23:08:00,
2013-03-22 17:09:00,65.9,13.7,29.65,SW,225,12.1,12.1,13,0.00,,---,0.00,VWS V14.01,2013-03-22 23:09:00,
2013-03-22 17:10:00,65.7,13.5,29.64,West,270,4.7,12.1,13,0.00,,---,0.00,VWS V14.01,2013-03-22 23:10:00,
2013-03-22 17:11:00,65.9,13.7,29.64,SW,225,7.4,7.4,13,0.00,,---,0.00,VWS V14.01,2013-03-22 23:11:00,
2013-03-22 17:12:00,65.9,13.7,29.64,WNW,292,15.7,15.7,13,0.00,,---,0.00,VWS V14.01,2013-03-22 23:12:00,
2013-03-22 17:13:00,65.5,13.4,29.64,WSW,248,13.0,15.7,13,0.00,,---,0.00,VWS V14.01,2013-03-22 23:13:00,
2013-03-22 17:14:00,65.3,13.2,29.64,WSW,248,12.5,12.5,13,0.00,,---,0.00,VWS V14.01,2013-03-22 23:14:00,
2013-03-22 17:15:00,65.3,13.2,29.64,SW,225,5.8,12.5,13,0.00,,---,0.00,VWS V14.01,2013-03-22 23:15:00,
2013-03-22 17:16:00,65.5,13.4,29.64,WSW,248,2.7,5.8,13,0.00,,---,0.00,VWS V14.01,2013-03-22 23:16:00,
2013-03-22 17:17:00,65.9,13.7,29.64,SSW,202,5.8,5.8,13,0.00,,---,0.00,VWS V14.01,2013-03-22 23:17:00,
2013-03-22 17:18:00,65.9,13.7,29.64,West,270,10.3,10.3,13,0.00,,---,0.00,VWS V14.01,2013-03-22 23:18:00,
2013-03-22 17:19:00,65.7,13.5,29.64,WSW,248,4.9,4.9,13,0.00,,---,0.00,VWS V14.01,2013-03-22 23:19:00,
2013-03-22 17:20:00,65.7,15.2,29.64,WSW,248,6.9,6.9,14,0.00,,---,0.00,VWS V14.01,2013-03-22 23:20:00,
2013-03-22 17:21:00,65.9,13.7,29.64,WSW,248,8.3,8.3,13,0.00,,---,0.00,VWS V14.01,2013-03-22 23:21:00,
2013-03-22 17:22:00,65.9,13.7,29.64,SW,225,8.5,8.5,13,0.00,,---,0.00,VWS V14.01,2013-03-22 23:22:00,
2013-03-22 17:23:00,65.9,13.7,29.64,WSW,248,10.7,10.7,13,0.00,,---,0.00,VWS V14.01,2013-03-22 23:23:00,
2013-03-22 17:24:00,65.9,13.7,29.64,SSW,202,8.3,10.7,13,0.00,,---,0.00,VWS V14.01,2013-03-22 23:24:00,
2013-03-22 17:25:00,65.9,13.7,29.64,WNW,292,6.0,8.3,13,0.00,,---,0.00,VWS V14.01,2013-03-22 23:25:00,
2013-03-22 17:26:00,66.1,12.0,29.64,SW,225,12.8,12.8,12,0.00,,---,0.00,VWS V14.01,2013-03-22 23:26:00,
2013-03-22 17:27:00,66.1,12.0,29.63,SW,225,9.2,12.8,12,0.00,,---,0.00,VWS V14.01,2013-03-22 23:27:00,
2013-03-22 17:28:00,65.9,11.9,29.63,West,270,12.5,12.5,12,0.00,,---,0.00,VWS V14.01,2013-03-22 23:28:00,
2013-03-22 17:29:00,65.9,11.9,29.63,West,270,12.5,12.5,12,0.00,,---,0.00,VWS V14.01,2013-03-22 23:29:00,
2013-03-22 17:30:00,65.3,11.4,29.64,SW,225,11.4,11.4,12,0.00,,---,0.00,VWS V14.01,2013-03-22 23:30:00,
2013-03-22 17:31:00,65.3,11.4,29.63,SW,225,6.3,11.4,12,0.00,,---,0.00,VWS V14.01,2013-03-22 23:31:00,
2013-03-22 17:32:00,65.5,11.6,29.64,West,270,8.9,8.9,12,0.00,,---,0.00,VWS V14.01,2013-03-22 23:32:00,
2013-03-22 17:33:00,65.7,11.7,29.64,SW,225,8.5,8.9,12,0.00,,---,0.00,VWS V14.01,2013-03-22 23:33:00,
2013-03-22 17:34:00,65.7,11.7,29.64,SW,225,8.5,8.5,12,0.00,,---,0.00,VWS V14.01,2013-03-22 23:34:00,
2013-03-22 17:35:00,65.5,11.6,29.64,WSW,248,12.1,15.0,12,0.00,,---,0.00,VWS V14.01,2013-03-22 23:35:00,
2013-03-22 17:36:00,65.5,11.6,29.64,WSW,248,10.1,12.1,12,0.00,,---,0.00,VWS V14.01,2013-03-22 23:36:00,
2013-03-22 17:37:00,65.5,11.6,29.64,WNW,292,12.8,12.8,12,0.00,,---,0.00,VWS V14.01,2013-03-22 23:37:00,
2013-03-22 17:38:00,65.5,11.6,29.64,West,270,9.4,12.8,12,0.00,,---,0.00,VWS V14.01,2013-03-22 23:38:00,
2013-03-22 17:39:00,65.5,11.6,29.64,West,270,9.4,9.4,12,0.00,,---,0.00,VWS V14.01,2013-03-22 23:39:00,
2013-03-22 17:40:00,65.5,11.6,29.63,SW,225,10.1,10.1,12,0.00,,---,0.00,VWS V14.01,2013-03-22 23:40:00,
2013-03-22 17:41:00,65.2,11.3,29.63,WNW,292,9.8,10.1,12,0.00,,---,0.00,VWS V14.01,2013-03-22 23:41:00,
2013-03-22 17:42:00,65.2,11.3,29.64,West,270,6.7,9.8,12,0.00,,---,0.00,VWS V14.01,2013-03-22 23:42:00,
2013-03-22 17:43:00,65.2,11.3,29.64,WSW,248,12.8,12.8,12,0.00,,---,0.00,VWS V14.01,2013-03-22 23:43:00,
2013-03-22 17:44:00,65.2,11.3,29.64,WSW,248,12.8,12.8,12,0.00,,---,0.00,VWS V14.01,2013-03-22 23:44:00,
2013-03-22 17:45:00,65.0,11.2,29.63,WSW,248,12.1,12.1,12,0.00,,---,0.00,VWS V14.01,2013-03-22 23:45:00,
2013-03-22 17:46:00,65.0,11.2,29.63,West,270,12.1,12.1,12,0.00,,---,0.00,VWS V14.01,2013-03-22 23:46:00,
2013-03-22 17:47:00,65.2,11.3,29.63,WSW,248,5.4,12.1,12,0.00,,---,0.00,VWS V14.01,2013-03-22 23:47:00,
2013-03-22 17:49:00,65.2,11.3,29.63,SW,225,11.4,11.4,12,0.00,,---,0.00,VWS V14.01,2013-03-22 23:49:00,
2013-03-22 17:50:00,65.0,11.2,29.63,SW,225,13.0,13.0,12,0.00,,---,0.00,VWS V14.01,2013-03-22 23:50:00,
2013-03-22 17:51:00,64.8,11.0,29.63,SW,225,8.7,13.0,12,0.00,,---,0.00,VWS V14.01,2013-03-22 23:51:00,
2013-03-22 17:52:00,64.6,10.9,29.63,SW,225,6.9,8.7,12,0.00,,---,0.00,VWS V14.01,2013-03-22 23:52:00,
2013-03-22 17:53:00,64.4,12.5,29.64,SW,225,6.7,6.9,13,0.00,,---,0.00,VWS V14.01,2013-03-22 23:53:00,
2013-03-22 17:54:00,64.4,12.5,29.64,SW,225,6.7,6.7,13,0.00,,---,0.00,VWS V14.01,2013-03-22 23:54:00,
2013-03-22 17:55:00,64.3,10.6,29.63,WSW,248,6.9,9.6,12,0.00,,---,0.00,VWS V14.01,2013-03-22 23:55:00,
2013-03-22 17:56:00,63.9,10.3,29.64,WSW,248,7.8,7.8,12,0.00,,---,0.00,VWS V14.01,2013-03-22 23:56:00,
2013-03-22 17:57:00,63.7,10.2,29.64,SSW,202,12.8,12.8,12,0.00,,---,0.00,VWS V14.01,2013-03-22 23:57:00,
2013-03-22 17:58:00,63.5,10.0,29.64,SW,225,11.2,12.8,12,0.00,,---,0.00,VWS V14.01,2013-03-22 23:58:00,
2013-03-22 17:59:00,63.5,10.0,29.64,SW,225,11.2,11.2,12,0.00,,---,0.00,VWS V14.01,2013-03-22 23:59:00,
2013-03-22 18:00:00,63.2,9.8,29.64,WSW,248,8.9,8.9,12,0.00,,---,0.00,VWS V14.01,2013-03-23 00:00:00,
2013-03-22 18:01:00,63.2,9.8,29.63,SW,225,10.7,10.7,12,0.00,,---,0.00,VWS V14.01,2013-03-23 00:01:00,
2013-03-22 18:02:00,63.4,9.9,29.63,SW,225,10.1,10.7,12,0.00,,---,0.00,VWS V14.01,2013-03-23 00:02:00,
2013-03-22 18:03:00,63.5,10.0,29.64,West,270,8.7,10.1,12,0.00,,---,0.00,VWS V14.01,2013-03-23 00:03:00,
2013-03-22 18:04:00,63.7,10.2,29.63,SW,225,8.5,8.5,12,0.00,,---,0.00,VWS V14.01,2013-03-23 00:04:00,
2013-03-22 18:05:00,63.7,10.2,29.64,WSW,248,9.2,9.2,12,0.00,,---,0.00,VWS V14.01,2013-03-23 00:05:00,
2013-03-22 18:06:00,63.5,10.0,29.63,West,270,9.8,9.8,12,0.00,,---,0.00,VWS V14.01,2013-03-23 00:06:00,
2013-03-22 18:07:00,63.7,10.2,29.64,SW,225,5.1,9.8,12,0.00,,---,0.00,VWS V14.01,2013-03-23 00:07:00,
2013-03-22 18:08:00,63.7,10.2,29.63,SW,225,9.6,9.6,12,0.00,,---,0.00,VWS V14.01,2013-03-23 00:08:00,
2013-03-22 18:09:00,63.7,10.2,29.64,WSW,248,5.8,5.8,12,0.00,,---,0.00,VWS V14.01,2013-03-23 00:09:00,
2013-03-22 18:10:00,63.7,10.2,29.64,WSW,248,6.9,6.9,12,0.00,,---,0.00,VWS V14.01,2013-03-23 00:10:00,
2013-03-22 18:11:00,63.9,10.3,29.64,WSW,248,7.8,7.8,12,0.00,,---,0.00,VWS V14.01,2013-03-23 00:11:00,
2013-03-22 18:12:00,63.9,10.3,29.64,West,270,10.7,10.7,12,0.00,,---,0.00,VWS V14.01,2013-03-23 00:12:00,
2013-03-22 18:13:00,64.1,10.5,29.64,SW,225,8.1,10.7,12,0.00,,---,0.00,VWS V14.01,2013-03-23 00:13:00,
2013-03-22 18:14:00,63.7,10.2,29.64,SW,225,6.9,6.9,12,0.00,,---,0.00,VWS V14.01,2013-03-23 00:14:00,
2013-03-22 18:15:00,63.5,10.0,29.64,West,270,6.3,6.9,12,0.00,,---,0.00,VWS V14.01,2013-03-23 00:15:00,
2013-03-22 18:16:00,63.4,9.9,29.64,WNW,292,9.2,9.2,12,0.00,,---,0.00,VWS V14.01,2013-03-23 00:16:00,
2013-03-22 18:17:00,63.2,9.8,29.64,West,270,6.3,9.2,12,0.00,,---,0.00,VWS V14.01,2013-03-23 00:17:00,
2013-03-22 18:18:00,63.4,9.9,29.64,WSW,248,5.8,6.3,12,0.00,,---,0.00,VWS V14.01,2013-03-23 00:18:00,
2013-03-22 18:19:00,63.5,10.0,29.64,SW,225,8.5,8.5,12,0.00,,---,0.00,VWS V14.01,2013-03-23 00:19:00,
2013-03-22 18:20:00,63.7,10.2,29.64,SW,225,7.8,8.5,12,0.00,,---,0.00,VWS V14.01,2013-03-23 00:20:00,
2013-03-22 18:21:00,63.9,10.3,29.64,WSW,248,8.1,8.1,12,0.00,,---,0.00,VWS V14.01,2013-03-23 00:21:00,
2013-03-22 18:22:00,63.7,8.2,29.64,SW,225,7.8,8.1,11,0.00,,---,0.00,VWS V14.01,2013-03-23 00:22:00,
2013-03-22 18:23:00,63.7,8.2,29.64,SW,225,5.8,7.8,11,0.00,,---,0.00,VWS V14.01,2013-03-23 00:23:00,
2013-03-22 18:24:00,63.7,8.2,29.64,SW,225,5.8,5.8,11,0.00,,---,0.00,VWS V14.01,2013-03-23 00:24:00,
2013-03-22 18:25:00,63.0,7.7,29.64,WSW,248,9.4,15.9,11,0.00,,---,0.00,VWS V14.01,2013-03-23 00:25:00,
2013-03-22 18:26:00,62.8,7.5,29.64,SW,225,9.2,9.4,11,0.00,,---,0.00,VWS V14.01,2013-03-23 00:26:00,
2013-03-22 18:27:00,62.6,7.4,29.64,West,270,11.0,11.0,11,0.00,,---,0.00,VWS V14.01,2013-03-23 00:27:00,
2013-03-22 18:28:00,62.5,7.3,29.64,West,270,11.2,11.2,11,0.00,,---,0.00,VWS V14.01,2013-03-23 00:28:00,
2013-03-22 18:29:00,62.5,7.3,29.64,West,270,11.2,11.2,11,0.00,,---,0.00,VWS V14.01,2013-03-23 00:29:00,
2013-03-22 18:30:00,62.5,9.2,29.64,SW,225,8.5,10.5,12,0.00,,---,0.00,VWS V14.01,2013-03-23 00:30:00,
2013-03-22 18:31:00,62.5,9.2,29.64,West,270,10.5,10.5,12,0.00,,---,0.00,VWS V14.01,2013-03-23 00:31:00,
2013-03-22 18:32:00,62.6,9.3,29.64,WNW,292,7.4,10.5,12,0.00,,---,0.00,VWS V14.01,2013-03-23 00:32:00,
2013-03-22 18:33:00,62.8,9.5,29.64,WNW,292,8.7,8.7,12,0.00,,---,0.00,VWS V14.01,2013-03-23 00:33:00,
2013-03-22 18:34:00,62.8,9.5,29.64,WNW,292,8.7,8.7,12,0.00,,---,0.00,VWS V14.01,2013-03-23 00:34:00,
2013-03-22 18:35:00,63.0,9.6,29.64,WNW,292,7.4,7.4,12,0.00,,---,0.00,VWS V14.01,2013-03-23 00:35:00,
2013-03-22 18:36:00,63.2,9.8,29.64,SW,225,6.9,7.4,12,0.00,,---,0.00,VWS V14.01,2013-03-23 00:36:00,
2013-03-22 18:37:00,63.4,9.9,29.64,West,270,9.8,9.8,12,0.00,,---,0.00,VWS V14.01,2013-03-23 00:37:00,
2013-03-22 18:39:00,63.2,7.8,29.64,West,270,6.3,6.3,11,0.00,,---,0.00,VWS V14.01,2013-03-23 00:39:00,
2013-03-22 18:40:00,63.0,7.7,29.64,WSW,248,8.9,10.1,11,0.00,,---,0.00,VWS V14.01,2013-03-23 00:40:00,
2013-03-22 18:41:00,62.8,9.5,29.64,SW,225,2.7,8.9,12,0.00,,---,0.00,VWS V14.01,2013-03-23 00:41:00,
2013-03-22 18:42:00,62.6,9.3,29.64,WSW,248,4.3,4.3,12,0.00,,---,0.00,VWS V14.01,2013-03-23 00:42:00,
2013-03-22 18:43:00,62.6,9.3,29.65,West,270,7.6,7.6,12,0.00,,---,0.00,VWS V14.01,2013-03-23 00:43:00,
2013-03-22 18:44:00,62.6,9.3,29.65,West,270,7.6,7.6,12,0.00,,---,0.00,VWS V14.01,2013-03-23 00:44:00,
2013-03-22 18:45:00,62.6,9.3,29.65,SW,225,5.4,11.4,12,0.00,,---,0.00,VWS V14.01,2013-03-23 00:45:00,
2013-03-22 18:46:00,62.6,9.3,29.65,WSW,248,9.2,9.2,12,0.00,,---,0.00,VWS V14.01,2013-03-23 00:46:00,
2013-03-22 18:47:00,62.6,9.3,29.65,South,180,13.4,13.4,12,0.00,,---,0.00,VWS V14.01,2013-03-23 00:47:00,
2013-03-22 18:48:00,62.8,9.5,29.65,West,270,9.2,13.4,12,0.00,,---,0.00,VWS V14.01,2013-03-23 00:48:00,
2013-03-22 18:49:00,62.8,9.5,29.65,West,270,9.2,9.2,12,0.00,,---,0.00,VWS V14.01,2013-03-23 00:49:00,
2013-03-22 18:50:00,62.6,9.3,29.65,WSW,248,6.3,8.1,12,0.00,,---,0.00,VWS V14.01,2013-03-23 00:50:00,
2013-03-22 18:51:00,62.8,7.5,29.65,West,270,12.3,12.3,11,0.00,,---,0.00,VWS V14.01,2013-03-23 00:51:00,
2013-03-22 18:52:00,63.0,9.6,29.64,SW,225,8.3,12.3,12,0.00,,---,0.00,VWS V14.01,2013-03-23 00:52:00,
2013-03-22 18:53:00,63.0,9.6,29.65,West,270,16.3,16.3,12,0.00,,---,0.00,VWS V14.01,2013-03-23 00:53:00,
2013-03-22 18:54:00,63.0,9.6,29.65,West,270,16.3,16.3,12,0.00,,---,0.00,VWS V14.01,2013-03-23 00:54:00,
2013-03-22 18:55:00,62.8,9.5,29.65,WSW,248,7.6,17.7,12,0.00,,---,0.00,VWS V14.01,2013-03-23 00:55:00,
2013-03-22 18:56:00,62.8,9.5,29.65,WSW,248,14.3,14.3,12,0.00,,---,0.00,VWS V14.01,2013-03-23 00:56:00,
2013-03-22 18:57:00,62.6,9.3,29.65,West,270,11.4,14.3,12,0.00,,---,0.00,VWS V14.01,2013-03-23 00:57:00,
2013-03-22 18:58:00,62.5,9.2,29.65,WSW,248,19.5,19.5,12,0.00,,---,0.00,VWS V14.01,2013-03-23 00:58:00,
2013-03-22 18:59:00,62.5,9.2,29.65,WSW,248,19.5,19.5,12,0.00,,---,0.00,VWS V14.01,2013-03-23 00:59:00,
2013-03-22 19:00:00,62.3,10.9,29.65,West,270,6.3,14.8,13,0.00,,---,0.00,VWS V14.01,2013-03-23 01:00:00,
2013-03-22 19:01:00,62.3,10.9,29.65,WSW,248,8.3,8.3,13,0.00,,---,0.00,VWS V14.01,2013-03-23 01:01:00,
2013-03-22 19:02:00,62.3,10.9,29.65,West,270,16.3,16.3,13,0.00,,---,0.00,VWS V14.01,2013-03-23 01:02:00,
2013-03-22 19:03:00,61.9,10.5,29.65,SSW,202,16.8,16.8,13,0.00,,---,0.00,VWS V14.01,2013-03-23 01:03:00,
2013-03-22 19:04:00,61.7,10.4,29.65,SW,225,8.5,8.5,13,0.00,,---,0.00,VWS V14.01,2013-03-23 01:04:00,
2013-03-22 19:05:00,61.6,10.3,29.65,WSW,248,8.1,8.5,13,0.00,,---,0.00,VWS V14.01,2013-03-23 01:05:00,
2013-03-22 19:06:00,61.4,11.8,29.66,WNW,292,15.2,15.2,14,0.00,,---,0.00,VWS V14.01,2013-03-23 01:06:00,
2013-03-22 19:07:00,61.2,13.2,29.65,WSW,248,4.7,15.2,15,0.00,,---,0.00,VWS V14.01,2013-03-23 01:07:00,
2013-03-22 19:08:00,61.2,13.2,29.65,SW,225,11.9,11.9,15,0.00,,---,0.00,VWS V14.01,2013-03-23 01:08:00,
2013-03-22 19:09:00,61.2,13.2,29.65,WSW,248,7.4,7.4,15,0.00,,---,0.00,VWS V14.01,2013-03-23 01:09:00,
2013-03-22 19:10:00,61.0,13.0,29.65,WSW,248,9.6,9.6,15,0.00,,---,0.00,VWS V14.01,2013-03-23 01:10:00,
2013-03-22 19:11:00,61.0,13.0,29.66,WSW,248,7.6,9.6,15,0.00,,---,0.00,VWS V14.01,2013-03-23 01:11:00,
2013-03-22 19:12:00,60.8,12.9,29.66,WSW,248,9.8,9.8,15,0.00,,---,0.00,VWS V14.01,2013-03-23 01:12:00,
2013-03-22 19:13:00,60.8,12.9,29.65,WSW,248,8.7,9.8,15,0.00,,---,0.00,VWS V14.01,2013-03-23 01:13:00,
2013-03-22 19:14:00,60.8,12.9,29.66,WSW,248,5.4,8.7,15,0.00,,---,0.00,VWS V14.01,2013-03-23 01:14:00,
2013-03-22 19:15:00,60.8,12.9,29.65,WSW,248,2.5,5.4,15,0.00,,---,0.00,VWS V14.01,2013-03-23 01:15:00,
2013-03-22 19:16:00,60.7,12.8,29.65,SSW,202,6.9,6.9,15,0.00,,---,0.00,VWS V14.01,2013-03-23 01:16:00,
2013-03-22 19:17:00,60.7,12.8,29.66,WSW,248,11.4,11.4,15,0.00,,---,0.00,VWS V14.01,2013-03-23 01:17:00,
2013-03-22 19:18:00,60.7,14.3,29.66,West,270,6.3,11.4,16,0.00,,---,0.00,VWS V14.01,2013-03-23 01:18:00,
2013-03-22 19:19:00,60.7,14.3,29.66,West,270,6.3,6.3,16,0.00,,---,0.00,VWS V14.01,2013-03-23 01:19:00,
2013-03-22 19:20:00,60.5,14.1,29.66,West,270,7.2,7.2,16,0.00,,---,0.00,VWS V14.01,2013-03-23 01:20:00,
2013-03-22 19:21:00,60.5,14.1,29.66,SW,225,10.1,10.1,16,0.00,,---,0.00,VWS V14.01,2013-03-23 01:21:00,
2013-03-22 19:22:00,60.3,13.9,29.66,WSW,248,15.9,15.9,16,0.00,,---,0.00,VWS V14.01,2013-03-23 01:22:00,
2013-03-22 19:23:00,60.3,13.9,29.66,WSW,248,12.1,15.9,16,0.00,,---,0.00,VWS V14.01,2013-03-23 01:23:00,
2013-03-22 19:24:00,60.3,13.9,29.66,WSW,248,12.1,12.1,16,0.00,,---,0.00,VWS V14.01,2013-03-23 01:24:00,
2013-03-22 19:25:00,60.1,13.8,29.66,SW,225,4.7,6.3,16,0.00,,---,0.00,VWS V14.01,2013-03-23 01:25:00,
2013-03-22 19:26:00,60.1,15.2,29.66,WSW,248,6.9,6.9,17,0.00,,---,0.00,VWS V14.01,2013-03-23 01:26:00,
2013-03-22 19:27:00,60.1,15.2,29.66,North,0,7.4,7.4,17,0.00,,---,0.00,VWS V14.01,2013-03-23 01:27:00,
2013-03-22 19:28:00,59.9,15.0,29.66,WSW,248,10.5,10.5,17,0.00,,---,0.00,VWS V14.01,2013-03-23 01:28:00,
2013-03-22 19:29:00,59.9,15.0,29.66,WSW,248,10.5,10.5,17,0.00,,---,0.00,VWS V14.01,2013-03-23 01:29:00,
2013-03-22 19:30:00,59.9,15.0,29.67,West,270,9.4,9.8,17,0.00,,---,0.00,VWS V14.01,2013-03-23 01:30:00,
2013-03-22 19:31:00,59.8,16.2,29.67,SW,225,7.6,9.4,18,0.00,,---,0.00,VWS V14.01,2013-03-23 01:31:00,
2013-03-22 19:32:00,59.8,16.2,29.67,SW,225,9.8,9.8,18,0.00,,---,0.00,VWS V14.01,2013-03-23 01:32:00,
2013-03-22 19:33:00,59.8,16.2,29.67,WSW,248,7.8,9.8,18,0.00,,---,0.00,VWS V14.01,2013-03-23 01:33:00,
2013-03-22 19:34:00,59.8,16.2,29.67,WSW,248,7.8,7.8,18,0.00,,---,0.00,VWS V14.01,2013-03-23 01:34:00,
2013-03-22 19:35:00,59.6,16.1,29.67,SW,225,14.8,14.8,18,0.00,,---,0.00,VWS V14.01,2013-03-23 01:35:00,
2013-03-22 19:36:00,59.6,17.3,29.67,SW,225,8.9,14.8,19,0.00,,---,0.00,VWS V14.01,2013-03-23 01:36:00,
2013-03-22 19:37:00,59.4,17.1,29.67,SW,225,6.9,8.9,19,0.00,,---,0.00,VWS V14.01,2013-03-23 01:37:00,
2013-03-22 19:38:00,59.4,17.1,29.67,SW,225,8.7,8.7,19,0.00,,---,0.00,VWS V14.01,2013-03-23 01:38:00,
2013-03-22 19:39:00,59.4,17.1,29.67,SW,225,8.7,8.7,19,0.00,,---,0.00,VWS V14.01,2013-03-23 01:39:00,
2013-03-22 19:40:00,59.4,17.1,29.67,SW,225,8.7,8.7,19,0.00,,---,0.00,VWS V14.01,2013-03-23 01:40:00,
2013-03-22 19:41:00,59.2,18.2,29.67,West,270,10.1,10.1,20,0.00,,---,0.00,VWS V14.01,2013-03-23 01:41:00,
2013-03-22 19:42:00,59.0,19.1,29.67,SW,225,11.6,11.6,21,0.00,,---,0.00,VWS V14.01,2013-03-23 01:42:00,
2013-03-22 19:43:00,59.0,18.0,29.67,West,270,11.9,11.9,20,0.00,,---,0.00,VWS V14.01,2013-03-23 01:43:00,
2013-03-22 19:44:00,59.0,18.0,29.67,West,270,11.9,11.9,20,0.00,,---,0.00,VWS V14.01,2013-03-23 01:44:00,
2013-03-22 19:45:00,58.9,17.9,29.67,SW,225,10.5,10.5,20,0.00,,---,0.00,VWS V14.01,2013-03-23 01:45:00,
2013-03-22 19:46:00,58.9,19.1,29.67,SW,225,15.0,15.0,21,0.00,,---,0.00,VWS V14.01,2013-03-23 01:46:00,
2013-03-22 19:47:00,58.7,18.9,29.68,SW,225,10.1,15.0,21,0.00,,---,0.00,VWS V14.01,2013-03-23 01:47:00,
2013-03-22 19:48:00,58.7,20.0,29.68,SW,225,16.6,16.6,22,0.00,,---,0.00,VWS V14.01,2013-03-23 01:48:00,
2013-03-22 19:49:00,58.7,20.0,29.68,SW,225,16.6,16.6,22,0.00,,---,0.00,VWS V14.01,2013-03-23 01:49:00,
2013-03-22 19:50:00,58.3,20.7,29.68,South,180,14.3,14.3,23,0.00,,---,0.00,VWS V14.01,2013-03-23 01:50:00,
2013-03-22 19:51:00,58.0,20.4,29.68,WSW,248,15.2,15.2,23,0.00,,---,0.00,VWS V14.01,2013-03-23 01:51:00,
2013-03-22 19:52:00,58.0,20.4,29.68,WSW,248,9.2,15.2,23,0.00,,---,0.00,VWS V14.01,2013-03-23 01:52:00,
2013-03-22 19:53:00,57.8,20.3,29.68,SW,225,13.6,13.6,23,0.00,,---,0.00,VWS V14.01,2013-03-23 01:53:00,
2013-03-22 19:54:00,57.8,20.3,29.68,SW,225,13.6,13.6,23,0.00,,---,0.00,VWS V14.01,2013-03-23 01:54:00,
2013-03-22 19:55:00,57.6,21.1,29.68,SSW,202,5.1,13.9,24,0.00,,---,0.00,VWS V14.01,2013-03-23 01:55:00,
2013-03-22 19:56:00,57.4,20.9,29.68,SW,225,4.0,5.1,24,0.00,,---,0.00,VWS V14.01,2013-03-23 01:56:00,
2013-03-22 19:57:00,57.4,20.9,29.68,SSW,202,11.4,11.4,24,0.00,,---,0.00,VWS V14.01,2013-03-23 01:57:00,
2013-03-22 19:58:00,57.2,20.8,29.68,SW,225,5.8,11.4,24,0.00,,---,0.00,VWS V14.01,2013-03-23 01:58:00,
2013-03-22 19:59:00,57.2,20.8,29.68,SW,225,5.8,5.8,24,0.00,,---,0.00,VWS V14.01,2013-03-23 01:59:00,
2013-03-22 20:00:00,57.2,21.7,29.68,SW,225,12.8,12.8,25,0.00,,---,0.00,VWS V14.01,2013-03-23 02:00:00,
2013-03-22 20:01:00,57.1,21.6,29.69,West,270,9.8,12.8,25,0.00,,---,0.00,VWS V14.01,2013-03-23 02:01:00,
2013-03-22 20:02:00,56.9,21.5,29.69,West,270,9.8,9.8,25,0.00,,---,0.00,VWS V14.01,2013-03-23 02:02:00,
2013-03-22 20:03:00,56.9,21.5,29.68,SW,225,6.9,9.8,25,0.00,,---,0.00,VWS V14.01,2013-03-23 02:03:00,
2013-03-22 20:04:00,56.9,22.4,29.69,SW,225,7.6,7.6,26,0.00,,---,0.00,VWS V14.01,2013-03-23 02:04:00,
2013-03-22 20:05:00,56.7,23.1,29.69,WSW,248,14.8,14.8,27,0.00,,---,0.00,VWS V14.01,2013-03-23 02:05:00,
2013-03-22 20:06:00,56.5,22.9,29.69,SSW,202,10.1,14.8,27,0.00,,---,0.00,VWS V14.01,2013-03-23 02:06:00,
2013-03-22 20:07:00,56.5,22.9,29.69,SSW,202,7.4,10.1,27,0.00,,---,0.00,VWS V14.01,2013-03-23 02:07:00,
2013-03-22 20:08:00,56.5,22.9,29.69,SSW,202,12.3,12.3,27,0.00,,---,0.00,VWS V14.01,2013-03-23 02:08:00,
2013-03-22 20:09:00,56.3,22.8,29.69,SSW,202,9.6,9.6,27,0.00,,---,0.00,VWS V14.01,2013-03-23 02:09:00,
2013-03-22 20:10:00,56.3,23.6,29.69,SW,225,20.4,20.4,28,0.00,,---,0.00,VWS V14.01,2013-03-23 02:10:00,
2013-03-22 20:11:00,56.2,23.5,29.69,SW,225,15.4,20.4,28,0.00,,---,0.00,VWS V14.01,2013-03-23 02:11:00,
2013-03-22 20:12:00,56.2,23.5,29.69,SW,225,10.3,15.4,28,0.00,,---,0.00,VWS V14.01,2013-03-23 02:12:00,
2013-03-22 20:13:00,56.0,23.4,29.69,SW,225,14.8,14.8,28,0.00,,---,0.00,VWS V14.01,2013-03-23 02:13:00,
2013-03-22 20:14:00,56.0,23.4,29.69,SW,225,14.8,14.8,28,0.00,,---,0.00,VWS V14.01,2013-03-23 02:14:00,
2013-03-22 20:15:00,56.0,23.4,29.69,SSW,202,10.5,13.0,28,0.00,,---,0.00,VWS V14.01,2013-03-23 02:15:00,
2013-03-22 20:16:00,56.0,23.4,29.69,West,270,8.5,10.5,28,0.00,,---,0.00,VWS V14.01,2013-03-23 02:16:00,
2013-03-22 20:17:00,55.8,23.2,29.69,SSW,202,9.8,9.8,28,0.00,,---,0.00,VWS V14.01,2013-03-23 02:17:00,
2013-03-22 20:18:00,55.8,24.0,29.69,SW,225,7.8,9.8,29,0.00,,---,0.00,VWS V14.01,2013-03-23 02:18:00,
2013-03-22 20:19:00,55.8,24.0,29.69,SW,225,7.8,7.8,29,0.00,,---,0.00,VWS V14.01,2013-03-23 02:19:00,
2013-03-22 20:20:00,55.6,23.9,29.69,SW,225,11.0,11.9,29,0.00,,---,0.00,VWS V14.01,2013-03-23 02:20:00,
2013-03-22 20:21:00,55.6,23.9,29.69,SSW,202,5.8,11.0,29,0.00,,---,0.00,VWS V14.01,2013-03-23 02:21:00,
2013-03-22 20:22:00,55.6,23.9,29.69,SW,225,8.9,8.9,29,0.00,,---,0.00,VWS V14.01,2013-03-23 02:22:00,
2013-03-22 20:23:00,55.4,24.5,29.69,SW,225,6.9,8.9,30,0.00,,---,0.00,VWS V14.01,2013-03-23 02:23:00,
2013-03-22 20:24:00,55.4,24.5,29.69,SW,225,6.9,6.9,30,0.00,,---,0.00,VWS V14.01,2013-03-23 02:24:00,
2013-03-22 20:25:00,55.3,24.4,29.69,SSW,202,12.8,12.8,30,0.00,,---,0.00,VWS V14.01,2013-03-23 02:25:00,
2013-03-22 20:26:00,55.3,24.4,29.69,WSW,248,6.3,12.8,30,0.00,,---,0.00,VWS V14.01,2013-03-23 02:26:00,
2013-03-22 20:27:00,55.3,25.2,29.69,SW,225,12.3,12.3,31,0.00,,---,0.00,VWS V14.01,2013-03-23 02:27:00,
2013-03-22 20:28:00,55.1,25.0,29.69,SSW,202,6.7,12.3,31,0.00,,---,0.00,VWS V14.01,2013-03-23 02:28:00,
2013-03-22 20:29:00,55.1,25.0,29.69,SSW,202,6.7,6.7,31,0.00,,---,0.00,VWS V14.01,2013-03-23 02:29:00,
2013-03-22 20:30:00,55.1,25.0,29.69,SSW,202,8.5,10.5,31,0.00,,---,0.00,VWS V14.01,2013-03-23 02:30:00,
2013-03-22 20:31:00,55.1,25.0,29.70,SW,225,12.8,12.8,31,0.00,,---,0.00,VWS V14.01,2013-03-23 02:31:00,
2013-03-22 20:32:00,54.9,25.6,29.69,SSW,202,11.0,12.8,32,0.00,,---,0.00,VWS V14.01,2013-03-23 02:32:00,
2013-03-22 20:33:00,54.9,25.6,29.70,SW,225,10.5,11.0,32,0.00,,---,0.00,VWS V14.01,2013-03-23 02:33:00,
2013-03-22 20:34:00,54.9,25.6,29.70,SW,225,10.5,10.5,32,0.00,,---,0.00,VWS V14.01,2013-03-23 02:34:00,
2013-03-22 20:35:00,54.7,25.4,29.69,SSW,202,8.1,10.1,32,0.00,,---,0.00,VWS V14.01,2013-03-23 02:35:00,
2013-03-22 20:36:00,54.7,25.4,29.70,SSW,202,11.0,11.0,32,0.00,,---,0.00,VWS V14.01,2013-03-23 02:36:00,
2013-03-22 20:37:00,54.7,25.4,29.70,SW,225,13.4,13.4,32,0.00,,---,0.00,VWS V14.01,2013-03-23 02:37:00,
2013-03-22 20:38:00,54.5,26.0,29.70,WSW,248,9.8,13.4,33,0.00,,---,0.00,VWS V14.01,2013-03-23 02:38:00,
2013-03-22 20:39:00,54.5,26.0,29.70,WSW,248,9.8,9.8,33,0.00,,---,0.00,VWS V14.01,2013-03-23 02:39:00,
2013-03-22 20:40:00,54.5,26.0,29.70,SW,225,13.0,13.0,33,0.00,,---,0.00,VWS V14.01,2013-03-23 02:40:00,
2013-03-22 20:41:00,54.4,25.9,29.70,SSW,202,7.6,13.0,33,0.00,,---,0.00,VWS V14.01,2013-03-23 02:41:00,
2013-03-22 20:42:00,54.4,25.9,29.70,WSW,248,7.8,7.8,33,0.00,,---,0.00,VWS V14.01,2013-03-23 02:42:00,
2013-03-22 20:43:00,54.4,25.9,29.70,SW,225,4.3,7.8,33,0.00,,---,0.00,VWS V14.01,2013-03-23 02:43:00,
2013-03-22 20:44:00,54.4,25.9,29.70,SW,225,4.3,4.3,33,0.00,,---,0.00,VWS V14.01,2013-03-23 02:44:00,
2013-03-22 20:45:00,54.2,25.7,29.70,SW,225,5.8,5.8,33,0.00,,---,0.00,VWS V14.01,2013-03-23 02:45:00,
2013-03-22 20:46:00,54.2,25.7,29.70,WSW,248,9.2,9.2,33,0.00,,---,0.00,VWS V14.01,2013-03-23 02:46:00,
2013-03-22 20:47:00,54.0,25.6,29.70,SSW,202,10.1,10.1,33,0.00,,---,0.00,VWS V14.01,2013-03-23 02:47:00,
2013-03-22 20:48:00,54.0,25.6,29.70,SW,225,7.6,10.1,33,0.00,,---,0.00,VWS V14.01,2013-03-23 02:48:00,
2013-03-22 20:49:00,54.0,25.6,29.70,SW,225,7.6,7.6,33,0.00,,---,0.00,VWS V14.01,2013-03-23 02:49:00,
2013-03-22 20:50:00,54.0,26.3,29.70,SSW,202,11.0,11.0,34,0.00,,---,0.00,VWS V14.01,2013-03-23 02:50:00,
2013-03-22 20:51:00,54.0,26.3,29.70,SW,225,6.3,11.0,34,0.00,,---,0.00,VWS V14.01,2013-03-23 02:51:00,
2013-03-22 20:52:00,54.0,26.3,29.70,SW,225,5.6,6.3,34,0.00,,---,0.00,VWS V14.01,2013-03-23 02:52:00,
2013-03-22 20:53:00,54.0,26.3,29.70,SSW,202,10.3,10.3,34,0.00,,---,0.00,VWS V14.01,2013-03-23 02:53:00,
2013-03-22 20:54:00,54.0,26.3,29.70,SSW,202,10.3,10.3,34,0.00,,---,0.00,VWS V14.01,2013-03-23 02:54:00,
2013-03-22 20:55:00,54.0,26.3,29.70,SSW,202,5.8,5.8,34,0.00,,---,0.00,VWS V14.01,2013-03-23 02:55:00,
2013-03-22 20:56:00,53.8,26.1,29.70,SSW,202,6.5,6.5,34,0.00,,---,0.00,VWS V14.01,2013-03-23 02:56:00,
2013-03-22 20:57:00,53.8,25.4,29.70,SSW,202,4.7,6.5,33,0.00,,---,0.00,VWS V14.01,2013-03-23 02:57:00,
2013-03-22 20:58:00,53.8,26.1,29.70,SW,225,6.7,6.7,34,0.00,,---,0.00,VWS V14.01,2013-03-23 02:58:00,
2013-03-22 20:59:00,53.8,26.1,29.70,SW,225,6.7,6.7,34,0.00,,---,0.00,VWS V14.01,2013-03-23 02:59:00,
2013-03-22 21:00:00,53.8,26.1,29.70,SSW,202,6.0,6.0,34,0.00,,---,0.00,VWS V14.01,2013-03-23 03:00:00,
2013-03-22 21:01:00,53.6,25.9,29.70,SW,225,5.8,6.0,34,0.00,,---,0.00,VWS V14.01,2013-03-23 03:01:00,
2013-03-22 21:02:00,53.6,25.2,29.70,SSW,202,4.5,5.8,33,0.00,,---,0.00,VWS V14.01,2013-03-23 03:02:00,
2013-03-22 21:03:00,53.6,25.9,29.70,SSW,202,8.5,8.5,34,0.00,,---,0.00,VWS V14.01,2013-03-23 03:03:00,
2013-03-22 21:04:00,53.6,25.2,29.70,SW,225,7.6,8.5,33,0.00,,---,0.00,VWS V14.01,2013-03-23 03:04:00,
2013-03-22 21:05:00,53.6,25.2,29.70,SSW,202,6.9,7.6,33,0.00,,---,0.00,VWS V14.01,2013-03-23 03:05:00,
2013-03-22 21:06:00,53.6,25.2,29.70,SW,225,6.3,6.9,33,0.00,,---,0.00,VWS V14.01,2013-03-23 03:06:00,
2013-03-22 21:07:00,53.6,25.2,29.71,WSW,248,4.7,6.3,33,0.00,,---,0.00,VWS V14.01,2013-03-23 03:07:00,
2013-03-22 21:08:00,53.6,25.2,29.71,SSW,202,8.5,8.5,33,0.00,,---,0.00,VWS V14.01,2013-03-23 03:08:00,
2013-03-22 21:09:00,53.6,25.2,29.71,SSW,202,8.5,8.5,33,0.00,,---,0.00,VWS V14.01,2013-03-23 03:09:00,
2013-03-22 21:10:00,53.6,25.2,29.71,SW,225,3.8,3.8,33,0.00,,---,0.00,VWS V14.01,2013-03-23 03:10:00,
2013-03-22 21:11:00,53.6,25.2,29.71,SW,225,3.6,3.8,33,0.00,,---,0.00,VWS V14.01,2013-03-23 03:11:00,
2013-03-22 21:12:00,53.5,25.1,29.71,SSW,202,6.3,6.3,33,0.00,,---,0.00,VWS V14.01,2013-03-23 03:12:00,
2013-03-22 21:13:00,53.5,25.1,29.71,SW,225,5.6,6.3,33,0.00,,---,0.00,VWS V14.01,2013-03-23 03:13:00,
2013-03-22 21:14:00,53.5,25.1,29.71,SW,225,5.6,5.6,33,0.00,,---,0.00,VWS V14.01,2013-03-23 03:14:00,
2013-03-22 21:15:00,53.5,25.1,29.71,SW,225,6.0,9.2,33,0.00,,---,0.00,VWS V14.01,2013-03-23 03:15:00,
2013-03-22 21:16:00,53.5,25.1,29.71,South,180,8.1,8.1,33,0.00,,---,0.00,VWS V14.01,2013-03-23 03:16:00,
2013-03-22 21:17:00,53.3,25.0,29.71,SSW,202,4.9,8.1,33,0.00,,---,0.00,VWS V14.01,2013-03-23 03:17:00,
2013-03-22 21:18:00,53.3,25.0,29.71,SW,225,6.7,6.7,33,0.00,,---,0.00,VWS V14.01,2013-03-23 03:18:00,
2013-03-22 21:19:00,53.3,25.0,29.71,SW,225,6.7,6.7,33,0.00,,---,0.00,VWS V14.01,2013-03-23 03:19:00,
2013-03-22 21:20:00,53.3,25.0,29.71,WSW,248,5.8,5.8,33,0.00,,---,0.00,VWS V14.01,2013-03-23 03:20:00,
2013-03-22 21:21:00,53.3,25.0,29.70,WSW,248,9.2,9.2,33,0.00,,---,0.00,VWS V14.01,2013-03-23 03:21:00,
2013-03-22 21:22:00,53.3,25.0,29.70,SW,225,7.6,9.2,33,0.00,,---,0.00,VWS V14.01,2013-03-23 03:22:00,
2013-03-22 21:23:00,53.3,25.0,29.70,SW,225,11.2,11.2,33,0.00,,---,0.00,VWS V14.01,2013-03-23 03:23:00,
2013-03-22 21:24:00,53.3,25.0,29.70,SW,225,11.2,11.2,33,0.00,,---,0.00,VWS V14.01,2013-03-23 03:24:00,
2013-03-22 21:25:00,53.3,25.0,29.70,SW,225,5.6,6.7,33,0.00,,---,0.00,VWS V14.01,2013-03-23 03:25:00,
2013-03-22 21:26:00,53.3,25.0,29.70,SW,225,4.5,5.6,33,0.00,,---,0.00,VWS V14.01,2013-03-23 03:26:00,
2013-03-22 21:27:00,53.3,25.0,29.70,SSW,202,6.9,6.9,33,0.00,,---,0.00,VWS V14.01,2013-03-23 03:27:00,
2013-03-22 21:28:00,53.3,25.0,29.70,SW,225,8.7,8.7,33,0.00,,---,0.00,VWS V14.01,2013-03-23 03:28:00,
2013-03-22 21:29:00,53.3,25.0,29.70,SW,225,8.7,8.7,33,0.00,,---,0.00,VWS V14.01,2013-03-23 03:29:00,
2013-03-22 21:30:00,53.3,25.0,29.70,WSW,248,9.2,10.1,33,0.00,,---,0.00,VWS V14.01,2013-03-23 03:30:00,
2013-03-22 21:31:00,53.3,25.0,29.70,WSW,248,7.4,9.2,33,0.00,,---,0.00,VWS V14.01,2013-03-23 03:31:00,
2013-03-22 21:32:00,53.3,25.0,29.70,SW,225,4.7,7.4,33,0.00,,---,0.00,VWS V14.01,2013-03-23 03:32:00,
2013-03-22 21:33:00,53.3,25.0,29.70,SSW,202,4.3,4.7,33,0.00,,---,0.00,VWS V14.01,2013-03-23 03:33:00,
2013-03-22 21:34:00,53.3,25.0,29.70,SSW,202,4.3,4.3,33,0.00,,---,0.00,VWS V14.01,2013-03-23 03:34:00,
2013-03-22 21:35:00,53.3,25.0,29.70,West,270,7.6,12.1,33,0.00,,---,0.00,VWS V14.01,2013-03-23 03:35:00,
2013-03-22 21:36:00,53.3,25.0,29.70,SW,225,9.8,9.8,33,0.00,,---,0.00,VWS V14.01,2013-03-23 03:36:00,
2013-03-22 21:37:00,53.3,25.0,29.70,SW,225,9.4,9.8,33,0.00,,---,0.00,VWS V14.01,2013-03-23 03:37:00,
2013-03-22 21:38:00,53.3,25.0,29.70,SW,225,7.8,9.4,33,0.00,,---,0.00,VWS V14.01,2013-03-23 03:38:00,
2013-03-22 21:39:00,53.3,25.0,29.70,SW,225,7.8,7.8,33,0.00,,---,0.00,VWS V14.01,2013-03-23 03:39:00,
2013-03-22 21:40:00,53.3,25.0,29.70,SW,225,10.3,10.3,33,0.00,,---,0.00,VWS V14.01,2013-03-23 03:40:00,
2013-03-22 21:41:00,53.3,25.0,29.70,SSW,202,11.0,11.0,33,0.00,,---,0.00,VWS V14.01,2013-03-23 03:41:00,
2013-03-22 21:42:00,53.3,25.0,29.70,SW,225,5.1,11.0,33,0.00,,---,0.00,VWS V14.01,2013-03-23 03:42:00,
2013-03-22 21:43:00,53.1,25.5,29.70,SW,225,11.9,11.9,34,0.00,,---,0.00,VWS V14.01,2013-03-23 03:43:00,
2013-03-22 21:44:00,53.1,25.5,29.70,SW,225,11.9,11.9,34,0.00,,---,0.00,VWS V14.01,2013-03-23 03:44:00,
2013-03-22 21:45:00,53.1,25.5,29.71,SSW,202,8.7,8.7,34,0.00,,---,0.00,VWS V14.01,2013-03-23 03:45:00,
2013-03-22 21:46:00,53.1,25.5,29.71,SW,225,13.4,13.4,34,0.00,,---,0.00,VWS V14.01,2013-03-23 03:46:00,
2013-03-22 21:47:00,52.9,25.3,29.70,SSW,202,9.8,13.4,34,0.00,,---,0.00,VWS V14.01,2013-03-23 03:47:00,
2013-03-22 21:48:00,52.9,26.0,29.70,SW,225,11.9,11.9,35,0.00,,---,0.00,VWS V14.01,2013-03-23 03:48:00,
2013-03-22 21:49:00,52.9,26.0,29.70,SW,225,11.9,11.9,35,0.00,,---,0.00,VWS V14.01,2013-03-23 03:49:00,
2013-03-22 21:50:00,52.9,26.7,29.71,South,180,6.5,6.7,36,0.00,,---,0.00,VWS V14.01,2013-03-23 03:50:00,
2013-03-22 21:51:00,52.9,26.7,29.71,SSW,202,11.2,11.2,36,0.00,,---,0.00,VWS V14.01,2013-03-23 03:51:00,
2013-03-22 21:52:00,52.9,26.7,29.71,SSW,202,6.3,11.2,36,0.00,,---,0.00,VWS V14.01,2013-03-23 03:52:00,
2013-03-22 21:53:00,52.7,26.5,29.71,SW,225,9.4,9.4,36,0.00,,---,0.00,VWS V14.01,2013-03-23 03:53:00,
2013-03-22 21:54:00,52.7,26.5,29.71,SW,225,9.4,9.4,36,0.00,,---,0.00,VWS V14.01,2013-03-23 03:54:00,
2013-03-22 21:55:00,52.7,26.5,29.71,SW,225,9.2,9.2,36,0.00,,---,0.00,VWS V14.01,2013-03-23 03:55:00,
2013-03-22 21:56:00,52.6,26.4,29.71,SW,225,8.5,9.2,36,0.00,,---,0.00,VWS V14.01,2013-03-23 03:56:00,
2013-03-22 21:57:00,52.6,26.4,29.71,SW,225,11.4,11.4,36,0.00,,---,0.00,VWS V14.01,2013-03-23 03:57:00,
2013-03-22 21:58:00,52.6,26.4,29.71,SW,225,8.9,11.4,36,0.00,,---,0.00,VWS V14.01,2013-03-23 03:58:00,
2013-03-22 21:59:00,52.6,26.4,29.71,SW,225,8.9,8.9,36,0.00,,---,0.00,VWS V14.01,2013-03-23 03:59:00,
2013-03-22 22:00:00,52.6,26.4,29.71,SW,225,9.6,9.6,36,0.00,,---,0.00,VWS V14.01,2013-03-23 04:00:00,
2013-03-22 22:01:00,52.6,27.1,29.71,SW,225,12.5,12.5,37,0.00,,---,0.00,VWS V14.01,2013-03-23 04:01:00,
2013-03-22 22:02:00,52.6,27.1,29.71,West,270,9.6,12.5,37,0.00,,---,0.00,VWS V14.01,2013-03-23 04:02:00,
2013-03-22 22:03:00,52.6,27.1,29.71,SW,225,5.1,9.6,37,0.00,,---,0.00,VWS V14.01,2013-03-23 04:03:00,
2013-03-22 22:04:00,52.6,27.1,29.71,SSW,202,4.7,5.1,37,0.00,,---,0.00,VWS V14.01,2013-03-23 04:04:00,
2013-03-22 22:05:00,52.4,26.9,29.71,SSW,202,5.6,5.6,37,0.00,,---,0.00,VWS V14.01,2013-03-23 04:05:00,
2013-03-22 22:06:00,52.4,26.9,29.71,WSW,248,3.1,5.6,37,0.00,,---,0.00,VWS V14.01,2013-03-23 04:06:00,
2013-03-22 22:07:00,52.4,26.9,29.71,West,270,2.9,3.1,37,0.00,,---,0.00,VWS V14.01,2013-03-23 04:07:00,
2013-03-22 22:08:00,52.4,26.9,29.71,SW,225,8.7,8.7,37,0.00,,---,0.00,VWS V14.01,2013-03-23 04:08:00,
2013-03-22 22:09:00,52.4,26.9,29.71,WSW,248,9.4,9.4,37,0.00,,---,0.00,VWS V14.01,2013-03-23 04:09:00,
2013-03-22 22:10:00,52.4,26.9,29.71,South,180,6.5,6.5,37,0.00,,---,0.00,VWS V14.01,2013-03-23 04:10:00,
2013-03-22 22:11:00,52.2,26.7,29.71,SSW,202,9.8,9.8,37,0.00,,---,0.00,VWS V14.01,2013-03-23 04:11:00,
2013-03-22 22:12:00,52.2,26.7,29.71,SSW,202,5.1,9.8,37,0.00,,---,0.00,VWS V14.01,2013-03-23 04:12:00,
2013-03-22 22:13:00,52.2,26.7,29.71,SW,225,12.1,12.1,37,0.00,,---,0.00,VWS V14.01,2013-03-23 04:13:00,
2013-03-22 22:14:00,52.2,26.7,29.71,WSW,248,2.9,12.1,37,0.00,,---,0.00,VWS V14.01,2013-03-23 04:14:00,
2013-03-22 22:15:00,52.2,26.7,29.71,SW,225,3.4,3.4,37,0.00,,---,0.00,VWS V14.01,2013-03-23 04:15:00,
2013-03-22 22:16:00,52.2,26.7,29.71,South,180,6.9,6.9,37,0.00,,---,0.00,VWS V14.01,2013-03-23 04:16:00,
2013-03-22 22:17:00,52.2,26.7,29.71,SW,225,3.4,6.9,37,0.00,,---,0.00,VWS V14.01,2013-03-23 04:17:00,
2013-03-22 22:18:00,52.2,26.7,29.71,SW,225,6.9,6.9,37,0.00,,---,0.00,VWS V14.01,2013-03-23 04:18:00,
2013-03-22 22:19:00,52.2,26.7,29.71,SW,225,6.3,6.9,37,0.00,,---,0.00,VWS V14.01,2013-03-23 04:19:00,
2013-03-22 22:20:00,52.2,26.7,29.71,SSW,202,5.4,5.4,37,0.00,,---,0.00,VWS V14.01,2013-03-23 04:20:00,
2013-03-22 22:21:00,52.2,26.7,29.71,SSE,158,4.5,5.4,37,0.00,,---,0.00,VWS V14.01,2013-03-23 04:21:00,
2013-03-22 22:22:00,52.2,26.7,29.71,SW,225,7.2,7.2,37,0.00,,---,0.00,VWS V14.01,2013-03-23 04:22:00,
2013-03-22 22:23:00,52.2,26.7,29.71,SW,225,4.3,7.2,37,0.00,,---,0.00,VWS V14.01,2013-03-23 04:23:00,
2013-03-22 22:24:00,52.0,26.5,29.71,SW,225,3.4,4.3,37,0.00,,---,0.00,VWS V14.01,2013-03-23 04:24:00,
2013-03-22 22:25:00,52.2,26.7,29.71,West,270,5.6,5.6,37,0.00,,---,0.00,VWS V14.01,2013-03-23 04:25:00,
2013-03-22 22:26:00,52.0,26.5,29.71,SSW,202,4.7,5.6,37,0.00,,---,0.00,VWS V14.01,2013-03-23 04:26:00,
2013-03-22 22:27:00,52.0,26.5,29.71,SW,225,3.8,4.7,37,0.00,,---,0.00,VWS V14.01,2013-03-23 04:27:00,
2013-03-22 22:28:00,52.0,26.5,29.72,South,180,3.4,3.8,37,0.00,,---,0.00,VWS V14.01,2013-03-23 04:28:00,
2013-03-22 22:29:00,52.0,26.5,29.71,SSE,158,5.1,5.1,37,0.00,,---,0.00,VWS V14.01,2013-03-23 04:29:00,
2013-03-22 22:30:00,52.0,26.5,29.71,South,180,4.7,4.7,37,0.00,,---,0.00,VWS V14.01,2013-03-23 04:30:00,
2013-03-22 22:31:00,52.0,26.5,29.71,South,180,4.5,4.7,37,0.00,,---,0.00,VWS V14.01,2013-03-23 04:31:00,
2013-03-22 22:32:00,52.0,26.5,29.71,SSW,202,4.7,4.7,37,0.00,,---,0.00,VWS V14.01,2013-03-23 04:32:00,
2013-03-22 22:33:00,52.0,26.5,29.72,SSW,202,5.4,5.4,37,0.00,,---,0.00,VWS V14.01,2013-03-23 04:33:00,
2013-03-22 22:34:00,52.0,26.5,29.72,SW,225,2.0,5.4,37,0.00,,---,0.00,VWS V14.01,2013-03-23 04:34:00,
2013-03-22 22:35:00,52.0,26.5,29.72,SW,225,5.4,5.4,37,0.00,,---,0.00,VWS V14.01,2013-03-23 04:35:00,
2013-03-22 22:36:00,51.8,26.4,29.72,South,180,4.3,5.4,37,0.00,,---,0.00,VWS V14.01,2013-03-23 04:36:00,
2013-03-22 22:37:00,51.8,26.4,29.72,SW,225,4.7,4.7,37,0.00,,---,0.00,VWS V14.01,2013-03-23 04:37:00,
2013-03-22 22:38:00,51.8,26.4,29.72,SSW,202,4.7,4.7,37,0.00,,---,0.00,VWS V14.01,2013-03-23 04:38:00,
2013-03-22 22:39:00,51.8,26.4,29.72,South,180,8.1,8.1,37,0.00,,---,0.00,VWS V14.01,2013-03-23 04:39:00,
2013-03-22 22:40:00,51.8,26.4,29.72,South,180,5.1,5.1,37,0.00,,---,0.00,VWS V14.01,2013-03-23 04:40:00,
2013-03-22 22:41:00,51.8,26.4,29.72,SSW,202,4.7,5.1,37,0.00,,---,0.00,VWS V14.01,2013-03-23 04:41:00,
2013-03-22 22:42:00,51.8,26.4,29.72,SSW,202,5.6,5.6,37,0.00,,---,0.00,VWS V14.01,2013-03-23 04:42:00,
2013-03-22 22:43:00,51.8,26.4,29.72,SSW,202,2.0,5.6,37,0.00,,---,0.00,VWS V14.01,2013-03-23 04:43:00,
2013-03-22 22:44:00,51.8,26.4,29.72,South,180,1.1,2.0,37,0.00,,---,0.00,VWS V14.01,2013-03-23 04:44:00,
2013-03-22 22:45:00,51.8,26.4,29.72,SE,135,1.1,1.1,37,0.00,,---,0.00,VWS V14.01,2013-03-23 04:45:00,
2013-03-22 22:46:00,51.7,26.3,29.72,SSE,158,2.5,2.5,37,0.00,,---,0.00,VWS V14.01,2013-03-23 04:46:00,
2013-03-22 22:47:00,51.7,26.3,29.72,South,180,1.1,2.5,37,0.00,,---,0.00,VWS V14.01,2013-03-23 04:47:00,
2013-03-22 22:48:00,51.7,26.3,29.72,SSE,158,2.0,2.0,37,0.00,,---,0.00,VWS V14.01,2013-03-23 04:48:00,
2013-03-22 22:49:00,51.5,26.1,29.72,SSW,202,3.6,3.6,37,0.00,,---,0.00,VWS V14.01,2013-03-23 04:49:00,
2013-03-22 22:50:00,51.5,26.1,29.72,South,180,1.8,1.8,37,0.00,,---,0.00,VWS V14.01,2013-03-23 04:50:00,
2013-03-22 22:51:00,51.5,26.1,29.72,SW,225,4.0,4.0,37,0.00,,---,0.00,VWS V14.01,2013-03-23 04:51:00,
2013-03-22 22:52:00,51.5,26.1,29.72,SSE,158,0.9,4.0,37,0.00,,---,0.00,VWS V14.01,2013-03-23 04:52:00,
2013-03-22 22:53:00,51.5,26.1,29.72,SSW,202,0.9,0.9,37,0.00,,---,0.00,VWS V14.01,2013-03-23 04:53:00,
2013-03-22 22:54:00,51.5,26.1,29.72,SSE,158,1.8,1.8,37,0.00,,---,0.00,VWS V14.01,2013-03-23 04:54:00,
2013-03-22 22:55:00,51.5,26.1,29.72,SSE,158,1.8,1.8,37,0.00,,---,0.00,VWS V14.01,2013-03-23 04:55:00,
2013-03-22 22:56:00,51.5,26.1,29.72,SSE,158,5.1,5.1,37,0.00,,---,0.00,VWS V14.01,2013-03-23 04:56:00,
2013-03-22 22:57:00,51.3,25.9,29.73,SSE,158,1.1,5.1,37,0.00,,---,0.00,VWS V14.01,2013-03-23 04:57:00,
2013-03-22 22:58:00,51.3,25.9,29.73,SSE,158,1.8,1.8,37,0.00,,---,0.00,VWS V14.01,2013-03-23 04:58:00,
2013-03-22 22:59:00,51.1,25.8,29.72,SE,135,1.8,1.8,37,0.00,,---,0.00,VWS V14.01,2013-03-23 04:59:00,
2013-03-22 23:00:00,51.1,25.8,29.72,SSE,158,1.1,1.1,37,0.00,,---,0.00,VWS V14.01,2013-03-23 05:00:00,
2013-03-22 23:01:00,51.1,25.8,29.72,ESE,112,2.5,2.5,37,0.00,,---,0.00,VWS V14.01,2013-03-23 05:01:00,
2013-03-22 23:02:00,51.1,26.4,29.73,SE,135,1.8,2.5,38,0.00,,---,0.00,VWS V14.01,2013-03-23 05:02:00,
2013-03-22 23:03:00,50.9,26.2,29.73,SE,135,1.6,1.8,38,0.00,,---,0.00,VWS V14.01,2013-03-23 05:03:00,
2013-03-22 23:04:00,50.8,26.1,29.73,ESE,112,2.5,2.5,38,0.00,,---,0.00,VWS V14.01,2013-03-23 05:04:00,
2013-03-22 23:05:00,50.8,26.1,29.72,ESE,112,3.6,3.6,38,0.00,,---,0.00,VWS V14.01,2013-03-23 05:05:00,
2013-03-22 23:06:00,50.4,26.4,29.73,ESE,112,3.1,3.6,39,0.00,,---,0.00,VWS V14.01,2013-03-23 05:06:00,
2013-03-22 23:07:00,50.4,26.4,29.72,SE,135,1.8,3.1,39,0.00,,---,0.00,VWS V14.01,2013-03-23 05:07:00,
2013-03-22 23:08:00,50.2,26.2,29.72,ESE,112,3.4,3.4,39,0.00,,---,0.00,VWS V14.01,2013-03-23 05:08:00,
2013-03-22 23:09:00,50.0,26.0,29.72,SE,135,2.5,3.4,39,0.00,,---,0.00,VWS V14.01,2013-03-23 05:09:00,
2013-03-22 23:10:00,50.0,25.4,29.72,SE,135,2.2,2.2,38,0.00,,---,0.00,VWS V14.01,2013-03-23 05:10:00,
2013-03-22 23:11:00,49.9,25.3,29.72,ESE,112,3.8,3.8,38,0.00,,---,0.00,VWS V14.01,2013-03-23 05:11:00,
2013-03-22 23:12:00,49.7,25.1,29.72,ESE,112,3.4,3.8,38,0.00,,---,0.00,VWS V14.01,2013-03-23 05:12:00,
2013-03-22 23:13:00,49.5,25.6,29.72,SSE,158,2.5,3.4,39,0.00,,---,0.00,VWS V14.01,2013-03-23 05:13:00,
2013-03-22 23:14:00,49.3,25.4,29.72,SE,135,1.8,2.5,39,0.00,,---,0.00,VWS V14.01,2013-03-23 05:14:00,
2013-03-22 23:15:00,49.3,25.4,29.72,SE,135,1.3,1.3,39,0.00,,---,0.00,VWS V14.01,2013-03-23 05:15:00,
2013-03-22 23:16:00,49.3,25.4,29.72,SSE,158,4.7,4.7,39,0.00,,---,0.00,VWS V14.01,2013-03-23 05:16:00,
2013-03-22 23:17:00,49.3,25.4,29.72,East,90,4.9,4.9,39,0.00,,---,0.00,VWS V14.01,2013-03-23 05:17:00,
2013-03-22 23:18:00,49.3,25.4,29.72,SSE,158,5.1,5.1,39,0.00,,---,0.00,VWS V14.01,2013-03-23 05:18:00,
2013-03-22 23:19:00,49.3,25.4,29.72,SSE,158,2.5,5.1,39,0.00,,---,0.00,VWS V14.01,2013-03-23 05:19:00,
2013-03-22 23:20:00,49.3,25.4,29.72,SSE,158,3.8,3.8,39,0.00,,---,0.00,VWS V14.01,2013-03-23 05:20:00,
2013-03-22 23:21:00,49.3,25.4,29.72,SE,135,3.4,3.8,39,0.00,,---,0.00,VWS V14.01,2013-03-23 05:21:00,
2013-03-22 23:22:00,49.3,25.4,29.72,SSE,158,6.3,6.3,39,0.00,,---,0.00,VWS V14.01,2013-03-23 05:22:00,
2013-03-22 23:23:00,49.5,25.6,29.73,South,180,3.4,6.3,39,0.00,,---,0.00,VWS V14.01,2013-03-23 05:23:00,
2013-03-22 23:24:00,49.5,25.6,29.72,SSE,158,2.0,3.4,39,0.00,,---,0.00,VWS V14.01,2013-03-23 05:24:00,
2013-03-22 23:25:00,49.5,25.6,29.72,SSE,158,1.8,1.8,39,0.00,,---,0.00,VWS V14.01,2013-03-23 05:25:00,
2013-03-22 23:26:00,49.5,25.6,29.72,SSE,158,2.7,2.7,39,0.00,,---,0.00,VWS V14.01,2013-03-23 05:26:00,
2013-03-22 23:27:00,49.5,25.6,29.72,SSE,158,2.5,2.7,39,0.00,,---,0.00,VWS V14.01,2013-03-23 05:27:00,
2013-03-22 23:28:00,49.5,25.6,29.72,SSE,158,4.7,4.7,39,0.00,,---,0.00,VWS V14.01,2013-03-23 05:28:00,
2013-03-22 23:29:00,49.5,25.6,29.72,SSE,158,3.8,4.7,39,0.00,,---,0.00,VWS V14.01,2013-03-23 05:29:00,
2013-03-22 23:30:00,49.5,25.6,29.73,SSE,158,2.0,2.0,39,0.00,,---,0.00,VWS V14.01,2013-03-23 05:30:00,
2013-03-22 23:31:00,49.7,25.8,29.72,SSE,158,4.0,4.0,39,0.00,,---,0.00,VWS V14.01,2013-03-23 05:31:00,
2013-03-22 23:32:00,49.7,25.8,29.72,SSE,158,2.5,4.0,39,0.00,,---,0.00,VWS V14.01,2013-03-23 05:32:00,
2013-03-22 23:33:00,49.7,25.8,29.73,SE,135,2.5,2.5,39,0.00,,---,0.00,VWS V14.01,2013-03-23 05:33:00,
2013-03-22 23:34:00,49.7,25.8,29.72,SSE,158,2.7,2.7,39,0.00,,---,0.00,VWS V14.01,2013-03-23 05:34:00,
2013-03-22 23:35:00,49.7,25.8,29.72,SE,135,4.3,4.3,39,0.00,,---,0.00,VWS V14.01,2013-03-23 05:35:00,
2013-03-22 23:36:00,49.7,25.8,29.72,SSE,158,2.9,4.3,39,0.00,,---,0.00,VWS V14.01,2013-03-23 05:36:00,
2013-03-22 23:37:00,49.7,25.8,29.72,SE,135,2.9,2.9,39,0.00,,---,0.00,VWS V14.01,2013-03-23 05:37:00,
2013-03-22 23:38:00,49.7,25.8,29.73,SE,135,3.1,3.1,39,0.00,,---,0.00,VWS V14.01,2013-03-23 05:38:00,
2013-03-22 23:39:00,49.5,25.6,29.72,SE,135,3.1,3.1,39,0.00,,---,0.00,VWS V14.01,2013-03-23 05:39:00,
2013-03-22 23:40:00,49.5,25.6,29.73,ESE,112,3.4,3.4,39,0.00,,---,0.00,VWS V14.01,2013-03-23 05:40:00,
2013-03-22 23:41:00,49.7,25.8,29.72,SE,135,3.4,3.4,39,0.00,,---,0.00,VWS V14.01,2013-03-23 05:41:00,
2013-03-22 23:42:00,49.7,25.8,29.72,SSE,158,3.8,3.8,39,0.00,,---,0.00,VWS V14.01,2013-03-23 05:42:00,
2013-03-22 23:43:00,49.7,25.8,29.72,SE,135,4.0,4.0,39,0.00,,---,0.00,VWS V14.01,2013-03-23 05:43:00,
2013-03-22 23:44:00,49.7,25.8,29.72,SE,135,1.3,4.0,39,0.00,,---,0.00,VWS V14.01,2013-03-23 05:44:00,
2013-03-22 23:45:00,49.7,25.8,29.72,SE,135,3.4,3.4,39,0.00,,---,0.00,VWS V14.01,2013-03-23 05:45:00,
2013-03-22 23:46:00,49.5,25.6,29.72,SSE,158,3.1,3.4,39,0.00,,---,0.00,VWS V14.01,2013-03-23 05:46:00,
2013-03-22 23:47:00,49.7,25.8,29.72,SSE,158,3.6,3.6,39,0.00,,---,0.00,VWS V14.01,2013-03-23 05:47:00,
2013-03-22 23:48:00,49.5,25.6,29.72,SE,135,2.2,3.6,39,0.00,,---,0.00,VWS V14.01,2013-03-23 05:48:00,
2013-03-22 23:49:00,49.7,25.8,29.72,SE,135,2.0,2.2,39,0.00,,---,0.00,VWS V14.01,2013-03-23 05:49:00,
2013-03-22 23:50:00,49.7,25.8,29.72,SE,135,2.0,2.0,39,0.00,,---,0.00,VWS V14.01,2013-03-23 05:50:00,
2013-03-22 23:51:00,49.7,25.1,29.72,SE,135,1.1,2.5,38,0.00,,---,0.00,VWS V14.01,2013-03-23 05:51:00,
2013-03-22 23:52:00,49.5,25.6,29.72,South,180,3.4,3.4,39,0.00,,---,0.00,VWS V14.01,2013-03-23 05:52:00,
2013-03-22 23:53:00,49.5,25.6,29.72,ESE,112,4.0,4.0,39,0.00,,---,0.00,VWS V14.01,2013-03-23 05:53:00,
2013-03-22 23:54:00,49.5,25.6,29.73,ESE,112,3.4,4.0,39,0.00,,---,0.00,VWS V14.01,2013-03-23 05:54:00,
2013-03-22 23:55:00,49.5,25.6,29.73,ESE,112,3.4,3.4,39,0.00,,---,0.00,VWS V14.01,2013-03-23 05:55:00,
2013-03-22 23:56:00,49.5,25.6,29.72,SSE,158,2.5,2.5,39,0.00,,---,0.00,VWS V14.01,2013-03-23 05:56:00,
2013-03-22 23:57:00,49.7,25.8,29.73,SSE,158,4.0,4.0,39,0.00,,---,0.00,VWS V14.01,2013-03-23 05:57:00,
2013-03-22 23:58:00,49.7,25.8,29.73,SSW,202,5.4,5.4,39,0.00,,---,0.00,VWS V14.01,2013-03-23 05:58:00,
2013-03-22 23:59:00,49.9,25.3,29.73,SSE,158,2.5,5.4,38,0.00,,---,0.00,VWS V14.01,2013-03-23 05:59:00,